[[{"header":{"parameterUnit":"m.s-1","parameterCategory":1,"la1":31.0,"la2":29.5877,"lo1":-88.7671,"lo2":-86.6584,"dy":0.0162,"dx":0.0185,"nx":115,"ny":88,"refTime":"2023-02-22T06:00:00:Z","depth":0,"parameterNumber":2,"parameterNumberName":"U-component_of_WINDS"},"data":[0.0,0.0,0.0,0.0,0.0,0.0,0.0,0.0,0.0,0.0,0.0,0.0,0.0,0.0,0.0,0.0,0.0,0.0,0.0,0.0,0.0,0.0,0.0,0.0,0.0,0.0,0.0,0.0,0.0,0.0,0.0,0.0,0.0,0.0,0.0,0.0,0.0,0.0,0.0,0.0,0.0,0.0,0.0,0.0,0.0,0.0,0.0,0.0,0.0,0.0,0.0,0.0,0.0,0.0,0.0,0.0,0.0,0.0,0.0,0.0,0.0,0.0,0.0,0.0,0.0,0.0,0.0,0.0,0.0,0.0,0.0,0.0,0.0,0.0,0.0,0.0,0.0,0.0,0.0,0.0,0.0,0.0,0.0,0.0,0.0,0.0,0.0,0.0,0.0,0.0,0.0,0.0,0.0,0.0,0.0,0.0,0.0,0.0,0.0,0.0,0.0,0.0,0.0,0.0,0.0,0.0,0.0,0.0,0.0,0.0,0.0,0.0,0.0,0.0,0.0,0.0,0.0,0.0,0.0,0.0,0.0,0.0,0.0,0.0,0.0,0.0,0.0,0.0,0.0,0.0,0.0,0.0,0.0,0.0,0.0,0.0,0.0,0.0,0.0,0.0,0.0,0.0,0.0,0.0,0.0,0.0,0.0,0.0,0.0,0.0,0.0,0.0,0.0,0.0,0.0,0.0,0.0,0.0,0.0,0.0,0.0,0.0,0.0,0.0,0.0,0.0,0.0,0.0,0.0,0.0,0.0,0.0,0.0,0.0,0.0,0.0,0.0,0.0,0.0,0.0,0.0,0.0,0.0,0.0,0.0,0.0,0.0,0.0,0.0,0.0,0.0,0.0,0.0,0.0,0.0,0.0,0.0,0.0,0.0,0.0,0.0,0.0,0.0,0.0,0.0,0.0,0.0,0.0,0.0,0.0,0.0,0.0,0.0,0.0,0.0,0.0,0.0,0.0,0.0,0.0,0.0,0.0,0.0,0.0,0.0,0.0,0.0,0.0,0.0,0.0,0.0,0.0,0.0,0.0,0.0,0.0,0.0,0.0,0.0,0.0,0.0,0.0,0.0,0.0,0.0,0.0,0.0,0.0,0.0,0.0,0.0,0.0,0.0,0.0,0.0,0.0,0.0,0.0,0.0,0.0,0.0,0.0,0.0,0.0,0.0,0.0,0.0,0.0,0.0,0.0,0.0,0.0,0.0,0.0,0.0,0.0,0.0,0.0,0.0,0.0,0.0,0.0,0.0,0.0,0.0,0.0,0.0,0.0,0.0,0.0,0.0,0.0,0.0,0.0,0.0,0.0,0.0,0.0,0.0,0.0,0.0,0.0,0.0,0.0,0.0,0.0,0.0,0.0,0.0,0.0,0.0,0.0,0.0,0.0,0.0,0.0,0.0,0.0,0.0,0.0,0.0,0.0,0.0,0.0,0.0,0.0,0.0,0.0,0.0,0.0,0.0,0.0,0.0,0.0,0.0,0.0,0.0,0.0,0.0,0.0,0.0,0.0,0.0,0.0,0.0,0.0,0.0,0.0,0.0,0.0,0.0,0.0,0.0,0.0,0.0,0.0,0.0,0.0,0.0,0.0,0.0,0.0,0.0,0.0,0.0,0.0,0.0,0.0,0.0,0.0,0.0,0.0,0.0,0.0,0.0,0.0,0.0,0.0,0.0,0.0,0.0,0.0,0.0,0.0,0.0,0.0,0.0,0.0,0.0,0.0,0.0,0.0,0.0,0.0,0.0,0.0,0.0,0.0,0.0,0.0,0.0,0.0,0.0,0.0,0.0,0.0,0.0,0.0,0.0,0.0,0.0,0.0,0.0,0.0,0.0,0.0,0.0,0.0,0.0,0.0,0.0,0.0,0.0,0.0,0.0,0.0,0.0,0.0,0.0,0.0,0.0,0.0,0.0,0.0,0.0,0.0,0.0,0.0,0.0,0.0,0.0,0.0,0.0,0.0,0.0,0.0,0.0,0.0,0.0,0.0,0.0,0.0,0.0,0.0,0.0,0.0,0.0,0.0,0.0,0.0,0.0,0.0,0.0,0.0,0.0,0.0,0.0,0.0,0.0,0.0,0.0,0.0,0.0,0.0,0.0,0.0,0.0,0.0,0.0,0.0,0.0,0.0,0.0,0.0,0.0,0.0,0.0,0.0,0.0,0.0,0.0,0.0,0.0,0.0,0.0,0.0,0.0,0.0,0.0,0.0,0.0,0.0,0.0,0.0,0.0,0.0,0.0,0.0,0.0,0.0,0.0,0.0,0.0,0.0,0.0,0.0,0.0,0.0,0.0,0.0,0.0,0.0,0.0,0.0,0.0,0.0,0.0,0.0,0.0,0.0,0.0,0.0,0.0,0.0,0.0,0.0,0.0,0.0,0.0,0.0,0.0,0.0,0.0,0.0,0.0,0.0,0.0,0.0,0.0,0.0,0.0,0.0,0.0,0.0,0.0,0.0,0.0,0.0,0.0,0.0,0.0,0.0,0.0,0.0,0.0,0.0,0.0,0.0,0.0,0.0,0.0,0.0,0.0,0.0,0.0,0.0,0.0,0.0,0.0,0.0,0.0,0.0,0.0,0.0,0.0,0.0,0.0,0.0,0.0,0.0,0.0,0.0,0.0,0.0,0.0,0.0,0.0,0.0,0.0,0.0,0.0,0.0,0.0,0.0,0.0,0.0,0.0,0.0,0.0,0.0,0.0,0.0,0.0,0.0,0.0,0.0,0.0,0.0,0.0,0.0,0.0,0.0,0.0,0.0,0.0,0.0,0.0,0.0,0.0,0.0,0.0,0.0,0.0,0.0,0.0,0.0,0.0,0.0,0.0,0.0,0.0,0.0,0.0,0.0,0.0,0.0,0.0,0.0,0.0,0.0,0.0,0.0,0.0,0.0,0.0,0.0,0.0,0.0,0.0,0.0,0.0,0.0,0.0,0.0,0.0,0.0,0.0,0.0,0.0,0.0,0.0,0.0,0.0,0.0,0.0,0.0,0.0,0.0,0.0,0.0,0.0,0.0,0.0,0.0,0.0,0.0,0.0,0.0,0.0,0.0,0.0,0.0,0.0,0.0,0.0,0.0,0.0,0.0,0.0,0.0,0.0,0.0,0.0,0.0,0.0,0.0,0.0,0.0,0.0,0.0,0.0,0.0,0.0,0.0,0.0,0.0,0.0,0.0,0.0,0.0,0.0,0.0,0.0,0.0,0.0,0.0,0.0,0.0,0.0,0.0,0.0,0.0,0.0,0.0,0.0,0.0,0.0,0.0,0.0,0.0,0.0,0.0,0.0,0.0,0.0,0.0,0.0,0.0,0.0,0.0,0.0,0.0,0.0,0.0,0.0,0.0,0.0,0.0,0.0,0.0,0.0,0.0,0.0,0.0,0.0,0.0,0.0,0.0,0.0,0.0,0.0,0.0,0.0,0.0,0.0,0.0,0.0,0.0,0.0,0.0,0.0,0.0,0.0,0.0,0.0,0.0,0.0,0.0,0.0,0.0,0.0,0.0,0.0,0.0,0.0,0.0,0.0,0.0,0.0,0.0,0.0,0.0,0.0,0.0,0.0,0.0,0.0,0.0,0.0,0.0,0.0,0.0,0.0,0.0,0.0,0.0,0.0,0.0,0.0,0.0,0.0,0.0,0.0,0.0,0.0,0.0,0.0,0.0,0.0,0.0,0.0,0.0,0.0,0.0,0.0,0.0,0.0,0.0,0.0,0.0,0.0,0.0,0.0,0.0,0.0,0.0,0.0,0.0,0.0,0.0,0.0,0.0,0.0,0.0,0.0,0.0,0.0,0.0,0.0,0.0,0.0,0.0,0.0,0.0,0.0,0.0,0.0,0.0,0.0,0.0,0.0,0.0,0.0,0.0,0.0,0.0,0.0,0.0,0.0,0.0,0.0,0.0,0.0,0.0,0.0,0.0,0.0,0.0,0.0,0.0,0.0,0.0,0.0,0.0,0.0,0.0,0.0,0.0,0.0,0.0,0.0,0.0,0.0,0.0,0.0,0.0,0.0,0.0,0.0,0.0,0.0,0.0,0.0,0.0,0.0,0.0,0.0,0.0,0.0,0.0,0.0,0.0,0.0,0.0,0.0,0.0,0.0,0.0,0.0,0.0,0.0,0.0,0.0,0.0,0.0,0.0,0.0,0.0,0.0,0.0,0.0,0.0,0.0,0.0,0.0,0.0,0.0,0.0,0.0,0.0,0.0,0.0,0.0,0.0,0.0,0.0,0.0,0.0,0.0,0.0,0.0,0.0,0.0,0.0,0.0,0.0,-3.0532,0.0,0.0,0.0,0.0,0.0,0.0,0.0,0.0,0.0,0.0,0.0,0.0,0.0,0.0,0.0,0.0,0.0,0.0,0.0,0.0,0.0,0.0,0.0,0.0,0.0,0.0,0.0,0.0,0.0,0.0,0.0,0.0,0.0,0.0,0.0,0.0,0.0,0.0,0.0,0.0,0.0,0.0,0.0,0.0,0.0,0.0,0.0,0.0,0.0,0.0,0.0,0.0,0.0,0.0,0.0,0.0,0.0,0.0,0.0,0.0,0.0,0.0,0.0,0.0,0.0,0.0,0.0,0.0,0.0,0.0,0.0,0.0,0.0,0.0,0.0,0.0,0.0,0.0,0.0,0.0,0.0,0.0,0.0,0.0,0.0,0.0,0.0,0.0,0.0,0.0,0.0,0.0,0.0,0.0,0.0,0.0,0.0,0.0,0.0,0.0,0.0,0.0,0.0,0.0,0.0,0.0,0.0,0.0,0.0,0.0,-3.0373,-3.031,-3.0311,-3.0273,-3.0214,0.0,0.0,0.0,0.0,0.0,0.0,0.0,0.0,0.0,0.0,0.0,0.0,0.0,0.0,0.0,0.0,0.0,0.0,0.0,0.0,0.0,0.0,0.0,0.0,0.0,0.0,0.0,0.0,0.0,0.0,0.0,0.0,0.0,0.0,0.0,0.0,0.0,0.0,0.0,0.0,0.0,0.0,0.0,0.0,0.0,0.0,0.0,0.0,0.0,0.0,0.0,0.0,0.0,0.0,0.0,0.0,0.0,0.0,0.0,0.0,0.0,0.0,0.0,0.0,0.0,0.0,0.0,0.0,0.0,0.0,0.0,0.0,0.0,0.0,0.0,0.0,0.0,0.0,0.0,0.0,0.0,0.0,0.0,0.0,0.0,0.0,0.0,0.0,0.0,0.0,0.0,0.0,0.0,0.0,0.0,0.0,0.0,0.0,0.0,0.0,0.0,0.0,0.0,0.0,0.0,0.0,0.0,0.0,0.0,0.0,0.0,0.0,-3.0311,-3.0266,-3.0226,0.0,0.0,0.0,0.0,0.0,0.0,0.0,0.0,0.0,0.0,0.0,0.0,0.0,0.0,0.0,0.0,0.0,0.0,0.0,0.0,0.0,0.0,0.0,0.0,0.0,0.0,0.0,0.0,0.0,0.0,0.0,0.0,0.0,0.0,0.0,0.0,0.0,0.0,0.0,0.0,0.0,0.0,0.0,0.0,0.0,0.0,0.0,0.0,0.0,0.0,0.0,0.0,0.0,0.0,0.0,0.0,0.0,0.0,0.0,0.0,0.0,0.0,0.0,0.0,0.0,0.0,0.0,0.0,0.0,0.0,0.0,0.0,0.0,0.0,0.0,0.0,0.0,0.0,0.0,0.0,0.0,0.0,0.0,0.0,0.0,0.0,0.0,0.0,0.0,0.0,0.0,0.0,0.0,0.0,0.0,0.0,0.0,0.0,0.0,0.0,0.0,0.0,0.0,0.0,0.0,0.0,0.0,0.0,0.0,0.0,-3.0404,-3.0379,-3.0343,0.0,-3.0256,0.0,0.0,0.0,0.0,0.0,0.0,0.0,0.0,0.0,0.0,0.0,0.0,0.0,0.0,0.0,0.0,0.0,0.0,0.0,0.0,0.0,0.0,0.0,0.0,0.0,0.0,0.0,0.0,0.0,0.0,0.0,0.0,0.0,0.0,0.0,0.0,0.0,0.0,0.0,0.0,0.0,0.0,0.0,0.0,0.0,0.0,0.0,0.0,0.0,0.0,0.0,0.0,0.0,0.0,0.0,0.0,0.0,0.0,0.0,0.0,0.0,0.0,0.0,0.0,0.0,0.0,0.0,0.0,0.0,0.0,0.0,0.0,0.0,0.0,0.0,0.0,0.0,0.0,0.0,0.0,0.0,0.0,0.0,0.0,0.0,0.0,0.0,0.0,0.0,0.0,0.0,0.0,0.0,0.0,0.0,0.0,0.0,0.0,0.0,0.0,0.0,0.0,0.0,0.0,0.0,0.0,0.0,0.0,0.0,0.0,-3.0404,-3.0404,-3.0343,-3.0266,0.0,0.0,0.0,0.0,0.0,0.0,0.0,0.0,0.0,0.0,0.0,0.0,0.0,0.0,0.0,0.0,0.0,0.0,0.0,0.0,0.0,0.0,0.0,0.0,0.0,0.0,0.0,0.0,0.0,0.0,0.0,0.0,0.0,0.0,0.0,0.0,0.0,0.0,0.0,0.0,0.0,0.0,0.0,0.0,0.0,0.0,0.0,0.0,0.0,0.0,0.0,0.0,0.0,0.0,0.0,0.0,0.0,0.0,0.0,0.0,0.0,0.0,0.0,0.0,0.0,0.0,0.0,0.0,0.0,0.0,0.0,0.0,0.0,0.0,0.0,0.0,0.0,0.0,0.0,0.0,0.0,0.0,0.0,0.0,0.0,0.0,0.0,0.0,0.0,0.0,0.0,0.0,0.0,0.0,0.0,0.0,0.0,0.0,0.0,0.0,0.0,0.0,0.0,0.0,0.0,0.0,0.0,0.0,0.0,0.0,-3.0404,-3.0398,-3.0373,-3.0324,-3.0273,-3.0214,0.0,0.0,0.0,0.0,0.0,0.0,0.0,0.0,0.0,0.0,0.0,0.0,0.0,0.0,0.0,0.0,0.0,0.0,0.0,0.0,0.0,0.0,0.0,0.0,0.0,0.0,0.0,0.0,0.0,0.0,0.0,0.0,0.0,0.0,0.0,0.0,0.0,0.0,0.0,0.0,0.0,0.0,0.0,0.0,0.0,0.0,0.0,0.0,0.0,0.0,0.0,0.0,0.0,0.0,0.0,0.0,0.0,0.0,0.0,0.0,0.0,0.0,0.0,0.0,0.0,0.0,0.0,0.0,0.0,0.0,0.0,0.0,0.0,0.0,0.0,0.0,0.0,0.0,0.0,0.0,0.0,0.0,0.0,0.0,0.0,0.0,0.0,0.0,0.0,0.0,0.0,0.0,0.0,0.0,0.0,0.0,0.0,0.0,0.0,0.0,0.0,0.0,0.0,0.0,0.0,0.0,0.0,0.0,-3.0404,-3.0404,-3.0373,-3.031,-3.0311,-3.0273,0.0,0.0,0.0,0.0,0.0,0.0,0.0,0.0,0.0,0.0,0.0,0.0,0.0,0.0,0.0,0.0,0.0,0.0,0.0,0.0,0.0,0.0,0.0,0.0,0.0,0.0,0.0,0.0,0.0,0.0,0.0,0.0,0.0,0.0,0.0,0.0,0.0,0.0,0.0,0.0,0.0,0.0,0.0,0.0,0.0,0.0,0.0,0.0,0.0,0.0,0.0,0.0,0.0,0.0,0.0,0.0,0.0,0.0,0.0,0.0,0.0,0.0,0.0,0.0,0.0,0.0,0.0,0.0,0.0,0.0,0.0,0.0,0.0,0.0,0.0,0.0,0.0,0.0,0.0,0.0,0.0,0.0,0.0,0.0,0.0,0.0,0.0,0.0,0.0,0.0,0.0,0.0,0.0,0.0,0.0,0.0,0.0,0.0,0.0,0.0,0.0,0.0,0.0,0.0,0.0,0.0,0.0,0.0,0.0,-3.0404,-3.0404,-3.0398,-3.0367,-3.0318,-3.0279,0.0,0.0,0.0,0.0,0.0,0.0,0.0,0.0,0.0,0.0,0.0,0.0,0.0,0.0,0.0,0.0,0.0,0.0,0.0,0.0,0.0,0.0,0.0,0.0,0.0,0.0,0.0,0.0,0.0,0.0,0.0,0.0,0.0,0.0,0.0,0.0,0.0,0.0,0.0,0.0,0.0,0.0,0.0,0.0,0.0,0.0,0.0,0.0,0.0,0.0,0.0,0.0,0.0,0.0,0.0,0.0,0.0,0.0,0.0,0.0,0.0,0.0,0.0,0.0,0.0,0.0,0.0,0.0,0.0,0.0,0.0,0.0,0.0,0.0,0.0,0.0,0.0,0.0,0.0,0.0,0.0,0.0,0.0,0.0,0.0,0.0,0.0,0.0,0.0,0.0,0.0,0.0,0.0,0.0,0.0,0.0,0.0,0.0,0.0,0.0,0.0,0.0,0.0,0.0,0.0,0.0,0.0,0.0,0.0,-2.9615,0.0,-2.9967,-2.9981,-3.0202,-3.0305,0.0,0.0,0.0,0.0,0.0,0.0,0.0,0.0,0.0,0.0,0.0,0.0,0.0,0.0,0.0,0.0,0.0,0.0,0.0,0.0,0.0,0.0,0.0,0.0,0.0,0.0,0.0,0.0,0.0,0.0,0.0,0.0,0.0,0.0,0.0,0.0,0.0,0.0,0.0,0.0,0.0,0.0,0.0,0.0,0.0,0.0,0.0,0.0,0.0,0.0,0.0,0.0,0.0,0.0,0.0,0.0,0.0,0.0,0.0,0.0,0.0,0.0,0.0,0.0,0.0,0.0,0.0,0.0,0.0,0.0,0.0,0.0,0.0,0.0,0.0,0.0,0.0,0.0,0.0,0.0,0.0,0.0,0.0,0.0,0.0,0.0,0.0,0.0,0.0,0.0,0.0,0.0,0.0,0.0,0.0,0.0,0.0,0.0,0.0,0.0,0.0,0.0,0.0,0.0,0.0,0.0,0.0,0.0,-2.8761,-2.803,-2.8761,-2.9223,-2.9159,-2.9919,-3.0311,0.0,0.0,0.0,0.0,0.0,0.0,0.0,0.0,0.0,0.0,0.0,0.0,0.0,0.0,0.0,0.0,0.0,0.0,0.0,0.0,0.0,0.0,0.0,0.0,0.0,0.0,0.0,0.0,0.0,0.0,0.0,0.0,0.0,0.0,0.0,0.0,0.0,0.0,0.0,0.0,0.0,0.0,0.0,0.0,0.0,0.0,0.0,0.0,0.0,0.0,0.0,0.0,0.0,0.0,0.0,0.0,0.0,0.0,0.0,0.0,0.0,0.0,0.0,0.0,0.0,0.0,0.0,0.0,0.0,0.0,0.0,0.0,0.0,0.0,0.0,0.0,0.0,0.0,0.0,0.0,0.0,0.0,0.0,0.0,0.0,0.0,0.0,0.0,0.0,0.0,0.0,0.0,0.0,0.0,0.0,0.0,0.0,0.0,0.0,0.0,0.0,0.0,0.0,0.0,0.0,0.0,0.0,0.0,0.0,-2.8761,-2.9563,-3.0,-3.0,-3.0207,-3.0298,0.0,0.0,0.0,0.0,0.0,0.0,0.0,0.0,0.0,0.0,0.0,0.0,0.0,0.0,0.0,0.0,0.0,0.0,0.0,0.0,0.0,0.0,0.0,0.0,0.0,0.0,0.0,0.0,0.0,0.0,0.0,0.0,0.0,0.0,0.0,0.0,0.0,0.0,0.0,0.0,0.0,0.0,0.0,0.0,0.0,0.0,0.0,0.0,0.0,0.0,0.0,0.0,0.0,0.0,0.0,0.0,0.0,0.0,0.0,0.0,0.0,0.0,0.0,0.0,0.0,0.0,0.0,0.0,0.0,0.0,0.0,0.0,0.0,0.0,0.0,0.0,0.0,0.0,0.0,0.0,0.0,0.0,0.0,0.0,0.0,0.0,0.0,0.0,0.0,0.0,0.0,0.0,0.0,0.0,0.0,0.0,0.0,0.0,0.0,0.0,0.0,0.0,0.0,0.0,0.0,0.0,0.0,0.0,0.0,-2.9583,-2.9506,-2.9602,-2.991,-2.9873,-3.0009,-3.0272,0.0,0.0,0.0,0.0,0.0,0.0,0.0,0.0,0.0,0.0,0.0,0.0,0.0,0.0,0.0,0.0,0.0,0.0,0.0,0.0,0.0,0.0,0.0,0.0,0.0,0.0,0.0,0.0,0.0,0.0,0.0,0.0,0.0,0.0,0.0,0.0,0.0,0.0,0.0,0.0,0.0,0.0,0.0,0.0,0.0,0.0,0.0,0.0,0.0,0.0,0.0,0.0,0.0,0.0,0.0,0.0,0.0,0.0,0.0,0.0,0.0,0.0,0.0,0.0,0.0,0.0,0.0,0.0,0.0,0.0,0.0,0.0,0.0,0.0,0.0,0.0,0.0,0.0,0.0,0.0,0.0,0.0,0.0,0.0,0.0,0.0,0.0,0.0,0.0,0.0,0.0,0.0,0.0,0.0,0.0,0.0,0.0,0.0,0.0,0.0,0.0,0.0,0.0,0.0,0.0,0.0,0.0,0.0,-3.0462,-2.8929,-2.8506,-2.9184,-2.9204,-2.9494,0.0,0.0,0.0,0.0,0.0,0.0,0.0,0.0,0.0,0.0,0.0,0.0,0.0,0.0,0.0,0.0,0.0,0.0,0.0,0.0,0.0,0.0,0.0,0.0,0.0,0.0,0.0,0.0,0.0,0.0,0.0,0.0,0.0,0.0,0.0,0.0,0.0,0.0,0.0,0.0,0.0,0.0,0.0,0.0,0.0,0.0,0.0,0.0,0.0,0.0,0.0,0.0,0.0,0.0,0.0,0.0,0.0,0.0,0.0,0.0,0.0,0.0,0.0,0.0,0.0,0.0,0.0,0.0,0.0,0.0,0.0,0.0,0.0,0.0,0.0,0.0,0.0,0.0,0.0,0.0,0.0,0.0,0.0,0.0,0.0,0.0,0.0,0.0,0.0,0.0,0.0,0.0,0.0,0.0,0.0,0.0,0.0,0.0,0.0,0.0,0.0,0.0,0.0,0.0,0.0,0.0,0.0,0.0,0.0,-3.1333,-3.0923,-3.0487,-3.0083,-3.0058,-2.9846,0.0,0.0,0.0,0.0,0.0,0.0,0.0,0.0,0.0,0.0,0.0,0.0,0.0,0.0,0.0,0.0,0.0,0.0,0.0,0.0,0.0,0.0,0.0,0.0,0.0,0.0,0.0,0.0,0.0,0.0,0.0,0.0,0.0,0.0,0.0,0.0,0.0,0.0,0.0,0.0,0.0,0.0,0.0,0.0,0.0,0.0,0.0,0.0,0.0,0.0,0.0,0.0,0.0,0.0,0.0,0.0,0.0,0.0,0.0,0.0,0.0,0.0,0.0,0.0,0.0,0.0,0.0,0.0,0.0,0.0,0.0,0.0,0.0,0.0,0.0,0.0,0.0,0.0,0.0,0.0,0.0,0.0,0.0,0.0,0.0,0.0,0.0,0.0,0.0,0.0,0.0,0.0,0.0,0.0,0.0,0.0,0.0,0.0,0.0,0.0,0.0,0.0,0.0,0.0,0.0,0.0,0.0,0.0,-3.1141,-3.2179,-3.1891,-3.1448,-3.0942,-3.0577,-2.9981,0.0,0.0,0.0,0.0,0.0,0.0,0.0,0.0,0.0,0.0,0.0,0.0,0.0,0.0,0.0,0.0,0.0,0.0,0.0,0.0,0.0,0.0,0.0,0.0,0.0,0.0,0.0,0.0,0.0,0.0,0.0,0.0,0.0,0.0,0.0,0.0,0.0,0.0,0.0,0.0,0.0,0.0,0.0,0.0,0.0,0.0,0.0,0.0,0.0,0.0,0.0,0.0,0.0,0.0,0.0,0.0,0.0,0.0,0.0,0.0,0.0,0.0,0.0,0.0,0.0,0.0,0.0,0.0,0.0,0.0,0.0,0.0,0.0,0.0,0.0,0.0,0.0,0.0,0.0,0.0,0.0,0.0,0.0,0.0,0.0,0.0,0.0,0.0,0.0,0.0,0.0,0.0,0.0,0.0,0.0,0.0,0.0,0.0,0.0,0.0,0.0,0.0,0.0,0.0,0.0,0.0,0.0,0.0,-3.0333,-3.2583,-3.2122,-3.1737,-3.1564,-3.0904,-3.0077,0.0,0.0,0.0,0.0,0.0,0.0,0.0,0.0,0.0,0.0,0.0,0.0,0.0,0.0,0.0,0.0,0.0,0.0,0.0,0.0,0.0,0.0,0.0,0.0,0.0,0.0,0.0,0.0,0.0,0.0,0.0,0.0,0.0,0.0,0.0,0.0,0.0,0.0,0.0,0.0,0.0,0.0,0.0,0.0,0.0,0.0,0.0,0.0,0.0,0.0,0.0,0.0,0.0,0.0,0.0,0.0,0.0,0.0,0.0,0.0,0.0,0.0,0.0,0.0,0.0,0.0,0.0,0.0,0.0,0.0,0.0,0.0,0.0,0.0,0.0,0.0,0.0,0.0,0.0,0.0,0.0,0.0,0.0,0.0,0.0,0.0,0.0,0.0,0.0,0.0,0.0,0.0,0.0,0.0,0.0,0.0,0.0,0.0,0.0,0.0,0.0,0.0,0.0,0.0,0.0,0.0,0.0,0.0,-3.0365,-3.0929,-3.2064,-3.2006,-3.0712,-3.1173,-3.0698,0.0,0.0,0.0,0.0,0.0,0.0,0.0,0.0,0.0,0.0,0.0,0.0,0.0,0.0,0.0,0.0,0.0,0.0,0.0,0.0,0.0,0.0,0.0,0.0,0.0,0.0,0.0,0.0,0.0,0.0,0.0,0.0,0.0,0.0,0.0,0.0,0.0,0.0,0.0,0.0,0.0,0.0,0.0,0.0,0.0,0.0,0.0,0.0,-2.518,0.0,0.0,0.0,0.0,0.0,0.0,0.0,0.0,0.0,0.0,0.0,0.0,0.0,0.0,0.0,0.0,0.0,0.0,0.0,0.0,0.0,0.0,0.0,0.0,0.0,0.0,0.0,0.0,0.0,0.0,0.0,0.0,0.0,0.0,0.0,0.0,0.0,0.0,0.0,0.0,0.0,0.0,0.0,0.0,0.0,0.0,0.0,0.0,0.0,0.0,0.0,0.0,0.0,0.0,0.0,0.0,0.0,0.0,0.0,-2.9602,-3.0404,-3.1679,-3.1718,-3.0481,-3.0846,-3.0442,0.0,0.0,0.0,0.0,0.0,0.0,0.0,0.0,0.0,0.0,0.0,0.0,0.0,0.0,0.0,0.0,0.0,0.0,0.0,0.0,0.0,0.0,0.0,0.0,0.0,0.0,0.0,0.0,0.0,0.0,0.0,0.0,0.0,0.0,0.0,0.0,0.0,0.0,0.0,0.0,0.0,0.0,0.0,0.0,0.0,0.0,0.0,0.0,0.0,0.0,0.0,0.0,0.0,0.0,0.0,0.0,0.0,0.0,0.0,0.0,0.0,0.0,0.0,0.0,0.0,0.0,0.0,0.0,0.0,0.0,0.0,0.0,0.0,0.0,0.0,0.0,0.0,0.0,0.0,0.0,0.0,0.0,0.0,0.0,0.0,0.0,0.0,0.0,0.0,0.0,0.0,0.0,0.0,0.0,0.0,0.0,0.0,0.0,0.0,0.0,0.0,0.0,0.0,0.0,0.0,0.0,0.0,-2.7255,-2.839,-2.9769,-3.066,-3.075,-3.0038,-2.9885,-2.9538,-2.8953,0.0,0.0,0.0,0.0,0.0,0.0,0.0,0.0,0.0,0.0,0.0,0.0,0.0,0.0,0.0,0.0,0.0,0.0,0.0,0.0,0.0,0.0,0.0,0.0,0.0,0.0,0.0,0.0,0.0,0.0,0.0,0.0,0.0,0.0,0.0,0.0,0.0,0.0,-2.521,-2.521,0.0,0.0,0.0,0.0,0.0,0.0,0.0,0.0,-2.521,0.0,0.0,0.0,0.0,0.0,0.0,0.0,0.0,0.0,0.0,0.0,0.0,0.0,0.0,0.0,0.0,0.0,0.0,0.0,0.0,0.0,0.0,0.0,0.0,0.0,0.0,0.0,0.0,0.0,0.0,0.0,0.0,0.0,0.0,0.0,0.0,0.0,0.0,0.0,0.0,0.0,0.0,0.0,0.0,0.0,0.0,0.0,0.0,0.0,0.0,0.0,0.0,0.0,0.0,0.0,0.0,-2.5519,-2.637,-2.6948,-2.7236,-2.8063,-2.8453,-2.8294,-2.7601,-2.7486,-2.8088,0.0,0.0,0.0,0.0,0.0,0.0,0.0,0.0,0.0,0.0,0.0,0.0,0.0,0.0,0.0,0.0,0.0,0.0,0.0,0.0,0.0,0.0,0.0,0.0,0.0,0.0,0.0,0.0,0.0,0.0,0.0,0.0,0.0,0.0,0.0,0.0,0.0,0.0,0.0,-2.521,-2.521,0.0,0.0,0.0,0.0,0.0,0.0,0.0,0.0,-2.544,0.0,0.0,0.0,0.0,0.0,0.0,0.0,0.0,0.0,0.0,0.0,0.0,0.0,0.0,0.0,0.0,0.0,0.0,0.0,0.0,0.0,0.0,0.0,0.0,0.0,0.0,0.0,0.0,0.0,0.0,0.0,0.0,0.0,0.0,0.0,0.0,0.0,0.0,0.0,0.0,0.0,0.0,0.0,0.0,0.0,0.0,0.0,0.0,0.0,0.0,0.0,0.0,0.0,0.0,0.0,-2.5365,-2.6601,-2.7274,-2.7294,-2.8082,-2.8319,-2.7909,-2.7063,-2.6813,0.0,0.0,0.0,0.0,0.0,0.0,0.0,0.0,0.0,0.0,0.0,0.0,0.0,0.0,0.0,0.0,0.0,0.0,0.0,0.0,0.0,0.0,0.0,0.0,0.0,0.0,0.0,0.0,0.0,0.0,0.0,0.0,0.0,0.0,0.0,0.0,0.0,0.0,0.0,0.0,-2.521,-2.521,-2.521,0.0,0.0,0.0,0.0,0.0,0.0,-2.5816,-2.6103,0.0,0.0,0.0,0.0,0.0,0.0,0.0,0.0,0.0,0.0,0.0,0.0,0.0,0.0,0.0,0.0,0.0,0.0,0.0,0.0,0.0,0.0,0.0,0.0,0.0,0.0,0.0,0.0,0.0,0.0,0.0,0.0,0.0,0.0,0.0,0.0,0.0,0.0,0.0,0.0,0.0,0.0,0.0,0.0,0.0,0.0,0.0,0.0,0.0,0.0,0.0,0.0,0.0,0.0,0.0,-2.5346,-2.6678,-2.7371,-2.7409,-2.7992,-2.8025,-2.739,-2.6717,-2.6327,0.0,0.0,0.0,0.0,0.0,0.0,0.0,0.0,0.0,0.0,0.0,0.0,0.0,0.0,0.0,0.0,0.0,0.0,0.0,0.0,0.0,0.0,0.0,0.0,0.0,0.0,0.0,0.0,0.0,0.0,0.0,0.0,0.0,0.0,0.0,0.0,0.0,0.0,0.0,0.0,0.0,-2.521,-2.521,-2.521,0.0,0.0,0.0,0.0,-2.6064,-2.6294,0.0,0.0,0.0,0.0,0.0,0.0,0.0,0.0,0.0,0.0,0.0,0.0,0.0,0.0,0.0,0.0,0.0,0.0,0.0,0.0,0.0,0.0,0.0,0.0,0.0,0.0,0.0,0.0,0.0,0.0,0.0,0.0,0.0,0.0,0.0,0.0,0.0,0.0,0.0,0.0,0.0,0.0,0.0,0.0,0.0,0.0,0.0,0.0,0.0,0.0,0.0,0.0,0.0,0.0,0.0,0.0,-2.5308,-2.55,-2.5615,-2.5596,-2.5692,-2.5692,-2.5596,-2.55,-2.5462,0.0,0.0,0.0,0.0,0.0,0.0,0.0,0.0,0.0,0.0,0.0,0.0,0.0,0.0,0.0,0.0,0.0,0.0,0.0,0.0,0.0,0.0,0.0,0.0,0.0,0.0,0.0,0.0,0.0,0.0,0.0,0.0,0.0,0.0,0.0,0.0,0.0,0.0,0.0,0.0,0.0,-2.521,-2.521,-2.521,-2.521,0.0,0.0,-2.5229,-2.5325,-2.5931,0.0,0.0,0.0,0.0,0.0,0.0,0.0,0.0,0.0,0.0,0.0,0.0,0.0,0.0,0.0,0.0,0.0,0.0,0.0,0.0,0.0,0.0,0.0,0.0,0.0,0.0,0.0,0.0,0.0,0.0,0.0,0.0,0.0,0.0,0.0,0.0,0.0,0.0,0.0,0.0,0.0,0.0,0.0,0.0,0.0,0.0,0.0,0.0,0.0,0.0,0.0,0.0,0.0,0.0,0.0,-2.5308,-2.5327,-2.5788,-2.6038,-2.6038,-2.6038,-2.6038,-2.6043,-2.5558,-2.5308,0.0,0.0,0.0,0.0,0.0,0.0,0.0,0.0,0.0,0.0,0.0,0.0,0.0,0.0,0.0,0.0,0.0,0.0,0.0,0.0,0.0,0.0,0.0,0.0,0.0,0.0,0.0,0.0,0.0,0.0,0.0,0.0,0.0,0.0,0.0,0.0,0.0,0.0,0.0,0.0,0.0,0.0,-2.521,-2.521,0.0,0.0,0.0,-2.6064,-2.6561,0.0,0.0,0.0,0.0,0.0,0.0,0.0,0.0,0.0,0.0,0.0,0.0,0.0,0.0,0.0,0.0,0.0,0.0,0.0,0.0,0.0,0.0,0.0,0.0,0.0,0.0,0.0,0.0,0.0,0.0,0.0,0.0,0.0,0.0,0.0,0.0,0.0,0.0,0.0,0.0,0.0,0.0,0.0,0.0,0.0,0.0,0.0,0.0,0.0,0.0,0.0,0.0,0.0,0.0,0.0,0.0,0.0,-2.5308,-2.5942,-2.6274,-2.6274,-2.6274,-2.6274,-2.6269,-2.5635,0.0,0.0,0.0,0.0,0.0,0.0,0.0,0.0,0.0,0.0,0.0,0.0,0.0,0.0,0.0,0.0,0.0,0.0,0.0,0.0,0.0,0.0,0.0,0.0,0.0,0.0,0.0,-2.5816,0.0,0.0,0.0,0.0,0.0,0.0,0.0,0.0,0.0,0.0,0.0,0.0,0.0,0.0,-2.5434,-2.5229,-2.521,-2.521,0.0,0.0,-2.6326,-2.6956,-2.7752,-2.8574,0.0,0.0,0.0,0.0,0.0,0.0,0.0,0.0,0.0,0.0,0.0,0.0,0.0,0.0,0.0,0.0,0.0,0.0,0.0,0.0,0.0,0.0,0.0,0.0,0.0,0.0,0.0,0.0,0.0,0.0,0.0,0.0,0.0,0.0,0.0,0.0,0.0,0.0,0.0,0.0,0.0,0.0,0.0,0.0,0.0,0.0,0.0,0.0,0.0,0.0,0.0,0.0,0.0,0.0,0.0,-2.5308,-2.5346,-2.5404,-2.5385,-2.5385,-2.538,-2.5399,-2.5322,-2.5308,0.0,0.0,0.0,0.0,0.0,0.0,0.0,0.0,0.0,0.0,0.0,0.0,0.0,0.0,0.0,0.0,0.0,0.0,0.0,0.0,0.0,0.0,0.0,0.0,0.0,0.0,0.0,0.0,0.0,0.0,0.0,0.0,0.0,0.0,0.0,0.0,0.0,0.0,0.0,0.0,0.0,-2.6045,-2.5325,-2.521,-2.521,0.0,0.0,-2.5306,-2.5382,-2.6064,-2.6861,-2.7733,0.0,0.0,0.0,0.0,0.0,0.0,0.0,0.0,0.0,0.0,0.0,0.0,0.0,0.0,0.0,0.0,0.0,0.0,0.0,0.0,0.0,0.0,0.0,0.0,0.0,0.0,0.0,0.0,0.0,0.0,0.0,0.0,0.0,0.0,0.0,0.0,0.0,0.0,0.0,0.0,0.0,0.0,0.0,0.0,0.0,0.0,0.0,0.0,0.0,0.0,0.0,0.0,0.0,-2.5308,-2.5308,-2.5308,-2.5308,-2.5308,-2.5308,-2.5308,-2.5308,-2.5308,-2.5308,0.0,0.0,0.0,0.0,0.0,0.0,0.0,0.0,0.0,0.0,0.0,0.0,0.0,0.0,0.0,0.0,0.0,0.0,0.0,0.0,0.0,0.0,0.0,0.0,0.0,0.0,0.0,0.0,-2.7701,-2.802,-2.8796,0.0,0.0,0.0,0.0,0.0,0.0,0.0,0.0,0.0,0.0,-2.6103,-2.5325,-2.521,0.0,0.0,-2.5631,-2.595,-2.5931,-2.7065,-2.8058,-2.8402,-2.9153,0.0,0.0,0.0,0.0,0.0,0.0,0.0,0.0,0.0,0.0,0.0,0.0,0.0,0.0,0.0,0.0,0.0,0.0,0.0,0.0,0.0,0.0,0.0,0.0,0.0,0.0,0.0,0.0,0.0,0.0,0.0,0.0,0.0,0.0,0.0,0.0,0.0,0.0,0.0,0.0,0.0,0.0,0.0,0.0,0.0,0.0,0.0,0.0,0.0,0.0,0.0,0.0,-2.5308,-2.5308,-2.5308,-2.5308,-2.5308,-2.5308,-2.5308,-2.5308,-2.5308,-2.5308,0.0,0.0,0.0,0.0,0.0,0.0,0.0,0.0,0.0,0.0,0.0,0.0,0.0,0.0,0.0,0.0,0.0,0.0,0.0,0.0,0.0,0.0,0.0,0.0,0.0,0.0,0.0,0.0,-2.8466,-2.8676,-2.9223,0.0,0.0,0.0,0.0,0.0,0.0,0.0,0.0,0.0,0.0,-2.6389,-2.5363,-2.521,-2.521,-2.521,-2.5682,-2.6122,-2.637,-2.7389,-2.8325,-2.8815,0.0,0.0,0.0,0.0,0.0,0.0,0.0,0.0,0.0,0.0,0.0,0.0,0.0,0.0,0.0,0.0,0.0,0.0,0.0,0.0,0.0,0.0,0.0,0.0,0.0,0.0,0.0,0.0,0.0,0.0,-2.5712,0.0,0.0,0.0,0.0,0.0,0.0,0.0,0.0,0.0,0.0,0.0,0.0,0.0,0.0,0.0,0.0,0.0,0.0,0.0,0.0,0.0,0.0,-2.5308,-2.5308,-2.5308,-2.5308,-2.5308,-2.5308,-2.5308,-2.5308,-2.5308,-2.5308,-2.5308,0.0,0.0,0.0,0.0,0.0,0.0,0.0,0.0,0.0,0.0,0.0,0.0,0.0,0.0,0.0,0.0,0.0,0.0,0.0,0.0,0.0,0.0,0.0,0.0,0.0,0.0,-3.0096,-3.0147,-3.0115,0.0,0.0,0.0,0.0,0.0,0.0,0.0,0.0,0.0,0.0,-2.7682,-2.7071,-2.5478,-2.5229,-2.5287,-2.5229,-2.5268,-2.5529,-2.6294,-2.646,-2.7014,0.0,0.0,0.0,0.0,0.0,0.0,0.0,0.0,0.0,0.0,0.0,0.0,0.0,0.0,0.0,0.0,0.0,0.0,0.0,0.0,0.0,0.0,0.0,0.0,0.0,0.0,0.0,-2.8544,-2.7444,0.0,0.0,0.0,0.0,0.0,0.0,0.0,0.0,0.0,0.0,0.0,-2.9825,-3.0145,0.0,0.0,0.0,0.0,0.0,0.0,0.0,0.0,0.0,0.0,0.0,0.0,-2.5865,-2.5327,-2.5308,-2.5308,-2.5308,-2.5308,-2.5308,-2.5308,-2.5308,-2.5308,-2.5308,0.0,0.0,0.0,0.0,0.0,0.0,0.0,0.0,0.0,0.0,0.0,0.0,0.0,0.0,0.0,0.0,0.0,0.0,0.0,0.0,0.0,0.0,0.0,0.0,0.0,-3.0204,0.0,0.0,0.0,0.0,0.0,0.0,0.0,0.0,0.0,0.0,0.0,-2.9784,-2.865,-2.8497,-2.8096,-2.7014,-2.6861,-2.6657,0.0,0.0,0.0,0.0,0.0,0.0,0.0,0.0,0.0,0.0,0.0,0.0,0.0,0.0,-3.0204,-3.0204,-3.0204,-3.0204,-3.0204,0.0,0.0,0.0,0.0,0.0,0.0,0.0,0.0,0.0,0.0,0.0,0.0,0.0,0.0,-2.8498,0.0,-2.7427,0.0,0.0,0.0,0.0,0.0,0.0,0.0,0.0,-2.9394,-2.9945,-3.0312,-3.0624,-3.0661,0.0,-3.0404,-3.0404,0.0,0.0,0.0,0.0,0.0,0.0,0.0,0.0,-2.6313,-2.5769,-2.5442,-2.5308,-2.5308,-2.5308,-2.5308,-2.5308,-2.5322,-2.5327,-2.5336,-2.6169,-2.7036,0.0,0.0,0.0,0.0,0.0,0.0,0.0,0.0,0.0,0.0,0.0,0.0,0.0,0.0,0.0,0.0,0.0,0.0,0.0,0.0,0.0,0.0,0.0,-3.0204,0.0,0.0,0.0,0.0,0.0,0.0,0.0,0.0,0.0,-3.0204,-3.0204,-2.986,-2.9013,-2.8891,-2.8586,-2.781,0.0,0.0,0.0,0.0,0.0,0.0,0.0,-2.8987,-2.9299,-2.9822,-3.0204,-3.0204,-3.0204,-3.0204,-3.0204,0.0,0.0,-3.0204,-3.0204,-3.0204,-3.0204,-3.0204,-3.0032,-2.9471,-2.8688,-2.7962,0.0,0.0,0.0,0.0,0.0,0.0,0.0,0.0,-3.0078,-2.9369,0.0,-2.8455,0.0,0.0,0.0,0.0,0.0,-2.8079,0.0,0.0,-3.0842,-3.1258,-3.0497,-3.1283,-3.125,-3.0481,-3.0423,-3.0404,-3.0404,-3.0404,0.0,0.0,0.0,0.0,0.0,0.0,-2.6659,-2.6621,-2.5788,-2.5346,-2.5365,-2.5322,-2.5308,-2.5293,-2.5364,-2.5389,-2.543,-2.6207,-2.7075,-2.7966,-2.8741,0.0,0.0,0.0,0.0,0.0,0.0,0.0,0.0,0.0,0.0,0.0,0.0,0.0,0.0,0.0,0.0,0.0,0.0,0.0,0.0,-3.0242,0.0,0.0,0.0,0.0,0.0,0.0,0.0,0.0,0.0,0.0,-3.0204,-3.0204,-2.9898,-2.9063,0.0,0.0,0.0,0.0,-2.7778,-2.774,-2.7759,-2.8058,-2.8758,-2.8911,-2.9223,-3.0051,0.0,0.0,-3.0204,-3.0204,-3.0204,-3.0204,-3.0204,-3.0204,-3.0204,-3.0204,-3.0204,-3.0204,-3.0204,-3.0185,-3.0089,-2.9357,-2.8796,-3.1371,0.0,0.0,0.0,0.0,-3.1077,-3.161,-3.2032,-3.145,-3.0906,-3.0354,-2.9794,0.0,0.0,0.0,0.0,0.0,0.0,-2.9905,-3.0713,-3.1869,-3.2313,-3.2154,-3.1846,-3.1558,-3.1288,-3.0692,-3.0404,-3.0404,-3.0404,-3.0404,-3.0385,0.0,0.0,0.0,0.0,-2.8102,-2.7525,-2.6678,-2.6231,-2.6212,-2.5635,-2.5327,-2.5369,-2.5389,-2.5414,-2.5478,-2.5712,-2.6531,-2.799,-2.8288,0.0,0.0,0.0,0.0,0.0,0.0,0.0,0.0,0.0,0.0,0.0,0.0,0.0,0.0,0.0,0.0,0.0,0.0,0.0,-3.1121,-3.1083,-3.1305,0.0,0.0,0.0,0.0,0.0,0.0,0.0,0.0,0.0,-3.0204,-3.0204,-3.0115,0.0,0.0,-2.9765,-2.9516,-2.9478,-2.9268,-2.865,-2.9096,0.0,0.0,-2.9414,-2.9917,-3.0147,-3.0204,-3.0204,-3.0204,-3.0204,-3.0204,-3.0204,-3.0204,-3.0204,-3.0204,-3.0204,-3.0204,-3.0204,-3.0204,-2.9975,-2.9414,-2.9051,-2.8739,-3.2814,-2.9935,-3.0396,-3.1121,-3.1948,-3.2468,-3.316,-3.391,-3.3423,-3.2875,-3.2268,-3.1864,-3.1299,-3.0656,-3.0201,0.0,0.0,0.0,-3.1333,-3.2023,-3.2888,-3.3159,-3.2891,-3.2737,-3.2333,-3.1698,-3.1173,-3.075,-3.0404,-3.0404,-3.0404,-3.0404,0.0,0.0,-2.9146,-2.9107,-2.8703,-2.7915,-2.7044,-2.6428,-2.6077,-2.5577,-2.5327,-2.5393,-2.5414,-2.5469,-2.5532,-2.5549,-2.6345,-2.8055,-2.814,-2.8906,0.0,0.0,0.0,0.0,0.0,0.0,0.0,0.0,0.0,0.0,0.0,-3.2884,0.0,0.0,0.0,0.0,-3.2323,-3.2013,-3.2003,-3.195,0.0,0.0,0.0,0.0,0.0,0.0,0.0,-3.1496,-3.0739,-3.0204,-3.0204,-3.0204,-3.0204,-3.0204,-3.0204,-3.0204,-3.0204,0.0,-3.0013,-2.949,-2.986,-3.0013,-2.9509,-2.9841,-3.0204,-3.0204,-3.0204,-3.0204,-3.0204,-3.0204,-3.0204,-3.0204,-3.0204,-3.0204,-3.0204,-3.0204,-3.0204,-3.0204,-3.0204,-3.0013,-2.9497,-2.9414,-2.9242,-3.4814,-3.3295,-3.3314,-3.368,-3.4302,-3.4359,-3.4891,-3.5673,-3.5615,-3.4961,-3.3964,-3.4119,-3.3474,-3.2257,-3.2257,0.0,-3.1455,-3.2329,-3.2826,-3.3026,-3.391,-3.3872,-3.316,-3.3859,-3.3359,-3.1795,-3.1814,-3.1346,-3.0538,-3.0596,-3.0577,-3.05,-3.0558,-3.014,-2.9261,-2.9204,-2.8838,-2.8107,-2.7255,-2.637,-2.5442,-2.5409,-2.5398,-2.5414,-2.5482,-2.5549,-2.5601,-2.5605,-2.6414,-2.8086,-2.8199,-2.893,-3.0494,0.0,0.0,0.0,0.0,0.0,0.0,0.0,0.0,0.0,0.0,0.0,0.0,0.0,0.0,0.0,-3.2943,0.0,-3.2893,-3.2837,0.0,0.0,0.0,-3.2909,-3.289,-3.2183,-3.1675,-3.1599,0.0,0.0,-3.0204,-3.0204,-3.0204,-3.0204,-3.0204,-3.0204,-3.0204,-3.0204,-3.0204,-3.0147,-3.0204,-3.0204,-3.0128,-3.0173,-3.0204,-3.0204,-3.0204,-3.0204,-3.0204,-3.0204,-3.0204,-3.0204,-3.0204,-3.0204,-3.0204,-3.0204,-3.0204,-3.0204,-3.0204,-3.0204,-3.0261,-3.0204,-3.0147,-3.7777,-3.6796,-3.6796,-3.618,-3.525,-3.5853,-3.6603,-3.7334,-3.6712,-3.5921,-3.5067,-3.4455,-3.364,-3.2713,-3.2732,-3.2645,-3.2564,-3.3415,-3.3839,-3.3949,-3.4795,-3.5077,-3.4865,-3.441,-3.3641,-3.266,-3.2622,-3.2199,-3.1448,-3.2025,-3.1987,-3.1448,-3.2006,-3.1558,-3.0154,-3.0096,-3.0,-2.9788,-2.8948,-2.7794,-2.6351,-2.6352,-2.6073,-2.5498,-2.5543,-2.5598,-2.5663,-2.5673,-2.648,-2.8161,-2.8225,-2.8946,-3.0587,-3.1251,0.0,0.0,0.0,0.0,0.0,0.0,0.0,0.0,0.0,-3.4885,-3.4871,0.0,-3.4871,0.0,-3.4213,-3.3772,-3.3723,-3.3708,0.0,0.0,-3.4598,-3.4598,-3.4617,-3.3891,-3.3165,-3.247,-3.1694,-3.0949,-3.0287,-3.0204,-3.0204,-3.0204,-3.0204,-3.0204,-3.0204,-3.0204,-3.0204,-3.0204,-3.0204,-3.0204,-3.0204,-3.0204,-3.0204,-3.0204,-3.0204,-3.0204,-3.0204,-3.0204,-3.0204,-3.0204,-3.0204,-3.0204,-3.0204,-3.0204,-3.0204,-3.0204,-3.0204,-3.0402,-3.0968,-3.0643,-3.0376,-3.9912,-3.9142,-3.9527,-3.8931,-3.7719,-3.7834,-3.8334,-3.9065,-3.8604,-3.795,-3.7142,-3.6257,-3.5218,-3.4115,-3.443,-3.4385,-3.4103,-3.4564,-3.4795,-3.4814,-3.5288,-3.55,-3.5481,-3.5026,-3.4334,-3.3468,-3.3468,-3.3045,-3.2314,-3.2699,-3.2679,-3.2256,-3.2679,-3.2449,-3.1545,-3.1153,-3.0793,-3.0389,-2.9228,-2.8149,-2.7222,-2.6872,-2.6699,-2.665,-2.634,-2.6392,-2.6841,-2.6873,-2.7463,-2.8767,-2.8795,-2.952,-3.1135,-3.1643,-3.2192,0.0,0.0,0.0,0.0,0.0,0.0,0.0,0.0,0.0,0.0,0.0,-3.5493,-3.546,-3.4976,-3.4644,-3.4584,-3.4577,-3.476,-3.5203,-3.5253,-3.5226,-3.5182,-3.4483,-3.3815,-3.3337,-3.2554,-3.1859,-3.1369,-3.1006,-3.0777,-3.0777,-3.0459,-3.0204,-3.0204,-3.0204,-3.0204,-3.0204,-3.0204,-3.0204,-3.0204,-3.0204,-3.0204,-3.0204,-3.0204,-3.0204,-3.0204,-3.0204,-3.0204,-3.0204,-3.0204,-3.0204,-3.0204,-3.0204,-3.0204,-3.0204,-3.0204,-3.0357,-3.0739,-3.051,-3.0376,-4.1296,-4.0573,-4.1431,-4.1296,-4.0439,-3.9746,-3.9861,-4.0496,-4.0496,-4.0054,-3.9246,-3.8392,-3.7173,-3.5885,-3.6546,-3.6423,-3.5673,-3.5654,-3.5596,-3.55,-3.55,-3.5558,-3.5654,-3.5654,-3.5218,-3.4398,-3.459,-3.4129,-3.3083,-3.3276,-3.3321,-3.3262,-3.3262,-3.3256,-3.321,-3.2474,-3.1573,-3.0574,-2.9077,-2.8246,-2.8072,-2.7419,-2.7377,-2.8051,-2.7443,-2.745,-2.825,-2.8298,-2.8651,-2.9445,-2.9512,-3.0175,-3.1642,-3.1942,-3.2672,0.0,-3.4294,0.0,0.0,0.0,0.0,0.0,0.0,0.0,0.0,-3.55,-3.5467,-3.5405,-3.5405,-3.5372,-3.5308,-3.5308,-3.5312,-3.5312,-3.5312,-3.5269,-3.5179,-3.4579,-3.4128,-3.4014,-3.3337,-3.2833,-3.2642,-3.2069,-3.1649,-3.1599,-3.093,-3.0479,-3.0376,-3.0307,-3.0204,-3.0204,-3.0204,-3.0204,-3.0204,-3.0204,-3.0204,-3.0204,-3.0204,-3.0204,-3.0204,-3.0204,-3.0204,-3.0204,-3.0204,-3.0204,-3.0204,-3.0204,-3.0204,-3.0204,-3.0204,-3.0268,-3.0414,-3.0307,-3.0223,-4.1296,-4.0593,-4.145,-4.1296,-4.0496,-4.0323,-4.0362,-4.0496,-4.0496,-4.0035,-3.9265,-3.8392,-3.7815,-3.7546,-3.768,-3.7296,-3.6481,-3.6462,-3.6115,-3.55,-3.55,-3.5846,-3.6442,-3.6462,-3.6038,-3.5365,-3.6622,-3.6122,-3.3994,-3.5334,-3.5676,-3.509,-3.509,-3.512,-3.5121,0.0,0.0,0.0,-3.0554,-2.9703,-2.9071,-2.8947,-2.8653,-2.8204,-2.805,0.0,-2.8289,-2.8298,-2.867,-2.9443,-2.9519,0.0,0.0,0.0,0.0,0.0,0.0,0.0,0.0,0.0,0.0,0.0,-3.55,-3.55,-3.55,-3.55,-3.5486,-3.5393,-3.5405,-3.5372,-3.5315,-3.5308,-3.5312,-3.5312,-3.5312,-3.5269,-3.5209,-3.5037,-3.4751,-3.4071,-3.3853,-3.349,-3.2871,-3.2565,-3.247,-3.2432,-3.1763,-3.1312,-3.1236,-3.0624,-3.0223,-3.0204,-3.0204,-3.0204,-3.0204,-3.0204,-3.0204,-3.0204,-3.0204,-3.0204,-3.0204,-3.0204,-3.0204,-3.0204,-3.0204,-3.0204,-3.0204,-3.0204,-3.0204,-3.0204,-3.0204,-3.0383,-3.0999,-3.0651,-3.0395,-4.195,0.0,-4.1615,-4.1296,0.0,-4.0496,-4.0496,-4.0496,-4.0496,-4.0035,-3.9304,-3.9265,-3.9008,-3.8642,-3.8642,-3.8411,-3.7969,-3.7526,-3.7142,-3.6738,-3.6738,-3.6942,-3.7334,-3.7334,-3.7142,-3.6769,-3.7625,-3.7378,-3.6202,-3.6588,-3.6634,-3.6295,-3.5863,-3.5674,-3.5678,-3.4905,-3.3638,-3.1907,-3.1457,-3.082,-2.9981,-2.9625,-2.9455,-2.9435,0.0,0.0,0.0,0.0,0.0,0.0,0.0,0.0,0.0,0.0,0.0,-3.4245,-3.5154,-3.5612,-3.5554,-3.5534,-3.5495,-3.5495,-3.5494,-3.55,-3.55,-3.55,-3.5493,-3.546,-3.5453,-3.5427,-3.5405,-3.5372,-3.5342,-3.5304,-3.5319,-3.5269,-3.5198,-3.5182,-3.5037,-3.4694,-3.4598,-3.4407,-3.3979,-3.3566,-3.3356,-3.3253,-3.2267,-3.1503,-3.1427,-3.0758,-3.0223,-3.0204,-3.0204,-3.0204,-3.0204,-3.0204,-3.0204,-3.0204,-3.0204,-3.0204,-3.0204,-3.0204,-3.0204,-3.0204,-3.0204,-3.0204,-3.0204,-3.0204,-3.0204,-3.0204,-3.0204,-3.0307,-3.072,-3.0472,-3.03,-4.2816,-4.2047,-4.2019,-4.1527,-4.0719,-4.0573,-4.0496,-4.0496,0.0,0.0,0.0,-4.0208,-4.0131,-3.9515,-3.9515,-3.9438,-3.9265,-3.8553,-3.8142,-3.7988,-3.8015,-3.8106,-3.8243,-3.8269,-3.8264,-3.8304,-3.8472,-3.8439,-3.8122,-3.7621,-3.7327,-3.7164,-3.6367,-3.5885,-3.5721,-3.51,-3.402,-3.2544,-3.2163,-3.1629,-3.0882,-3.0129,-3.0046,-3.0699,-3.0086,-3.0064,-3.0773,-3.0954,-3.1033,-3.1027,-3.1175,-3.1846,-3.3119,-3.342,-3.4127,-3.5369,-3.5631,-3.5684,-3.5626,-3.5564,-3.5515,-3.5522,-3.5502,-3.5488,-3.55,-3.55,-3.55,-3.55,-3.55,-3.55,-3.55,-3.5446,-3.5372,-3.5315,-3.5316,-3.5277,-3.5209,-3.5182,-3.519,-3.5182,-3.5144,-3.5182,-3.5114,-3.4598,-3.4216,-3.4006,-3.2802,-3.1541,-3.1255,-3.0643,-3.0204,-3.0204,-3.0204,-3.0204,-3.0204,-3.0204,-3.0204,-3.0204,-3.0204,-3.0204,-3.0204,-3.0204,-3.0204,-3.0204,-3.0204,-3.0204,-3.0204,-3.0204,-3.0204,-3.0204,-3.0204,-3.0204,-3.0204,-3.0204,-3.0223,-4.3643,-4.2912,-4.2912,-4.2412,-4.1566,-4.0816,-4.0496,-4.0496,-4.0496,-4.0419,-4.0342,-4.0439,-4.0439,-4.0323,-4.0342,-3.9958,-3.9304,-3.9161,-3.8719,0.0,-3.805,-3.8485,-3.918,-3.9255,-3.9331,-3.9432,-4.0092,-3.966,-3.8479,-3.8922,-3.8883,-3.8173,-3.7319,-3.6601,-3.5995,-3.5843,-3.5298,-3.4324,-3.2801,-3.1953,-3.187,-3.1061,-3.0667,-3.0773,-3.0687,-3.0674,-3.0792,-3.1521,-3.1912,-3.1942,-3.2638,-3.3126,-3.3301,-3.3991,-3.4494,-3.4696,-3.5379,-3.5749,-3.5676,-3.5631,-3.5577,-3.5578,-3.5541,-3.5483,-3.5488,-3.55,-3.55,-3.55,-3.55,-3.55,-3.55,-3.5427,-3.5372,-3.5315,-3.5316,-3.5277,-3.519,-3.519,-3.519,-3.5209,-3.5182,-3.5182,-3.5171,-3.5076,-3.4961,-3.477,-3.354,-3.205,-3.093,-3.028,-3.0204,-3.0204,-3.0204,-3.0204,-3.0204,-3.0204,-3.0204,-3.0204,-3.0204,-3.0204,-3.0204,-3.0204,-3.0204,-3.0204,-3.0204,-3.0204,-3.0204,-3.0204,-3.0204,-3.0204,-3.0204,-3.0223,-3.0261,-3.0319,-3.03,-4.4085,-4.3701,-4.3278,-4.2604,-4.1731,-4.0862,-4.08,-4.1245,-4.0795,-4.0552,-4.0496,-4.0496,-4.0496,-4.0496,-4.0496,-4.0304,-3.9958,-3.9973,-3.9825,-3.9482,-3.9503,-3.9745,-4.0134,-4.0193,-4.0218,-4.029,-4.0669,-4.0466,-3.982,-3.9749,-3.9513,-3.9109,-3.8331,-3.7501,-3.6792,-3.7184,-3.6755,-3.5408,-3.4123,-3.3261,-3.2805,-3.2409,-3.2193,-3.2196,-3.22,-3.2202,-3.2223,-3.2596,-3.2811,-3.2807,-3.3175,-3.3589,-3.4004,-3.4415,-3.4813,-3.5168,-3.5609,-3.5824,-3.5741,-3.6168,-3.6396,-3.6372,-3.635,-3.6306,-3.6253,-3.5785,-3.55,-3.55,-3.55,-3.55,-3.55,-3.5427,-3.5398,-3.5364,-3.5327,-3.5297,-3.5254,-3.5269,-3.525,-3.5246,-3.5215,-3.5218,-3.5261,-3.5218,-3.5182,-3.5087,-3.4101,-3.2917,-3.1694,-3.114,-3.0682,-3.0319,-3.0204,-3.0204,-3.0204,-3.0204,-3.0204,-3.0204,-3.0204,-3.0204,-3.0204,-3.0204,-3.0204,-3.0204,-3.0204,-3.0204,-3.0204,-3.0204,-3.0204,-3.0204,-3.0204,-3.0319,-3.0701,-3.1197,-3.1236,-4.4586,-4.4509,-4.3717,-4.2914,-4.2079,-4.1385,-4.1568,-4.22,-4.16,-4.1248,-4.1123,-4.0761,-4.0561,-4.0561,-4.0561,-4.0561,-4.0561,-4.0628,-4.0662,-4.0717,-4.0726,-4.0786,-4.0837,-4.0846,-4.0839,-4.089,-4.1128,-4.1273,-4.1245,-4.0674,-4.0166,-3.9798,-3.9372,-3.863,-3.7633,-3.8259,-3.7926,-3.6636,-3.5935,-3.4979,-3.3749,-3.3494,-3.3377,-3.3396,-3.3377,-3.3396,-3.3396,-3.3593,-3.371,-3.369,-3.3884,-3.4266,-3.4868,-3.4968,-3.5252,-3.5769,-3.5907,-3.5885,-3.5885,-3.6628,-3.7019,-3.6756,-3.6913,-3.691,-3.6603,-3.5963,-3.5515,-3.5507,-3.55,-3.55,-3.55,-3.5427,-3.5405,-3.5405,-3.533,-3.5308,-3.5308,-3.5304,-3.5316,-3.5293,-3.5254,-3.525,-3.5266,-3.5269,-3.5122,-3.4846,-3.4522,-3.3891,-3.289,-3.2203,-3.1656,-3.0758,-3.0338,-3.0204,-3.0204,-3.0204,-3.0204,-3.0204,-3.0204,-3.0089,-3.0013,-3.0013,-3.0032,-2.9975,-3.007,-3.0185,-3.0204,-3.0204,-3.0204,-3.0223,-3.0395,-3.0739,-3.1228,-3.1763,-3.1973,-4.546,-4.5344,-4.4606,-4.3858,-4.3182,-4.2963,-4.3032,-4.3233,-4.3161,-4.3141,-4.2956,-4.1485,-4.082,-4.0762,-4.0815,-4.081,-4.081,-4.0801,-4.0825,-4.0854,-4.0863,-4.091,-4.1078,-4.1019,-4.1008,-4.123,-4.1896,-4.2247,-4.2251,-4.2174,-4.1358,-4.0073,-4.0503,-4.0075,-3.8728,-3.8611,-3.8533,-3.8376,-3.8279,-3.7049,-3.4686,-3.3788,-3.3396,-3.3396,-3.3435,-3.3396,-3.3513,-3.4159,-3.4569,-3.4647,-3.529,-3.5776,-3.5853,-3.5874,-3.5911,-3.5985,-3.6025,-3.5958,-3.5987,-3.6687,-3.6902,-3.6076,-3.6779,-3.686,-3.609,-3.576,-3.5577,-3.5598,-3.5545,-3.55,-3.5481,-3.5453,-3.5412,-3.5412,-3.5338,-3.5308,-3.5315,-3.5308,-3.53,-3.5308,-3.53,-3.5281,-3.5293,-3.53,-3.5001,-3.4461,-3.4751,-3.4503,-3.3329,-3.3261,-3.3032,-3.1713,-3.0796,-3.028,-3.0166,-3.0185,-3.0089,-3.0128,-3.0147,-2.986,-2.9535,-2.9726,-3.0013,-2.9688,-2.9765,-3.0166,-3.0204,-3.0204,-3.0204,-3.0307,-3.0701,-3.1343,-3.14,-3.1668,-3.163,-4.5747,-4.5751,-4.5435,-4.4833,-4.4104,-4.356,-4.3676,-4.4168,-4.372,-4.3824,-4.415,-4.3042,-4.2181,-4.1597,-4.1573,-4.1553,-4.1577,-4.1606,-4.1928,-4.2432,-4.2473,-4.2529,-4.2585,-4.2592,-4.2602,-4.265,-4.3001,-4.3177,-4.3177,-4.3157,-4.2806,-4.2142,-4.1986,-4.1518,-4.0834,-4.0348,-3.9821,-3.9331,-3.9312,-3.8551,-3.7186,-3.6659,-3.6228,-3.5779,-3.5701,-3.5446,-3.5036,-3.529,-3.5465,-3.5486,-3.5797,-3.6012,-3.6012,-3.6012,-3.6226,-3.6734,-3.7262,-3.7513,-3.7501,-3.8262,-3.8569,-3.8185,-3.848,-3.8484,-3.8089,-3.7529,-3.7146,-3.6955,-3.6131,-3.55,-3.5519,-3.5467,-3.546,-3.5453,-3.5446,-3.5412,-3.542,-3.5372,-3.5372,-3.5405,-3.5357,-3.5315,-3.535,-3.5331,-3.5151,-3.4821,-3.5073,-3.4808,-3.4246,-3.4101,-3.3681,-3.3089,-3.2248,-3.1018,-2.993,-2.9433,-2.9452,-2.9376,-2.902,-2.8637,-2.9516,-2.9338,-2.9414,-2.9548,-2.9937,-3.0166,-3.0204,-3.0204,-3.0223,-3.0459,-3.0854,-3.1419,-3.14,-3.2229,-3.2611,-4.5844,-4.5899,-4.5905,-4.5595,-4.5068,-4.4422,-4.453,-4.5097,-4.459,-4.4729,-4.5264,-4.468,-4.3848,-4.2969,-4.2665,-4.2549,-4.2533,-4.2603,-4.2978,-4.3593,-4.3626,-4.3626,-4.3704,-4.3705,-4.3705,-4.3744,-4.3938,-4.4055,-4.4094,-4.4348,-4.4193,-4.3725,-4.3294,-4.2999,-4.2689,-4.1888,-4.1166,-4.0581,-4.0307,-3.9878,-3.9333,-3.9294,-3.8767,-3.7789,-3.7653,-3.7243,-3.6422,-3.6344,-3.6344,-3.6363,-3.6344,-3.6461,-3.6714,-3.6714,-3.7009,-3.7594,-3.822,-3.8611,-3.8611,-3.9351,-3.9702,-3.9527,-3.9651,-3.9667,-3.9309,-3.8723,-3.8315,-3.8048,-3.6992,-3.628,-3.618,-3.6173,-3.6096,-3.5885,-3.5827,-3.5769,-3.5532,-3.546,-3.5427,-3.5486,-3.5412,-3.5364,-3.5398,-3.5361,-3.5304,-3.5254,-3.5242,-3.5218,-3.5152,-3.4674,-3.4273,-3.4033,-3.3414,-3.2164,-3.0102,-2.9815,-2.9522,-2.893,-2.8631,-2.8829,-2.9428,-2.8867,-2.8822,-2.9134,-2.9752,-3.0192,-3.0287,-3.028,-3.0777,-3.1121,-3.1369,-3.1687,-3.2267,-3.3261,-3.3528,-4.5899,-4.591,-4.5905,-4.5981,-4.6118,-4.5969,-4.6036,-4.6119,-4.6122,-4.6163,-4.6184,-4.6126,-4.5654,-4.479,-4.4027,-4.362,-4.362,-4.3617,-4.3695,-4.3835,-4.3817,-4.3743,-4.3705,-4.3705,-4.3744,-4.3977,-4.4621,-4.4953,-4.4992,-4.5714,-4.5343,-4.3862,-4.4406,-4.4426,-4.3645,-4.2786,-4.2318,-4.2045,-4.14,-4.0992,-4.0934,-4.0914,-4.0114,-3.8786,-3.8552,-3.8141,-3.736,-3.7243,-3.7243,-3.7262,-3.7243,-3.7594,-3.8318,-3.8435,-3.8474,-3.8552,-3.863,-3.8669,-3.8806,-3.9449,-3.9605,-3.9019,-3.9545,-3.9517,-3.9021,-3.8764,-3.862,-3.8352,-3.8268,-3.8036,-3.7917,-3.7702,-3.7399,-3.675,-3.6615,-3.6288,-3.5673,-3.5673,-3.5519,-3.5538,-3.5512,-3.5453,-3.5412,-3.5405,-3.538,-3.5335,-3.5312,-3.5277,-3.5207,-3.5122,-3.4797,-3.43,-3.3907,-3.3345,-3.1732,-3.0942,-3.0369,-2.9758,-2.9433,-2.9402,-2.8561,-2.8052,-2.8408,-2.8848,-2.9619,-3.0135,-3.0326,-3.088,-3.1713,-3.2,-3.1656,-3.1962,-3.2439,-3.349,-3.3834,-4.6122,-4.6155,-4.6147,-4.6197,-4.6255,-4.6238,-4.6261,-4.6302,-4.6293,-4.6294,-4.6291,-4.6294,-4.6119,-4.5828,-4.5496,-4.5061,-4.4563,-4.4543,-4.4816,-4.5304,-4.5363,-4.5363,-4.5363,-4.5363,-4.5363,-4.5421,-4.5675,-4.5831,-4.5851,-4.6163,-4.6007,-4.5421,-4.509,-4.4816,-4.4426,-4.3665,-4.2982,-4.2435,-4.2084,-4.1674,-4.1168,-4.1109,-4.0777,-4.0231,-3.9644,-3.898,-3.816,-3.8141,-3.8141,-3.8141,-3.8141,-3.8279,-3.8611,-3.9099,-3.9351,-3.9429,-3.9879,-4.0192,-4.0231,-4.0464,-4.0524,-4.027,-4.0446,-4.0516,-4.0262,-4.015,-4.0084,-3.998,-3.9945,-3.9887,-3.9565,-3.8782,-3.793,-3.7553,-3.7065,-3.6865,-3.6923,-3.6615,-3.625,-3.6192,-3.5865,-3.5493,-3.5518,-3.542,-3.5398,-3.5369,-3.5327,-3.5304,-3.527,-3.5262,-3.5128,-3.4917,-3.4806,-3.4427,-3.3325,-3.2034,-3.1178,-3.0586,-3.0204,-3.0128,-2.9574,-2.8829,-2.8962,-2.9287,-2.9886,-3.0192,-3.0402,-3.0459,-3.1491,-3.1732,-3.1465,-3.2057,-3.2256,-3.3547,-3.4006,-4.6245,-4.6297,-4.6297,-4.6296,-4.6296,-4.6301,-4.6297,-4.629,-4.6299,-4.63,-4.6297,-4.6301,-4.6301,-4.6301,-4.6301,-4.6005,-4.5449,-4.5429,-4.574,-4.6266,-4.6288,-4.6288,-4.6305,-4.6288,-4.6288,-4.6288,-4.6306,-4.6303,-4.6302,-4.6302,-4.6302,-4.6223,-4.5695,-4.5421,-4.5285,-4.4563,-4.3801,-4.3292,-4.2982,-4.2396,-4.1635,-4.1518,-4.1361,-4.107,-4.0522,-3.9819,-3.904,-3.9001,-3.8982,-3.8982,-3.8982,-3.9118,-3.9411,-3.9918,-4.021,-4.0288,-4.0756,-4.1109,-4.1109,-4.1109,-4.1109,-4.109,-4.1109,-4.1103,-4.1109,-4.1107,-4.1064,-4.0984,-4.0937,-4.0911,-4.0625,-3.9704,-3.8852,-3.8495,-3.7906,-3.7642,-3.7911,-3.7469,-3.7161,-3.7065,-3.6738,-3.6288,-3.5942,-3.5883,-3.5708,-3.547,-3.5345,-3.5323,-3.5315,-3.5308,-3.5308,-3.5308,-3.5247,-3.5009,-3.4435,-3.3589,-3.2194,-3.146,-3.1021,-3.0899,-3.0479,-2.9791,-2.9485,-2.981,-3.0058,-3.0307,-3.0383,-3.0326,-3.0631,-3.1071,-3.1752,-3.2451,-3.3012,-3.3757,-3.4224,-4.6299,-4.6296,-4.63,-4.6301,-4.6301,-4.6302,-4.6302,-4.6301,-4.6301,-4.6302,-4.6301,-4.6302,-4.6303,-4.6302,-4.6303,-4.6263,-4.6184,-4.6165,-4.6201,-4.6294,-4.6299,-4.6299,-4.6294,-4.6299,-4.63,-4.6301,-4.6296,-4.6288,-4.6303,-4.6302,-4.6302,-4.6302,-4.6243,-4.6126,-4.6243,-4.5404,-4.4972,-4.4662,-4.4039,-4.3237,-4.2494,-4.23,-4.189,-4.1207,-4.1031,-4.0639,-3.9839,-3.9819,-3.9819,-3.9819,-3.98,-4.021,-4.0777,-4.0973,-4.1051,-4.0992,-4.109,-4.1109,-4.1109,-4.1109,-4.1109,-4.1109,-4.1109,-4.1108,-4.1106,-4.1106,-4.1097,-4.1074,-4.1025,-4.0963,-4.0911,-4.0694,-4.0219,-3.956,-3.9157,-3.8775,-3.8368,-3.8065,-3.8007,-3.7969,-3.7815,-3.7584,-3.6988,-3.6712,-3.6447,-3.5785,-3.5559,-3.5494,-3.5376,-3.535,-3.5315,-3.5315,-3.5315,-3.5181,-3.5212,-3.5109,-3.3635,-3.2373,-3.201,-3.1704,-3.1042,-3.0398,-3.0112,-3.0265,-3.0098,-3.0327,-3.0543,-3.0581,-3.1224,-3.1721,-3.2363,-3.2898,-3.3658,-3.4308,-3.474,-4.6306,-4.6287,-4.6306,-4.6306,-4.6306,-4.6288,-4.6306,-4.6302,-4.6306,-4.6288,-4.6306,-4.6288,-4.6288,-4.6289,-4.6288,-4.6289,-4.6288,-4.6288,-4.6306,-4.6301,-4.6301,-4.6301,-4.63,-4.6301,-4.6301,-4.6301,-4.6301,-4.6296,-4.6291,-4.629,-4.6287,-4.6302,-4.6302,-4.6303,-4.629,-4.6017,-4.5647,-4.5026,-4.4734,-4.3895,-4.2567,-4.2406,-4.1993,-4.1212,-4.1112,-4.0953,-4.0717,-4.0698,-4.0698,-4.0678,-4.0698,-4.0815,-4.1051,-4.1109,-4.1109,-4.1109,-4.1109,-4.1109,-4.1109,-4.1109,-4.1109,-4.1109,-4.1109,-4.1109,-4.1109,-4.1109,-4.1106,-4.1117,-4.1079,-4.105,-4.1029,-4.0937,-4.067,-4.032,-3.9799,-3.9586,-3.9588,-3.9218,-3.8938,-3.8823,-3.8373,-3.7911,-3.77,-3.7603,-3.725,-3.6467,-3.6267,-3.6106,-3.5619,-3.5477,-3.5446,-3.5427,-3.5412,-3.5372,-3.5372,-3.5357,-3.4606,-3.3599,-3.3144,-3.2716,-3.1976,-3.1256,-3.0956,-3.0624,-3.0438,-3.0348,-3.0564,-3.092,-3.1487,-3.2003,-3.2393,-3.3157,-3.4121,-3.4706,-3.5081,-4.6289,-4.6289,-4.6289,-4.6288,-4.6288,-4.6289,-4.6289,-4.6307,-4.6289,-4.6289,-4.6289,-4.6289,-4.6289,-4.6289,-4.6289,-4.6289,-4.6289,-4.6289,-4.6289,-4.6306,-4.6306,-4.6305,-4.6305,-4.6305,-4.6305,-4.6305,-4.6304,-4.6301,-4.6296,-4.6296,-4.6295,-4.6291,-4.629,-4.6293,-4.6296,-4.6277,-4.5986,-4.554,-4.5462,-4.4798,-4.3684,-4.3369,-4.2782,-4.1785,-4.1585,-4.1406,-4.1171,-4.1111,-4.1109,-4.1109,-4.1109,-4.1109,-4.1109,-4.1109,-4.1109,-4.1109,-4.1109,-4.1109,-4.1109,-4.1109,-4.1109,-4.1109,-4.1109,-4.1109,-4.1109,-4.1109,-4.1109,-4.1106,-4.1109,-4.1113,-4.1086,-4.1013,-4.0902,-4.0806,-4.0344,-4.0178,-4.0454,-4.0099,-3.9792,-3.9631,-3.9304,-3.8854,-3.8565,-3.8469,-3.8123,-3.7392,-3.6904,-3.6615,-3.6019,-3.5685,-3.5596,-3.5512,-3.546,-3.5446,-3.5427,-3.5412,-3.5379,-3.4846,-3.4352,-3.3897,-3.3314,-3.2446,-3.1923,-3.136,-3.1059,-3.0618,-3.0713,-3.0942,-3.1357,-3.1855,-3.2594,-3.3639,-3.4588,-3.4917,-3.5226,-4.6289,-4.6288,-4.6289,-4.6289,-4.6289,-4.6289,-4.6289,-4.6289,-4.6289,-4.6289,-4.6289,-4.6289,-4.6289,-4.6289,-4.6289,-4.6289,-4.6289,-4.6289,-4.6289,-4.6289,-4.6289,-4.6289,-4.6288,-4.6289,-4.6289,-4.6288,-4.6288,-4.6306,-4.6302,-4.6301,-4.6301,-4.6301,-4.6301,-4.6301,-4.6301,-4.6301,-4.6263,-4.6186,-4.6205,-4.5717,-4.4877,-4.4877,-4.4135,-4.2553,-4.2451,-4.2095,-4.1429,-4.119,-4.1109,-4.1109,-4.1109,-4.1109,-4.1109,-4.1109,-4.1109,-4.1109,-4.1109,-4.1109,-4.1109,-4.1109,-4.1109,-4.1109,-4.1109,-4.1109,-4.1109,-4.1109,-4.1109,-4.1108,-4.1113,-4.1098,-4.1096,-4.1059,-4.1016,-4.0981,-4.0785,-4.0682,-4.0616,-4.054,-4.04,-4.0423,-4.0446,-4.0215,-3.9446,-3.9381,-3.8938,-3.8219,-3.7488,-3.7142,-3.6519,-3.6096,-3.5654,-3.5532,-3.5512,-3.5493,-3.5467,-3.546,-3.5427,-3.5285,-3.4952,-3.4707,-3.4335,-3.3543,-3.2685,-3.2148,-3.1732,-3.1232,-3.0983,-3.1302,-3.1717,-3.2342,-3.3228,-3.4267,-3.4833,-3.5139,-3.5258,-4.6289,-4.6289,-4.6289,-4.6289,-4.6289,-4.6289,-4.6308,-4.6289,-4.6308,-4.6348,-4.6289,-4.6289,-4.6289,-4.6289,-4.6289,-4.6289,-4.6289,-4.6289,-4.6289,-4.6289,-4.6289,-4.6289,-4.6289,-4.6289,-4.6289,-4.6289,-4.6289,-4.6288,-4.6306,-4.6306,-4.6305,-4.6301,-4.6302,-4.6304,-4.6305,-4.6306,-4.6287,-4.6288,-4.6289,-4.5879,-4.5175,-4.5037,-4.447,-4.3532,-4.3353,-4.292,-4.2075,-4.1424,-4.1109,-4.1109,-4.1109,-4.1109,-4.1109,-4.1109,-4.1129,-4.1187,-4.1148,-4.1148,-4.1168,-4.1187,-4.1148,-4.1109,-4.1265,-4.1109,-4.1109,-4.1109,-4.1109,-4.1108,-4.1103,-4.1101,-4.1101,-4.1095,-4.1066,-4.1059,-4.0957,-4.0864,-4.0793,-4.0712,-4.0622,-4.0574,-4.0566,-4.0403,-4.0231,-4.0054,-3.9804,-3.913,-3.8604,-3.8084,-3.7296,-3.6538,-3.6135,-3.5654,-3.5519,-3.55,-3.5481,-3.5481,-3.5474,-3.5474,-3.5352,-3.5294,-3.4903,-3.441,-3.357,-3.2821,-3.2679,-3.2276,-3.1975,-3.1949,-3.246,-3.299,-3.3643,-3.4518,-3.5004,-3.535,-3.532,-4.7051,-4.7344,-4.6992,-4.6836,-4.6855,-4.6836,-4.6641,-4.6426,-4.6699,-4.6621,-4.6367,-4.6289,-4.6289,-4.6289,-4.6289,-4.6289,-4.6289,-4.6289,-4.6289,-4.6289,-4.6289,-4.6289,-4.6289,-4.6289,-4.6289,-4.6289,-4.6289,-4.6289,-4.6289,-4.6288,-4.6288,-4.6287,-4.6306,-4.6287,-4.6288,-4.6289,-4.6289,-4.6289,-4.6289,-4.6016,-4.5586,-4.5527,-4.5077,-4.4433,-4.4197,-4.3725,-4.2526,-4.1896,-4.1522,-4.1226,-4.1109,-4.1109,-4.1109,-4.1109,-4.1246,-4.1558,-4.1654,-4.1791,-4.2124,-4.2183,-4.2007,-4.1851,-4.1927,-4.1968,-4.1771,-4.1635,-4.1635,-4.1693,-4.1363,-4.1148,-4.1109,-4.1109,-4.1104,-4.1107,-4.1019,-4.098,-4.0904,-4.0804,-4.073,-4.0681,-4.0629,-4.0581,-4.053,-4.0519,-4.0273,-3.9861,-3.9381,-3.8784,-3.8084,-3.7315,-3.6635,-3.6231,-3.575,-3.5673,-3.5615,-3.5596,-3.5538,-3.5519,-3.55,-3.55,-3.5334,-3.4968,-3.441,-3.375,-3.3583,-3.3301,-3.2852,-3.2711,-3.3275,-3.3794,-3.4248,-3.4663,-3.5182,-3.5405,-3.5383,-4.8183,-4.8808,-4.7969,-4.7656,-4.7695,-4.7519,-4.709,-4.6836,-4.709,-4.7012,-4.6562,-4.6367,-4.6308,-4.6289,-4.6308,-4.6348,-4.6484,-4.6582,-4.6523,-4.6504,-4.6406,-4.6289,-4.6289,-4.6289,-4.6289,-4.6289,-4.6289,-4.6289,-4.6289,-4.6289,-4.6289,-4.6289,-4.6289,-4.6289,-4.6289,-4.6289,-4.6289,-4.6289,-4.6289,-4.6269,-4.6152,-4.6113,-4.5762,-4.5273,-4.4882,-4.4254,-4.3194,-4.2604,-4.2249,-4.1443,-4.1226,-4.1187,-4.1207,-4.1265,-4.1713,-4.2357,-4.2552,-4.2845,-4.343,-4.3432,-4.3294,-4.2767,-4.3216,-4.3391,-4.2708,-4.2513,-4.2533,-4.2533,-4.181,-4.1675,-4.1617,-4.15,-4.1596,-4.1688,-4.1515,-4.1348,-4.1178,-4.0975,-4.0809,-4.0812,-4.0694,-4.0642,-4.0588,-4.0545,-4.0473,-4.0284,-3.9884,-3.94,-3.8796,-3.8142,-3.7507,-3.6962,-3.6442,-3.5885,-3.5808,-3.5712,-3.5635,-3.5558,-3.5519,-3.55,-3.55,-3.5238,-3.4988,-3.4673,-3.4455,-3.3955,-3.334,-3.3519,-3.4096,-3.4282,-3.4557,-3.5004,-3.5432,-3.5432,-3.5398,-4.873,-4.8828,-4.7969,-4.7988,-4.834,-4.7207,-4.7266,-4.8164,-4.7051,-4.6914,-4.7051,-4.6601,-4.6328,-4.6308,-4.6387,-4.6641,-4.7148,-4.7207,-4.7324,-4.7246,-4.6562,-4.6348,-4.6367,-4.6445,-4.6348,-4.6367,-4.6308,-4.6328,-4.6367,-4.6504,-4.6328,-4.6387,-4.6465,-4.6308,-4.6348,-4.6348,-4.6289,-4.6289,-4.6289,-4.6289,-4.6289,-4.6289,-4.6191,-4.5898,-4.539,-4.4881,-4.443,-4.378,-4.3346,-4.2875,-4.1991,-4.1557,-4.1986,-4.2123,-4.2552,-4.3177,-4.3411,-4.353,-4.3705,-4.384,-4.3666,-4.3528,-4.3704,-4.3647,-4.351,-4.343,-4.343,-4.3391,-4.3255,-4.2983,-4.2944,-4.3099,-4.2983,-4.2903,-4.2959,-4.299,-4.2861,-4.1857,-4.1186,-4.0951,-4.0912,-4.0807,-4.0694,-4.0629,-4.0588,-4.0547,-4.0299,-3.9946,-3.9438,-3.89,-3.8334,-3.7738,-3.7269,-3.6769,-3.6481,-3.6288,-3.6,-3.5769,-3.5615,-3.55,-3.55,-3.5481,-3.5231,-3.5212,-3.5288,-3.4692,-3.4007,-3.4372,-3.4942,-3.4923,-3.4865,-3.5198,-3.5453,-3.5446,-3.5605,-4.9726,-4.998,-4.916,-4.9082,-4.9238,-4.8125,-4.7812,-4.8066,-4.7344,-4.6933,-4.6992,-4.6855,-4.668,-4.6367,-4.6699,-4.7031,-4.707,-4.7461,-4.7832,-4.8008,-4.7734,-4.7558,-4.7519,-4.7461,-4.7363,-4.7012,-4.6914,-4.707,-4.7402,-4.748,-4.7617,-4.7441,-4.7129,-4.6973,-4.6777,-4.6543,-4.6308,-4.6289,-4.6289,-4.6289,-4.6289,-4.6289,-4.6289,-4.6269,-4.582,-4.5468,-4.4939,-4.4584,-4.4109,-4.3598,-4.2851,-4.2495,-4.2884,-4.304,-4.345,-4.4114,-4.4309,-4.4563,-4.4758,-4.4894,-4.4797,-4.4348,-4.4641,-4.4582,-4.4445,-4.4328,-4.4309,-4.4211,-4.3957,-4.3686,-4.3705,-4.3686,-4.3705,-4.3705,-4.3725,-4.3725,-4.3544,-4.2817,-4.2042,-4.1742,-4.1591,-4.1241,-4.1004,-4.0837,-4.0674,-4.0636,-4.061,-4.0279,-4.0015,-3.9496,-3.9073,-3.8565,-3.8142,-3.77,-3.7334,-3.6949,-3.6462,-3.6135,-3.5788,-3.5615,-3.55,-3.55,-3.5462,-3.5462,-3.5442,-3.5385,-3.493,-3.5385,-3.5442,-3.5308,-3.525,-3.5423,-3.5615,-3.5832,-3.6041,-5.0723,-5.1152,-5.0351,-5.0,-4.9844,-4.8848,-4.8144,-4.791,-4.75,-4.7012,-4.6719,-4.7324,-4.7031,-4.6621,-4.7168,-4.7129,-4.7187,-4.7734,-4.8613,-4.9004,-4.875,-4.8613,-4.8613,-4.8555,-4.8516,-4.7988,-4.7851,-4.8183,-4.8594,-4.8867,-4.8555,-4.8672,-4.8183,-4.7832,-4.7617,-4.6973,-4.6601,-4.6641,-4.6406,-4.6289,-4.6289,-4.6289,-4.6289,-4.6269,-4.623,-4.5918,-4.5468,-4.5191,-4.4915,-4.415,-4.4082,-4.4097,-4.4058,-4.3977,-4.4289,-4.5109,-4.5207,-4.5441,-4.5831,-4.6066,-4.5831,-4.5265,-4.5792,-4.587,-4.5363,-4.5207,-4.5207,-4.5012,-4.4738,-4.433,-4.4115,-4.433,-4.4289,-4.4232,-4.4174,-4.4096,-4.4092,-4.4062,-4.3678,-4.2727,-4.2224,-4.1777,-4.1357,-4.1057,-4.0883,-4.0746,-4.0724,-4.061,-4.0354,-4.0092,-3.9688,-3.9515,-3.9169,-3.8681,-3.8277,-3.7603,-3.7123,-3.6865,-3.6385,-3.6192,-3.5962,-3.5923,-3.5962,-3.5558,-3.5462,-3.5404,-3.5385,-3.5442,-3.5481,-3.5481,-3.55,-3.55,-3.5788,-3.6212,-3.6467,-5.0879,-5.0332,-4.9473,-4.9121,-4.8887,-4.7461,-4.7578,-4.832,-4.7129,-4.6894,-4.7324,-4.7519,-4.7129,-4.6719,-4.7226,-4.7851,-4.8437,-4.9121,-4.9687,-4.9824,-4.9453,-4.9121,-4.918,-4.9238,-4.9297,-4.9473,-4.916,-4.8945,-4.9004,-4.8887,-4.9199,-4.8984,-4.8789,-4.8691,-4.8457,-4.7851,-4.7383,-4.7266,-4.6797,-4.6445,-4.6445,-4.6328,-4.6289,-4.6289,-4.6289,-4.6191,-4.6113,-4.6053,-4.6013,-4.5875,-4.5848,-4.5805,-4.5567,-4.5095,-4.5247,-4.5753,-4.5948,-4.6066,-4.6262,-4.6282,-4.6243,-4.6144,-4.6223,-4.6282,-4.6066,-4.6027,-4.5909,-4.5929,-4.5851,-4.5755,-4.587,-4.5617,-4.5774,-4.5814,-4.5677,-4.5677,-4.5695,-4.5554,-4.5078,-4.3895,-4.3078,-4.2382,-4.2068,-4.1694,-4.1439,-4.1276,-4.1089,-4.0872,-4.0572,-4.0436,-4.0265,-4.0227,-4.0265,-3.9746,-3.9227,-3.843,-3.7834,-3.7796,-3.7507,-3.7346,-3.7103,-3.6757,-3.6507,-3.6257,-3.5769,-3.5462,-3.5462,-3.55,-3.5615,-3.5731,-3.5635,-3.5538,-3.6173,-3.6788,-3.6962,-5.0801,-5.0723,-4.9922,-4.957,-4.9336,-4.8203,-4.7832,-4.7969,-4.6894,-4.6523,-4.6973,-4.7324,-4.7129,-4.6836,-4.7734,-4.875,-4.9512,-4.9941,-5.041,-5.0547,-5.0391,-5.0195,-5.0137,-5.0156,-5.041,-5.0625,-5.0371,-5.0137,-5.0215,-5.0234,-5.0117,-5.0117,-4.9824,-4.957,-4.9375,-4.8711,-4.834,-4.8086,-4.7461,-4.6953,-4.6894,-4.6621,-4.6328,-4.6289,-4.6289,-4.6289,-4.6289,-4.6288,-4.6287,-4.6267,-4.6283,-4.6299,-4.6179,-4.6019,-4.5836,-4.6204,-4.6302,-4.6302,-4.6302,-4.6302,-4.6282,-4.6282,-4.6302,-4.6302,-4.6302,-4.6262,-4.6302,-4.6302,-4.6302,-4.6302,-4.6223,-4.6302,-4.6302,-4.6302,-4.6302,-4.6302,-4.6302,-4.6302,-4.5709,-4.4942,-4.4409,-4.3741,-4.3075,-4.2668,-4.2178,-4.1832,-4.1514,-4.1153,-4.0814,-4.0636,-4.0545,-4.0519,-4.05,-4.0265,-3.9785,-3.9207,-3.8669,-3.8604,-3.8488,-3.8354,-3.8065,-3.7661,-3.7392,-3.7161,-3.6584,-3.5865,-3.5558,-3.5596,-3.5769,-3.6038,-3.6154,-3.6365,-3.6911,-3.7334,-3.7603,-5.0703,-5.1094,-5.0273,-4.9844,-4.9551,-4.873,-4.793,-4.7285,-4.6621,-4.6308,-4.6426,-4.7129,-4.7109,-4.6933,-4.8027,-4.9336,-5.0176,-5.0332,-5.084,-5.1172,-5.125,-5.1328,-5.1367,-5.1387,-5.1289,-5.1191,-5.123,-5.1387,-5.1191,-5.1172,-5.1308,-5.1094,-5.0644,-5.043,-5.0254,-4.959,-4.9277,-4.8906,-4.832,-4.7851,-4.7461,-4.6953,-4.6445,-4.6308,-4.6289,-4.6289,-4.6289,-4.6289,-4.6288,-4.6288,-4.6305,-4.6303,-4.6302,-4.6299,-4.6293,-4.6287,-4.6303,-4.6302,-4.6302,-4.6302,-4.6302,-4.6302,-4.6302,-4.6302,-4.6302,-4.6302,-4.6302,-4.6302,-4.6302,-4.6302,-4.6302,-4.6302,-4.6302,-4.6302,-4.6302,-4.6302,-4.6302,-4.6302,-4.6302,-4.5791,-4.5539,-4.4932,-4.4126,-4.3343,-4.2798,-4.2209,-4.1875,-4.1399,-4.1044,-4.0736,-4.0623,-4.0566,-4.0542,-4.0504,-4.0227,-3.9938,-3.9573,-3.9496,-3.9323,-3.915,-3.8842,-3.8476,-3.8265,-3.8053,-3.7199,-3.6519,-3.6115,-3.6019,-3.6538,-3.6904,-3.6949,-3.7123,-3.7488,-3.8084,-3.8584,-5.0898,-5.0273,-4.9414,-4.8613,-4.7891,-4.7109,-4.6621,-4.6504,-4.6367,-4.6289,-4.6348,-4.7109,-4.707,-4.7031,-4.8144,-4.9336,-5.0195,-5.0859,-5.1211,-5.1387,-5.1387,-5.1387,-5.1387,-5.1387,-5.1387,-5.1387,-5.1387,-5.1387,-5.1387,-5.1387,-5.1387,-5.1328,-5.1269,-5.1211,-5.0996,-5.0391,-5.0058,-4.9902,-4.918,-4.8398,-4.7773,-4.7539,-4.709,-4.6641,-4.6406,-4.6406,-4.6426,-4.6387,-4.6289,-4.6289,-4.6288,-4.6306,-4.6306,-4.6303,-4.6301,-4.6297,-4.6291,-4.6302,-4.6302,-4.6302,-4.6302,-4.6302,-4.6302,-4.6302,-4.6302,-4.6302,-4.6302,-4.6302,-4.6302,-4.6302,-4.6302,-4.6302,-4.6302,-4.6302,-4.6302,-4.6302,-4.6302,-4.6302,-4.6302,-4.6282,-4.589,-4.5539,-4.4951,-4.4131,-4.3368,-4.2787,-4.2237,-4.1828,-4.1416,-4.1207,-4.0705,-4.063,-4.0579,-4.0542,-4.0508,-4.0238,-4.0211,-4.0211,-4.0057,-3.9865,-3.9622,-3.9341,-3.921,-3.8837,-3.8041,-3.77,-3.768,-3.77,-3.7777,-3.7796,-3.7834,-3.7853,-3.7911,-3.8623,-3.9438,-5.0918,-5.0117,-4.9277,-4.8398,-4.7598,-4.7168,-4.6738,-4.6348,-4.6289,-4.6289,-4.6348,-4.666,-4.7129,-4.7773,-4.8672,-4.9629,-5.0703,-5.125,-5.1387,-5.1387,-5.1387,-5.1387,-5.1387,-5.1387,-5.1387,-5.1387,-5.1387,-5.1387,-5.1387,-5.1387,-5.1387,-5.1387,-5.1387,-5.1348,-5.1387,-5.1074,-5.0918,-5.0644,-5.0058,-4.9219,-4.8555,-4.8301,-4.8144,-4.7734,-4.7246,-4.7012,-4.6855,-4.6484,-4.6328,-4.6289,-4.6289,-4.6289,-4.6288,-4.6287,-4.6305,-4.6305,-4.63,-4.6293,-4.6288,-4.6303,-4.6302,-4.6302,-4.6302,-4.6302,-4.6302,-4.6302,-4.6302,-4.6302,-4.6302,-4.6302,-4.6302,-4.6302,-4.6302,-4.6302,-4.6302,-4.6302,-4.6302,-4.6302,-4.6302,-4.6302,-4.6262,-4.5909,-4.5656,-4.5265,-4.4543,-4.3929,-4.3517,-4.3211,-4.2584,-4.2019,-4.1402,-4.0699,-4.0636,-4.0579,-4.0579,-4.0463,-4.0514,-4.0514,-4.0494,-4.034,-4.0379,-4.0224,-3.9959,-3.9937,-3.9588,-3.9369,-3.9323,-3.8777,-3.8296,-3.8469,-3.8746,-3.8815,-3.8931,-3.9392,-4.0054,-5.0762,-5.0117,-4.9277,-4.8398,-4.7598,-4.7363,-4.6894,-4.6348,-4.6289,-4.6289,-4.6367,-4.6601,-4.7539,-4.8711,-4.9199,-5.0058,-5.1328,-5.1387,-5.1387,-5.1387,-5.1387,-5.1387,-5.1387,-5.1387,-5.1387,-5.1387,-5.1387,-5.1387,-5.1387,-5.1387,-5.1387,-5.1387,-5.1387,-5.1387,-5.1387,-5.1328,-5.1289,-5.123,-5.0781,-5.0058,-4.9394,-4.9219,-4.8906,-4.8457,-4.7969,-4.75,-4.7207,-4.6719,-4.6308,-4.6289,-4.6289,-4.6289,-4.6289,-4.6289,-4.6288,-4.6288,-4.6305,-4.6301,-4.6297,-4.6291,-4.6305,-4.6302,-4.6302,-4.6302,-4.6302,-4.6302,-4.6302,-4.6302,-4.6302,-4.6302,-4.6302,-4.6302,-4.6302,-4.6302,-4.6302,-4.6302,-4.6302,-4.6302,-4.6302,-4.6302,-4.6302,-4.6302,-4.6124,-4.6204,-4.5773,-4.5125,-4.4758,-4.4476,-4.3746,-4.2877,-4.2374,-4.1687,-4.1615,-4.1569,-4.1482,-4.1347,-4.1193,-4.0982,-4.095,-4.0763,-4.0724,-4.0626,-4.0412,-4.0499,-4.0723,-4.0773,-4.0557,-3.9622,-3.8784,-3.9227,-3.9631,-3.9861,-4.0112,-4.0477,-4.0727,-5.0254,-5.0137,-4.9258,-4.8418,-4.7578,-4.6719,-4.6367,-4.6406,-4.6328,-4.6328,-4.6543,-4.7168,-4.8047,-4.8887,-4.9648,-5.0371,-5.1387,-5.1387,-5.1289,-5.1289,-5.1387,-5.1328,-5.1308,-5.1289,-5.1387,-5.1387,-5.1387,-5.1387,-5.1387,-5.1387,-5.1387,-5.1387,-5.1387,-5.1387,-5.1387,-5.1387,-5.1387,-5.1387,-5.1172,-5.084,-5.0293,-4.9961,-4.9473,-4.8262,-4.7734,-4.7266,-4.6523,-4.6504,-4.6465,-4.6465,-4.6348,-4.6289,-4.6289,-4.6289,-4.6289,-4.6289,-4.6289,-4.6306,-4.6304,-4.6299,-4.629,-4.6303,-4.6302,-4.6302,-4.6302,-4.6302,-4.6302,-4.6302,-4.6302,-4.6302,-4.6302,-4.6302,-4.6302,-4.6302,-4.6302,-4.6302,-4.6302,-4.6302,-4.6302,-4.6302,-4.6302,-4.6302,-4.6302,-4.6302,-4.6163,-4.5517,-4.5322,-4.5048,-4.4356,-4.3595,-4.3409,-4.3062,-4.2992,-4.2943,-4.2922,-4.2697,-4.228,-4.2021,-4.1905,-4.1409,-4.0952,-4.0893,-4.1274,-4.1131,-4.1363,-4.1593,-4.1738,-4.0995,-4.0484,-4.0389,-4.0573,-4.0962,-4.1039,-4.1166,-4.1447,-4.957,-4.8613,-4.8808,-4.8691,-4.8281,-4.6894,-4.6601,-4.6953,-4.6543,-4.6641,-4.7148,-4.8027,-4.8867,-4.9473,-4.9394,-5.0156,-5.1172,-5.084,-5.0762,-5.0879,-5.1055,-5.1055,-5.1016,-5.1152,-5.1387,-5.1387,-5.1387,-5.1387,-5.1387,-5.1387,-5.1387,-5.1387,-5.1426,-5.1387,-5.1387,-5.1387,-5.1387,-5.1387,-5.1387,-5.1172,-5.1094,-5.0937,-5.0605,-5.0058,-4.9336,-4.9101,-4.8652,-4.7617,-4.7266,-4.6933,-4.6562,-4.6367,-4.6289,-4.6289,-4.6328,-4.6367,-4.6387,-4.6405,-4.6404,-4.6361,-4.6296,-4.629,-4.6305,-4.6341,-4.6401,-4.6341,-4.6302,-4.6302,-4.636,-4.6417,-4.6319,-4.6319,-4.6302,-4.6302,-4.6302,-4.6302,-4.6302,-4.6302,-4.6302,-4.6302,-4.6302,-4.6302,-4.6302,-4.6302,-4.6124,-4.589,-4.5773,-4.5537,-4.4905,-4.4424,-4.4267,-4.4051,-4.3942,-4.3782,-4.3726,-4.3505,-4.3294,-4.307,-4.2851,-4.2324,-4.1862,-4.2357,-4.2601,-4.2313,-4.2137,-4.2537,-4.266,-4.2404,-4.2109,-4.1836,-4.1944,-4.226,-4.2187,-4.1921,-4.2194,-4.9394,-4.875,-4.8848,-4.875,-4.8398,-4.7461,-4.7422,-4.7793,-4.7383,-4.7383,-4.8047,-4.8906,-4.9414,-4.9668,-4.9941,-4.998,-5.0742,-5.0527,-5.0293,-5.043,-5.0664,-5.0644,-5.0644,-5.0898,-5.1387,-5.1387,-5.1387,-5.1387,-5.1387,-5.1387,-5.1601,-5.1699,-5.1523,-5.1426,-5.1387,-5.1387,-5.1387,-5.1387,-5.1387,-5.1387,-5.1367,-5.1367,-5.1094,-5.084,-5.0254,-4.9805,-4.918,-4.8203,-4.7578,-4.7246,-4.6855,-4.6367,-4.6289,-4.6328,-4.6426,-4.6582,-4.6719,-4.6777,-4.6933,-4.6519,-4.6359,-4.6296,-4.6664,-4.6701,-4.6718,-4.6873,-4.732,-4.7183,-4.6967,-4.669,-4.6651,-4.6554,-4.6341,-4.6302,-4.6302,-4.6302,-4.6302,-4.6302,-4.6302,-4.6302,-4.6302,-4.6302,-4.6302,-4.6302,-4.6223,-4.6105,-4.6046,-4.5929,-4.5673,-4.5291,-4.5155,-4.4929,-4.4724,-4.4542,-4.4346,-4.4457,-4.4492,-4.3982,-4.3724,-4.3321,-4.3131,-4.3556,-4.3536,-4.3015,-4.3033,-4.356,-4.3776,-4.3812,-4.3505,-4.3149,-4.3168,-4.3079,-4.2842,-4.2634,-4.3015,-4.9805,-5.1055,-4.9551,-4.8496,-4.8008,-4.8516,-4.8808,-4.8867,-4.8769,-4.8789,-4.8984,-4.9766,-4.9785,-4.9629,-5.0312,-5.0488,-5.0254,-5.0098,-4.9883,-4.9863,-5.0254,-5.0215,-5.0449,-5.082,-5.1387,-5.1387,-5.1387,-5.1387,-5.1406,-5.1601,-5.1933,-5.2012,-5.1699,-5.1387,-5.1387,-5.1387,-5.1387,-5.1387,-5.1387,-5.1387,-5.1387,-5.1387,-5.1074,-5.0723,-5.0508,-5.0176,-4.959,-4.873,-4.8203,-4.7988,-4.7246,-4.6816,-4.6738,-4.6699,-4.6953,-4.75,-4.7558,-4.793,-4.8555,-4.7187,-4.6713,-4.6751,-4.7315,-4.7549,-4.7745,-4.8151,-4.8479,-4.8108,-4.7907,-4.757,-4.7276,-4.6905,-4.6612,-4.6302,-4.6302,-4.6302,-4.6302,-4.6302,-4.6302,-4.6302,-4.6302,-4.6302,-4.6302,-4.6302,-4.6302,-4.6262,-4.6282,-4.6222,-4.6085,-4.5962,-4.5755,-4.5628,-4.5393,-4.5384,-4.5322,-4.5683,-4.5643,-4.5094,-4.4631,-4.4277,-4.4024,-4.4113,-4.3946,-4.3611,-4.4027,-4.4656,-4.5049,-4.5365,-4.4824,-4.4273,-4.3794,-4.3599,-4.3383,-4.3499,-4.3984,-4.9238,-4.9746,-4.9746,-4.959,-4.9297,-4.8984,-4.9199,-4.9687,-4.9766,-4.9766,-4.9941,-5.0625,-5.0879,-5.0605,-4.9902,-4.998,-5.0019,-4.8711,-4.8476,-4.8711,-4.9609,-4.9668,-4.9941,-5.0703,-5.1367,-5.1387,-5.1387,-5.1465,-5.1387,-5.1933,-5.1894,-5.1816,-5.1758,-5.1426,-5.1387,-5.1387,-5.1387,-5.1387,-5.1387,-5.1387,-5.1387,-5.1367,-5.125,-5.0957,-5.0918,-5.0723,-5.0371,-4.9512,-4.9141,-4.9004,-4.8262,-4.7851,-4.7832,-4.7851,-4.8086,-4.8418,-4.8476,-4.8555,-4.8808,-4.8222,-4.8084,-4.8142,-4.8218,-4.8471,-4.8547,-4.8663,-4.8838,-4.8896,-4.8714,-4.8262,-4.7617,-4.7414,-4.7081,-4.6438,-4.6302,-4.6302,-4.6302,-4.6302,-4.6302,-4.6302,-4.6302,-4.6302,-4.6302,-4.6302,-4.6302,-4.6302,-4.6302,-4.6302,-4.6202,-4.6202,-4.6099,-4.6119,-4.6052,-4.6143,-4.6248,-4.6206,-4.6183,-4.5741,-4.5513,-4.5362,-4.5148,-4.486,-4.4757,-4.4592,-4.517,-4.5751,-4.5802,-4.5811,-4.5739,-4.5341,-4.4868,-4.4674,-4.4709,-4.4876,-4.5248,-4.9512,-4.9824,-5.0371,-5.0625,-5.0527,-5.0,-5.0137,-5.0586,-5.0605,-5.0625,-5.0742,-5.1172,-5.0937,-5.0371,-4.9863,-4.9238,-4.9629,-4.834,-4.834,-4.8437,-4.9199,-4.9551,-4.9922,-5.0625,-5.1269,-5.1465,-5.1738,-5.1894,-5.1992,-5.2754,-5.2676,-5.2168,-5.1836,-5.1933,-5.1836,-5.168,-5.1387,-5.1387,-5.1387,-5.1387,-5.1387,-5.1387,-5.1387,-5.1348,-5.1348,-5.1308,-5.1152,-5.0762,-5.0215,-4.998,-4.9531,-4.8965,-4.8945,-4.8926,-4.9082,-4.9219,-4.9648,-4.9726,-4.9824,-4.9844,-4.9766,-4.9784,-4.957,-4.9373,-4.945,-4.9742,-4.9859,-4.9838,-4.9483,-4.9051,-4.8541,-4.8319,-4.7476,-4.6834,-4.6537,-4.6557,-4.638,-4.638,-4.6341,-4.6341,-4.6302,-4.6302,-4.6302,-4.6302,-4.6302,-4.6302,-4.6302,-4.6341,-4.638,-4.6319,-4.6302,-4.63,-4.63,-4.6292,-4.629,-4.6271,-4.6271,-4.63,-4.614,-4.5959,-4.592,-4.5597,-4.5597,-4.5575,-4.5821,-4.603,-4.6123,-4.6147,-4.6008,-4.6001,-4.5907,-4.5858,-4.605,-4.6022,-4.6002,-5.0625,-5.1348,-5.1387,-5.1348,-5.1367,-5.123,-5.1308,-5.1367,-5.1367,-5.1348,-5.1367,-5.1348,-5.082,-4.957,-4.9805,-4.9707,-4.9062,-4.8105,-4.8574,-4.9316,-4.9473,-4.9648,-5.0176,-5.0937,-5.1445,-5.1797,-5.2129,-5.2519,-5.2793,-5.3359,-5.332,-5.2949,-5.2637,-5.2519,-5.2266,-5.1836,-5.1562,-5.1621,-5.1465,-5.1426,-5.1387,-5.1387,-5.1387,-5.1387,-5.1387,-5.1387,-5.1191,-5.0801,-5.0469,-5.0117,-4.9609,-4.9258,-4.9062,-4.9023,-4.9531,-5.0156,-5.0898,-5.1035,-5.1074,-5.0996,-5.1055,-5.084,-5.0508,-5.0312,-5.0351,-5.0644,-5.0761,-5.072,-5.0464,-5.0209,-4.9894,-4.8914,-4.7954,-4.7463,-4.703,-4.6834,-4.6578,-4.6481,-4.642,-4.638,-4.6321,-4.6302,-4.6302,-4.6302,-4.6534,-4.669,-4.6788,-4.6944,-4.6866,-4.6358,-4.6339,-4.6302,-4.63,-4.63,-4.6302,-4.6339,-4.6302,-4.6302,-4.6302,-4.6181,-4.62,-4.62,-4.6041,-4.6,-4.6161,-4.6275,-4.6267,-4.6267,-4.6251,-4.6269,-4.6258,-4.6223,-4.6141,-4.6123,-4.6119,-5.0098,-5.1348,-5.1387,-5.1387,-5.1387,-5.1387,-5.1387,-5.1387,-5.1387,-5.1387,-5.1387,-5.1387,-5.0957,-5.0664,-4.9726,-4.957,-4.9121,-4.8594,-4.8496,-4.8945,-4.9687,-4.9941,-5.041,-5.1035,-5.168,-5.2168,-5.2598,-5.3008,-5.3516,-5.4004,-5.4414,-5.4414,-5.3183,-5.2832,-5.2461,-5.1855,-5.1953,-5.1992,-5.1758,-5.1445,-5.1387,-5.1387,-5.1387,-5.1387,-5.1387,-5.1387,-5.125,-5.1152,-5.0957,-5.0859,-5.0781,-5.0664,-5.0683,-5.0683,-5.0937,-5.0996,-5.1289,-5.1367,-5.1387,-5.1387,-5.1387,-5.1387,-5.1113,-5.1113,-5.1133,-5.1211,-5.1387,-5.123,-5.1113,-5.0798,-5.0387,-4.9564,-4.8839,-4.8407,-4.7976,-4.7642,-4.7387,-4.7209,-4.7111,-4.6837,-4.6757,-4.6772,-4.6713,-4.6633,-4.6866,-4.71,-4.7315,-4.751,-4.7471,-4.7022,-4.6788,-4.6768,-4.6731,-4.6868,-4.6515,-4.6456,-4.6358,-4.6302,-4.6321,-4.6321,-4.628,-4.6261,-4.628,-4.6302,-4.6302,-4.6302,-4.63,-4.6302,-4.6302,-4.6302,-4.6273,-4.6267,-4.6258,-4.622,-4.6212,-4.9492,-5.0351,-5.043,-5.0586,-5.0957,-5.1269,-5.1387,-5.1387,-5.1387,-5.1387,-5.1387,-5.1387,-5.1035,-5.0176,-4.9355,-4.9141,-4.9414,-4.8379,-4.8437,-5.0019,-5.0098,-5.041,-5.0781,-5.1133,-5.1582,-5.2148,-5.2676,-5.3105,-5.3906,-5.4414,-5.4785,-5.4433,-5.3281,-5.3125,-5.2793,-5.2246,-5.2207,-5.2344,-5.2207,-5.1582,-5.1387,-5.1387,-5.1387,-5.1387,-5.1387,-5.1387,-5.1387,-5.1387,-5.1387,-5.1387,-5.1387,-5.1387,-5.1367,-5.1367,-5.1367,-5.1348,-5.1367,-5.1387,-5.1387,-5.1387,-5.1387,-5.1387,-5.1387,-5.1367,-5.1348,-5.1367,-5.1387,-5.1328,-5.1328,-5.121,-5.078,-5.0329,-4.9899,-4.9468,-4.9037,-4.8626,-4.837,-4.8154,-4.786,-4.7526,-4.7446,-4.746,-4.7398,-4.726,-4.7354,-4.7822,-4.8096,-4.8193,-4.8213,-4.7978,-4.7803,-4.7744,-4.7627,-4.7569,-4.7178,-4.6885,-4.6846,-4.6729,-4.6397,-4.6397,-4.6339,-4.6302,-4.6302,-4.6302,-4.6302,-4.6302,-4.6302,-4.6302,-4.6302,-4.6302,-4.6302,-4.6296,-4.6273,-4.6271,-4.6269,-4.8848,-4.8965,-4.8965,-4.9609,-5.0254,-5.1055,-5.1387,-5.1387,-5.1387,-5.1387,-5.1387,-5.1387,-5.0683,-4.9902,-4.918,-4.9199,-4.9238,-4.8594,-4.9082,-5.125,-5.0703,-5.0762,-5.1113,-5.1426,-5.1836,-5.1953,-5.2519,-5.3633,-5.4297,-5.4785,-5.4785,-5.4141,-5.3535,-5.3496,-5.3808,-5.2441,-5.2344,-5.2891,-5.2226,-5.1387,-5.1387,-5.1387,-5.1387,-5.1387,-5.1387,-5.1387,-5.1387,-5.1387,-5.1387,-5.1387,-5.1387,-5.1387,-5.1387,-5.1387,-5.1387,-5.1387,-5.1387,-5.1387,-5.1387,-5.1387,-5.1387,-5.1387,-5.1387,-5.1387,-5.1387,-5.1387,-5.1387,-5.1387,-5.1367,-5.1367,-5.1035,-5.0781,-5.0448,-5.0233,-4.9959,-4.9529,-4.9157,-4.8843,-4.8431,-4.8195,-4.8192,-4.8207,-4.8223,-4.8102,-4.8255,-4.8702,-4.8935,-4.8993,-4.9169,-4.9054,-4.8742,-4.8663,-4.8349,-4.8193,-4.8154,-4.7861,-4.7606,-4.7332,-4.6885,-4.6436,-4.6358,-4.6319,-4.6302,-4.6302,-4.6302,-4.6302,-4.6302,-4.6302,-4.6302,-4.6302,-4.6302,-4.6302,-4.6302,-4.6302,-4.6302,-4.8301,-4.8965,-4.9609,-5.0019,-5.0273,-5.1055,-5.1387,-5.1387,-5.1387,-5.1387,-5.1387,-5.1348,-5.1152,-5.0508,-4.9394,-4.9453,-5.0137,-4.9297,-4.9863,-5.0859,-5.1074,-5.1035,-5.1348,-5.1426,-5.2051,-5.3105,-5.3808,-5.4375,-5.5273,-5.5508,-5.5586,-5.5742,-5.4941,-5.4609,-5.457,-5.3047,-5.2656,-5.3086,-5.2148,-5.1426,-5.1387,-5.1387,-5.1387,-5.1387,-5.1387,-5.1387,-5.1387,-5.1387,-5.1387,-5.1387,-5.1387,-5.1387,-5.1387,-5.1387,-5.1387,-5.1387,-5.1387,-5.1387,-5.1387,-5.1387,-5.1387,-5.1387,-5.1387,-5.1387,-5.1387,-5.1387,-5.1387,-5.1387,-5.1387,-5.1387,-5.1348,-5.1152,-5.1016,-5.0898,-5.082,-5.0371,-4.9922,-4.951,-4.9059,-4.9018,-4.8996,-4.9032,-4.9048,-4.9142,-4.9274,-4.9464,-4.9696,-4.993,-5.042,-5.0461,-4.9661,-4.9405,-4.8915,-4.8759,-4.8876,-4.8779,-4.8484,-4.8035,-4.7588,-4.7042,-4.6475,-4.6319,-4.6302,-4.6302,-4.6302,-4.6302,-4.6302,-4.6302,-4.6302,-4.6302,-4.6302,-4.6302,-4.6302,-4.6302,-4.6302,-4.7324,-4.7851,-4.8691,-4.9277,-4.9726,-5.0527,-5.1055,-5.1348,-5.1387,-5.1387,-5.1387,-5.1367,-5.123,-5.0957,-4.9844,-4.9766,-5.0703,-4.9941,-5.0351,-5.1074,-5.1387,-5.1348,-5.1387,-5.1426,-5.2148,-5.3203,-5.4297,-5.5117,-5.5898,-5.6133,-5.6133,-5.6055,-5.5469,-5.5098,-5.4707,-5.3437,-5.2734,-5.2676,-5.1816,-5.1465,-5.1387,-5.1387,-5.1387,-5.1387,-5.1387,-5.1406,-5.1387,-5.1387,-5.1387,-5.1387,-5.1387,-5.1387,-5.1387,-5.1387,-5.1387,-5.1387,-5.1387,-5.1387,-5.1387,-5.1387,-5.1387,-5.1387,-5.1387,-5.1387,-5.1387,-5.1387,-5.1387,-5.1387,-5.1387,-5.1387,-5.1387,-5.125,-5.123,-5.1172,-5.1152,-5.0937,-5.0742,-5.0546,-5.0312,-5.0311,-5.029,-5.0308,-5.0325,-5.0341,-5.0436,-5.0454,-5.0645,-5.0585,-5.1132,-5.1402,-5.0699,-5.0229,-4.9758,-4.9813,-5.0184,-4.9872,-4.9323,-4.8835,-4.8308,-4.7764,-4.7217,-4.6612,-4.6302,-4.638,-4.6399,-4.6302,-4.6302,-4.6302,-4.6302,-4.6302,-4.6302,-4.6302,-4.6321,-4.6436,-4.6612,-4.6348,-4.6406,-4.7266,-4.8047,-4.8848,-4.9805,-5.0586,-5.1172,-5.1348,-5.1387,-5.1387,-5.1387,-5.0937,-5.0566,-5.0215,-5.0273,-5.0273,-5.0117,-5.0683,-5.1191,-5.1387,-5.1387,-5.1387,-5.1465,-5.2246,-5.3183,-5.4277,-5.4883,-5.543,-5.5566,-5.5488,-5.5293,-5.5137,-5.4922,-5.4101,-5.3379,-5.2949,-5.2539,-5.1953,-5.1484,-5.1387,-5.1387,-5.1387,-5.1387,-5.1406,-5.1445,-5.1504,-5.1445,-5.1445,-5.1504,-5.1523,-5.1387,-5.1387,-5.1387,-5.1387,-5.1387,-5.1387,-5.1387,-5.1387,-5.1387,-5.1387,-5.1387,-5.1387,-5.1387,-5.1387,-5.1387,-5.1387,-5.1387,-5.1387,-5.1387,-5.1387,-5.1387,-5.1387,-5.1387,-5.1387,-5.1387,-5.1328,-5.1289,-5.1269,-5.1269,-5.1269,-5.1269,-5.1286,-5.1303,-5.1342,-5.138,-5.1398,-5.1398,-5.1397,-5.1393,-5.1076,-5.0917,-5.074,-5.0951,-5.1201,-5.0789,-5.0085,-4.9636,-4.9089,-4.8523,-4.792,-4.7276,-4.6807,-4.6593,-4.6554,-4.6378,-4.6302,-4.6302,-4.6302,-4.6341,-4.6302,-4.6358,-4.6768,-4.6905,-4.7139,-4.6289,-4.6387,-4.7226,-4.7715,-4.8086,-4.9512,-5.0312,-5.0508,-5.1113,-5.1387,-5.1348,-5.1387,-5.125,-5.1133,-5.0449,-5.043,-5.0879,-5.0586,-5.0781,-5.1308,-5.1387,-5.1387,-5.1621,-5.207,-5.2539,-5.3476,-5.4414,-5.4648,-5.539,-5.5098,-5.4922,-5.5371,-5.5371,-5.5195,-5.4941,-5.418,-5.3359,-5.2715,-5.209,-5.1641,-5.1465,-5.1445,-5.1406,-5.1387,-5.1387,-5.1855,-5.207,-5.1719,-5.1933,-5.2012,-5.1797,-5.1484,-5.1387,-5.1387,-5.1387,-5.1387,-5.1387,-5.1387,-5.1387,-5.1387,-5.1387,-5.1387,-5.1387,-5.1387,-5.1387,-5.1387,-5.1387,-5.1387,-5.1387,-5.1387,-5.1387,-5.1387,-5.1387,-5.1387,-5.1387,-5.1387,-5.1367,-5.1348,-5.1348,-5.1348,-5.1348,-5.1348,-5.1346,-5.1365,-5.1363,-5.1402,-5.1401,-5.1401,-5.1401,-5.1398,-5.1395,-5.1393,-5.1389,-5.1382,-5.1338,-5.1297,-5.0789,-5.0358,-4.987,-4.9265,-4.8621,-4.7899,-4.7471,-4.7315,-4.6749,-4.6378,-4.6319,-4.6475,-4.6436,-4.6475,-4.6341,-4.6436,-4.6983,-4.7471,-4.7783]},{"header":{"parameterUnit":"m.s-1","parameterCategory":1,"la1":31.0,"la2":29.5877,"lo1":-88.7671,"lo2":-86.6584,"dy":0.0162,"dx":0.0185,"nx":115,"ny":88,"refTime":"2023-02-22T06:00:00:Z","depth":0,"parameterNumber":3,"parameterNumberName":"V-component_of_WINDS"},"data":[0.0,0.0,0.0,0.0,0.0,0.0,0.0,0.0,0.0,0.0,0.0,0.0,0.0,0.0,0.0,0.0,0.0,0.0,0.0,0.0,0.0,0.0,0.0,0.0,0.0,0.0,0.0,0.0,0.0,0.0,0.0,0.0,0.0,0.0,0.0,0.0,0.0,0.0,0.0,0.0,0.0,0.0,0.0,0.0,0.0,0.0,0.0,0.0,0.0,0.0,0.0,0.0,0.0,0.0,0.0,0.0,0.0,0.0,0.0,0.0,0.0,0.0,0.0,0.0,0.0,0.0,0.0,0.0,0.0,0.0,0.0,0.0,0.0,0.0,0.0,0.0,0.0,0.0,0.0,0.0,0.0,0.0,0.0,0.0,0.0,0.0,0.0,0.0,0.0,0.0,0.0,0.0,0.0,0.0,0.0,0.0,0.0,0.0,0.0,0.0,0.0,0.0,0.0,0.0,0.0,0.0,0.0,0.0,0.0,0.0,0.0,0.0,0.0,0.0,0.0,0.0,0.0,0.0,0.0,0.0,0.0,0.0,0.0,0.0,0.0,0.0,0.0,0.0,0.0,0.0,0.0,0.0,0.0,0.0,0.0,0.0,0.0,0.0,0.0,0.0,0.0,0.0,0.0,0.0,0.0,0.0,0.0,0.0,0.0,0.0,0.0,0.0,0.0,0.0,0.0,0.0,0.0,0.0,0.0,0.0,0.0,0.0,0.0,0.0,0.0,0.0,0.0,0.0,0.0,0.0,0.0,0.0,0.0,0.0,0.0,0.0,0.0,0.0,0.0,0.0,0.0,0.0,0.0,0.0,0.0,0.0,0.0,0.0,0.0,0.0,0.0,0.0,0.0,0.0,0.0,0.0,0.0,0.0,0.0,0.0,0.0,0.0,0.0,0.0,0.0,0.0,0.0,0.0,0.0,0.0,0.0,0.0,0.0,0.0,0.0,0.0,0.0,0.0,0.0,0.0,0.0,0.0,0.0,0.0,0.0,0.0,0.0,0.0,0.0,0.0,0.0,0.0,0.0,0.0,0.0,0.0,0.0,0.0,0.0,0.0,0.0,0.0,0.0,0.0,0.0,0.0,0.0,0.0,0.0,0.0,0.0,0.0,0.0,0.0,0.0,0.0,0.0,0.0,0.0,0.0,0.0,0.0,0.0,0.0,0.0,0.0,0.0,0.0,0.0,0.0,0.0,0.0,0.0,0.0,0.0,0.0,0.0,0.0,0.0,0.0,0.0,0.0,0.0,0.0,0.0,0.0,0.0,0.0,0.0,0.0,0.0,0.0,0.0,0.0,0.0,0.0,0.0,0.0,0.0,0.0,0.0,0.0,0.0,0.0,0.0,0.0,0.0,0.0,0.0,0.0,0.0,0.0,0.0,0.0,0.0,0.0,0.0,0.0,0.0,0.0,0.0,0.0,0.0,0.0,0.0,0.0,0.0,0.0,0.0,0.0,0.0,0.0,0.0,0.0,0.0,0.0,0.0,0.0,0.0,0.0,0.0,0.0,0.0,0.0,0.0,0.0,0.0,0.0,0.0,0.0,0.0,0.0,0.0,0.0,0.0,0.0,0.0,0.0,0.0,0.0,0.0,0.0,0.0,0.0,0.0,0.0,0.0,0.0,0.0,0.0,0.0,0.0,0.0,0.0,0.0,0.0,0.0,0.0,0.0,0.0,0.0,0.0,0.0,0.0,0.0,0.0,0.0,0.0,0.0,0.0,0.0,0.0,0.0,0.0,0.0,0.0,0.0,0.0,0.0,0.0,0.0,0.0,0.0,0.0,0.0,0.0,0.0,0.0,0.0,0.0,0.0,0.0,0.0,0.0,0.0,0.0,0.0,0.0,0.0,0.0,0.0,0.0,0.0,0.0,0.0,0.0,0.0,0.0,0.0,0.0,0.0,0.0,0.0,0.0,0.0,0.0,0.0,0.0,0.0,0.0,0.0,0.0,0.0,0.0,0.0,0.0,0.0,0.0,0.0,0.0,0.0,0.0,0.0,0.0,0.0,0.0,0.0,0.0,0.0,0.0,0.0,0.0,0.0,0.0,0.0,0.0,0.0,0.0,0.0,0.0,0.0,0.0,0.0,0.0,0.0,0.0,0.0,0.0,0.0,0.0,0.0,0.0,0.0,0.0,0.0,0.0,0.0,0.0,0.0,0.0,0.0,0.0,0.0,0.0,0.0,0.0,0.0,0.0,0.0,0.0,0.0,0.0,0.0,0.0,0.0,0.0,0.0,0.0,0.0,0.0,0.0,0.0,0.0,0.0,0.0,0.0,0.0,0.0,0.0,0.0,0.0,0.0,0.0,0.0,0.0,0.0,0.0,0.0,0.0,0.0,0.0,0.0,0.0,0.0,0.0,0.0,0.0,0.0,0.0,0.0,0.0,0.0,0.0,0.0,0.0,0.0,0.0,0.0,0.0,0.0,0.0,0.0,0.0,0.0,0.0,0.0,0.0,0.0,0.0,0.0,0.0,0.0,0.0,0.0,0.0,0.0,0.0,0.0,0.0,0.0,0.0,0.0,0.0,0.0,0.0,0.0,0.0,0.0,0.0,0.0,0.0,0.0,0.0,0.0,0.0,0.0,0.0,0.0,0.0,0.0,0.0,0.0,0.0,0.0,0.0,0.0,0.0,0.0,0.0,0.0,0.0,0.0,0.0,0.0,0.0,0.0,0.0,0.0,0.0,0.0,0.0,0.0,0.0,0.0,0.0,0.0,0.0,0.0,0.0,0.0,0.0,0.0,0.0,0.0,0.0,0.0,0.0,0.0,0.0,0.0,0.0,0.0,0.0,0.0,0.0,0.0,0.0,0.0,0.0,0.0,0.0,0.0,0.0,0.0,0.0,0.0,0.0,0.0,0.0,0.0,0.0,0.0,0.0,0.0,0.0,0.0,0.0,0.0,0.0,0.0,0.0,0.0,0.0,0.0,0.0,0.0,0.0,0.0,0.0,0.0,0.0,0.0,0.0,0.0,0.0,0.0,0.0,0.0,0.0,0.0,0.0,0.0,0.0,0.0,0.0,0.0,0.0,0.0,0.0,0.0,0.0,0.0,0.0,0.0,0.0,0.0,0.0,0.0,0.0,0.0,0.0,0.0,0.0,0.0,0.0,0.0,0.0,0.0,0.0,0.0,0.0,0.0,0.0,0.0,0.0,0.0,0.0,0.0,0.0,0.0,0.0,0.0,0.0,0.0,0.0,0.0,0.0,0.0,0.0,0.0,0.0,0.0,0.0,0.0,0.0,0.0,0.0,0.0,0.0,0.0,0.0,0.0,0.0,0.0,0.0,0.0,0.0,0.0,0.0,0.0,0.0,0.0,0.0,0.0,0.0,0.0,0.0,0.0,0.0,0.0,0.0,0.0,0.0,0.0,0.0,0.0,0.0,0.0,0.0,0.0,0.0,0.0,0.0,0.0,0.0,0.0,0.0,0.0,0.0,0.0,0.0,0.0,0.0,0.0,0.0,0.0,0.0,0.0,0.0,0.0,0.0,0.0,0.0,0.0,0.0,0.0,0.0,0.0,0.0,0.0,0.0,0.0,0.0,0.0,0.0,0.0,0.0,0.0,0.0,0.0,0.0,0.0,0.0,0.0,0.0,0.0,0.0,0.0,0.0,0.0,0.0,0.0,0.0,0.0,0.0,0.0,0.0,0.0,0.0,0.0,0.0,0.0,0.0,0.0,0.0,0.0,0.0,0.0,0.0,0.0,0.0,0.0,0.0,0.0,0.0,0.0,0.0,0.0,0.0,0.0,0.0,0.0,0.0,0.0,0.0,0.0,0.0,0.0,0.0,0.0,0.0,0.0,0.0,0.0,0.0,0.0,0.0,0.0,0.0,0.0,0.0,0.0,0.0,0.0,0.0,0.0,0.0,0.0,0.0,0.0,0.0,0.0,0.0,0.0,0.0,0.0,0.0,0.0,0.0,0.0,0.0,0.0,0.0,0.0,0.0,0.0,0.0,0.0,0.0,0.0,0.0,0.0,0.0,0.0,0.0,0.0,0.0,0.0,0.0,0.0,0.0,0.0,0.0,0.0,0.0,0.0,0.0,0.0,0.0,0.0,0.0,0.0,0.0,0.0,0.0,0.0,0.0,0.0,0.0,0.0,0.0,0.0,0.0,0.0,0.0,0.0,0.0,0.0,0.0,0.0,0.0,0.0,0.0,0.0,0.0,0.0,0.0,0.0,0.0,0.0,0.0,0.0,0.0,0.0,0.0,0.0,0.0,0.0,0.0,0.0,0.0,0.0,0.0,0.0,0.0,0.0,-0.6281,0.0,0.0,0.0,0.0,0.0,0.0,0.0,0.0,0.0,0.0,0.0,0.0,0.0,0.0,0.0,0.0,0.0,0.0,0.0,0.0,0.0,0.0,0.0,0.0,0.0,0.0,0.0,0.0,0.0,0.0,0.0,0.0,0.0,0.0,0.0,0.0,0.0,0.0,0.0,0.0,0.0,0.0,0.0,0.0,0.0,0.0,0.0,0.0,0.0,0.0,0.0,0.0,0.0,0.0,0.0,0.0,0.0,0.0,0.0,0.0,0.0,0.0,0.0,0.0,0.0,0.0,0.0,0.0,0.0,0.0,0.0,0.0,0.0,0.0,0.0,0.0,0.0,0.0,0.0,0.0,0.0,0.0,0.0,0.0,0.0,0.0,0.0,0.0,0.0,0.0,0.0,0.0,0.0,0.0,0.0,0.0,0.0,0.0,0.0,0.0,0.0,0.0,0.0,0.0,0.0,0.0,0.0,0.0,0.0,0.0,-0.5458,-0.5583,-0.5789,-0.5987,-0.6181,0.0,0.0,0.0,0.0,0.0,0.0,0.0,0.0,0.0,0.0,0.0,0.0,0.0,0.0,0.0,0.0,0.0,0.0,0.0,0.0,0.0,0.0,0.0,0.0,0.0,0.0,0.0,0.0,0.0,0.0,0.0,0.0,0.0,0.0,0.0,0.0,0.0,0.0,0.0,0.0,0.0,0.0,0.0,0.0,0.0,0.0,0.0,0.0,0.0,0.0,0.0,0.0,0.0,0.0,0.0,0.0,0.0,0.0,0.0,0.0,0.0,0.0,0.0,0.0,0.0,0.0,0.0,0.0,0.0,0.0,0.0,0.0,0.0,0.0,0.0,0.0,0.0,0.0,0.0,0.0,0.0,0.0,0.0,0.0,0.0,0.0,0.0,0.0,0.0,0.0,0.0,0.0,0.0,0.0,0.0,0.0,0.0,0.0,0.0,0.0,0.0,0.0,0.0,0.0,0.0,0.0,0.0,0.0,0.0,0.0,0.0,0.0,-0.5789,-0.602,-0.6218,0.0,0.0,0.0,0.0,0.0,0.0,0.0,0.0,0.0,0.0,0.0,0.0,0.0,0.0,0.0,0.0,0.0,0.0,0.0,0.0,0.0,0.0,0.0,0.0,0.0,0.0,0.0,0.0,0.0,0.0,0.0,0.0,0.0,0.0,0.0,0.0,0.0,0.0,0.0,0.0,0.0,0.0,0.0,0.0,0.0,0.0,0.0,0.0,0.0,0.0,0.0,0.0,0.0,0.0,0.0,0.0,0.0,0.0,0.0,0.0,0.0,0.0,0.0,0.0,0.0,0.0,0.0,0.0,0.0,0.0,0.0,0.0,0.0,0.0,0.0,0.0,0.0,0.0,0.0,0.0,0.0,0.0,0.0,0.0,0.0,0.0,0.0,0.0,0.0,0.0,0.0,0.0,0.0,0.0,0.0,0.0,0.0,0.0,0.0,0.0,0.0,0.0,0.0,0.0,0.0,0.0,0.0,0.0,0.0,0.0,-0.5395,-0.5425,-0.5727,0.0,-0.6362,0.0,0.0,0.0,0.0,0.0,0.0,0.0,0.0,0.0,0.0,0.0,0.0,0.0,0.0,0.0,0.0,0.0,0.0,0.0,0.0,0.0,0.0,0.0,0.0,0.0,0.0,0.0,0.0,0.0,0.0,0.0,0.0,0.0,0.0,0.0,0.0,0.0,0.0,0.0,0.0,0.0,0.0,0.0,0.0,0.0,0.0,0.0,0.0,0.0,0.0,0.0,0.0,0.0,0.0,0.0,0.0,0.0,0.0,0.0,0.0,0.0,0.0,0.0,0.0,0.0,0.0,0.0,0.0,0.0,0.0,0.0,0.0,0.0,0.0,0.0,0.0,0.0,0.0,0.0,0.0,0.0,0.0,0.0,0.0,0.0,0.0,0.0,0.0,0.0,0.0,0.0,0.0,0.0,0.0,0.0,0.0,0.0,0.0,0.0,0.0,0.0,0.0,0.0,0.0,0.0,0.0,0.0,0.0,0.0,0.0,-0.5395,-0.5395,-0.5727,-0.602,0.0,0.0,0.0,0.0,0.0,0.0,0.0,0.0,0.0,0.0,0.0,0.0,0.0,0.0,0.0,0.0,0.0,0.0,0.0,0.0,0.0,0.0,0.0,0.0,0.0,0.0,0.0,0.0,0.0,0.0,0.0,0.0,0.0,0.0,0.0,0.0,0.0,0.0,0.0,0.0,0.0,0.0,0.0,0.0,0.0,0.0,0.0,0.0,0.0,0.0,0.0,0.0,0.0,0.0,0.0,0.0,0.0,0.0,0.0,0.0,0.0,0.0,0.0,0.0,0.0,0.0,0.0,0.0,0.0,0.0,0.0,0.0,0.0,0.0,0.0,0.0,0.0,0.0,0.0,0.0,0.0,0.0,0.0,0.0,0.0,0.0,0.0,0.0,0.0,0.0,0.0,0.0,0.0,0.0,0.0,0.0,0.0,0.0,0.0,0.0,0.0,0.0,0.0,0.0,0.0,0.0,0.0,0.0,0.0,0.0,-0.5395,-0.5428,-0.5458,-0.5723,-0.5987,-0.6181,0.0,0.0,0.0,0.0,0.0,0.0,0.0,0.0,0.0,0.0,0.0,0.0,0.0,0.0,0.0,0.0,0.0,0.0,0.0,0.0,0.0,0.0,0.0,0.0,0.0,0.0,0.0,0.0,0.0,0.0,0.0,0.0,0.0,0.0,0.0,0.0,0.0,0.0,0.0,0.0,0.0,0.0,0.0,0.0,0.0,0.0,0.0,0.0,0.0,0.0,0.0,0.0,0.0,0.0,0.0,0.0,0.0,0.0,0.0,0.0,0.0,0.0,0.0,0.0,0.0,0.0,0.0,0.0,0.0,0.0,0.0,0.0,0.0,0.0,0.0,0.0,0.0,0.0,0.0,0.0,0.0,0.0,0.0,0.0,0.0,0.0,0.0,0.0,0.0,0.0,0.0,0.0,0.0,0.0,0.0,0.0,0.0,0.0,0.0,0.0,0.0,0.0,0.0,0.0,0.0,0.0,0.0,0.0,-0.5395,-0.5395,-0.5458,-0.5583,-0.5789,-0.5987,0.0,0.0,0.0,0.0,0.0,0.0,0.0,0.0,0.0,0.0,0.0,0.0,0.0,0.0,0.0,0.0,0.0,0.0,0.0,0.0,0.0,0.0,0.0,0.0,0.0,0.0,0.0,0.0,0.0,0.0,0.0,0.0,0.0,0.0,0.0,0.0,0.0,0.0,0.0,0.0,0.0,0.0,0.0,0.0,0.0,0.0,0.0,0.0,0.0,0.0,0.0,0.0,0.0,0.0,0.0,0.0,0.0,0.0,0.0,0.0,0.0,0.0,0.0,0.0,0.0,0.0,0.0,0.0,0.0,0.0,0.0,0.0,0.0,0.0,0.0,0.0,0.0,0.0,0.0,0.0,0.0,0.0,0.0,0.0,0.0,0.0,0.0,0.0,0.0,0.0,0.0,0.0,0.0,0.0,0.0,0.0,0.0,0.0,0.0,0.0,0.0,0.0,0.0,0.0,0.0,0.0,0.0,0.0,0.0,-0.5395,-0.5395,-0.5428,-0.5491,-0.5756,-0.5954,0.0,0.0,0.0,0.0,0.0,0.0,0.0,0.0,0.0,0.0,0.0,0.0,0.0,0.0,0.0,0.0,0.0,0.0,0.0,0.0,0.0,0.0,0.0,0.0,0.0,0.0,0.0,0.0,0.0,0.0,0.0,0.0,0.0,0.0,0.0,0.0,0.0,0.0,0.0,0.0,0.0,0.0,0.0,0.0,0.0,0.0,0.0,0.0,0.0,0.0,0.0,0.0,0.0,0.0,0.0,0.0,0.0,0.0,0.0,0.0,0.0,0.0,0.0,0.0,0.0,0.0,0.0,0.0,0.0,0.0,0.0,0.0,0.0,0.0,0.0,0.0,0.0,0.0,0.0,0.0,0.0,0.0,0.0,0.0,0.0,0.0,0.0,0.0,0.0,0.0,0.0,0.0,0.0,0.0,0.0,0.0,0.0,0.0,0.0,0.0,0.0,0.0,0.0,0.0,0.0,0.0,0.0,0.0,0.0,-0.5255,0.0,-0.5284,-0.532,-0.5632,-0.5822,0.0,0.0,0.0,0.0,0.0,0.0,0.0,0.0,0.0,0.0,0.0,0.0,0.0,0.0,0.0,0.0,0.0,0.0,0.0,0.0,0.0,0.0,0.0,0.0,0.0,0.0,0.0,0.0,0.0,0.0,0.0,0.0,0.0,0.0,0.0,0.0,0.0,0.0,0.0,0.0,0.0,0.0,0.0,0.0,0.0,0.0,0.0,0.0,0.0,0.0,0.0,0.0,0.0,0.0,0.0,0.0,0.0,0.0,0.0,0.0,0.0,0.0,0.0,0.0,0.0,0.0,0.0,0.0,0.0,0.0,0.0,0.0,0.0,0.0,0.0,0.0,0.0,0.0,0.0,0.0,0.0,0.0,0.0,0.0,0.0,0.0,0.0,0.0,0.0,0.0,0.0,0.0,0.0,0.0,0.0,0.0,0.0,0.0,0.0,0.0,0.0,0.0,0.0,0.0,0.0,0.0,0.0,0.0,-0.5039,-0.4911,-0.5039,-0.512,-0.5142,-0.5444,-0.5686,0.0,0.0,0.0,0.0,0.0,0.0,0.0,0.0,0.0,0.0,0.0,0.0,0.0,0.0,0.0,0.0,0.0,0.0,0.0,0.0,0.0,0.0,0.0,0.0,0.0,0.0,0.0,0.0,0.0,0.0,0.0,0.0,0.0,0.0,0.0,0.0,0.0,0.0,0.0,0.0,0.0,0.0,0.0,0.0,0.0,0.0,0.0,0.0,0.0,0.0,0.0,0.0,0.0,0.0,0.0,0.0,0.0,0.0,0.0,0.0,0.0,0.0,0.0,0.0,0.0,0.0,0.0,0.0,0.0,0.0,0.0,0.0,0.0,0.0,0.0,0.0,0.0,0.0,0.0,0.0,0.0,0.0,0.0,0.0,0.0,0.0,0.0,0.0,0.0,0.0,0.0,0.0,0.0,0.0,0.0,0.0,0.0,0.0,0.0,0.0,0.0,0.0,0.0,0.0,0.0,0.0,0.0,0.0,0.0,-0.5039,-0.5213,-0.5324,-0.5324,-0.5496,-0.565,0.0,0.0,0.0,0.0,0.0,0.0,0.0,0.0,0.0,0.0,0.0,0.0,0.0,0.0,0.0,0.0,0.0,0.0,0.0,0.0,0.0,0.0,0.0,0.0,0.0,0.0,0.0,0.0,0.0,0.0,0.0,0.0,0.0,0.0,0.0,0.0,0.0,0.0,0.0,0.0,0.0,0.0,0.0,0.0,0.0,0.0,0.0,0.0,0.0,0.0,0.0,0.0,0.0,0.0,0.0,0.0,0.0,0.0,0.0,0.0,0.0,0.0,0.0,0.0,0.0,0.0,0.0,0.0,0.0,0.0,0.0,0.0,0.0,0.0,0.0,0.0,0.0,0.0,0.0,0.0,0.0,0.0,0.0,0.0,0.0,0.0,0.0,0.0,0.0,0.0,0.0,0.0,0.0,0.0,0.0,0.0,0.0,0.0,0.0,0.0,0.0,0.0,0.0,0.0,0.0,0.0,0.0,0.0,0.0,-0.5216,-0.5203,-0.522,-0.5274,-0.5368,-0.5494,-0.5576,0.0,0.0,0.0,0.0,0.0,0.0,0.0,0.0,0.0,0.0,0.0,0.0,0.0,0.0,0.0,0.0,0.0,0.0,0.0,0.0,0.0,0.0,0.0,0.0,0.0,0.0,0.0,0.0,0.0,0.0,0.0,0.0,0.0,0.0,0.0,0.0,0.0,0.0,0.0,0.0,0.0,0.0,0.0,0.0,0.0,0.0,0.0,0.0,0.0,0.0,0.0,0.0,0.0,0.0,0.0,0.0,0.0,0.0,0.0,0.0,0.0,0.0,0.0,0.0,0.0,0.0,0.0,0.0,0.0,0.0,0.0,0.0,0.0,0.0,0.0,0.0,0.0,0.0,0.0,0.0,0.0,0.0,0.0,0.0,0.0,0.0,0.0,0.0,0.0,0.0,0.0,0.0,0.0,0.0,0.0,0.0,0.0,0.0,0.0,0.0,0.0,0.0,0.0,0.0,0.0,0.0,0.0,0.0,-0.5405,-0.5101,-0.5026,-0.5113,-0.5117,-0.5267,0.0,0.0,0.0,0.0,0.0,0.0,0.0,0.0,0.0,0.0,0.0,0.0,0.0,0.0,0.0,0.0,0.0,0.0,0.0,0.0,0.0,0.0,0.0,0.0,0.0,0.0,0.0,0.0,0.0,0.0,0.0,0.0,0.0,0.0,0.0,0.0,0.0,0.0,0.0,0.0,0.0,0.0,0.0,0.0,0.0,0.0,0.0,0.0,0.0,0.0,0.0,0.0,0.0,0.0,0.0,0.0,0.0,0.0,0.0,0.0,0.0,0.0,0.0,0.0,0.0,0.0,0.0,0.0,0.0,0.0,0.0,0.0,0.0,0.0,0.0,0.0,0.0,0.0,0.0,0.0,0.0,0.0,0.0,0.0,0.0,0.0,0.0,0.0,0.0,0.0,0.0,0.0,0.0,0.0,0.0,0.0,0.0,0.0,0.0,0.0,0.0,0.0,0.0,0.0,0.0,0.0,0.0,0.0,0.0,-0.5525,-0.5487,-0.5376,-0.5304,-0.5334,-0.5296,0.0,0.0,0.0,0.0,0.0,0.0,0.0,0.0,0.0,0.0,0.0,0.0,0.0,0.0,0.0,0.0,0.0,0.0,0.0,0.0,0.0,0.0,0.0,0.0,0.0,0.0,0.0,0.0,0.0,0.0,0.0,0.0,0.0,0.0,0.0,0.0,0.0,0.0,0.0,0.0,0.0,0.0,0.0,0.0,0.0,0.0,0.0,0.0,0.0,0.0,0.0,0.0,0.0,0.0,0.0,0.0,0.0,0.0,0.0,0.0,0.0,0.0,0.0,0.0,0.0,0.0,0.0,0.0,0.0,0.0,0.0,0.0,0.0,0.0,0.0,0.0,0.0,0.0,0.0,0.0,0.0,0.0,0.0,0.0,0.0,0.0,0.0,0.0,0.0,0.0,0.0,0.0,0.0,0.0,0.0,0.0,0.0,0.0,0.0,0.0,0.0,0.0,0.0,0.0,0.0,0.0,0.0,0.0,-0.5491,-0.5674,-0.5623,-0.5545,-0.5491,-0.5426,-0.532,0.0,0.0,0.0,0.0,0.0,0.0,0.0,0.0,0.0,0.0,0.0,0.0,0.0,0.0,0.0,0.0,0.0,0.0,0.0,0.0,0.0,0.0,0.0,0.0,0.0,0.0,0.0,0.0,0.0,0.0,0.0,0.0,0.0,0.0,0.0,0.0,0.0,0.0,0.0,0.0,0.0,0.0,0.0,0.0,0.0,0.0,0.0,0.0,0.0,0.0,0.0,0.0,0.0,0.0,0.0,0.0,0.0,0.0,0.0,0.0,0.0,0.0,0.0,0.0,0.0,0.0,0.0,0.0,0.0,0.0,0.0,0.0,0.0,0.0,0.0,0.0,0.0,0.0,0.0,0.0,0.0,0.0,0.0,0.0,0.0,0.0,0.0,0.0,0.0,0.0,0.0,0.0,0.0,0.0,0.0,0.0,0.0,0.0,0.0,0.0,0.0,0.0,0.0,0.0,0.0,0.0,0.0,0.0,-0.5348,-0.5745,-0.5664,-0.5596,-0.5566,-0.5484,-0.5337,0.0,0.0,0.0,0.0,0.0,0.0,0.0,0.0,0.0,0.0,0.0,0.0,0.0,0.0,0.0,0.0,0.0,0.0,0.0,0.0,0.0,0.0,0.0,0.0,0.0,0.0,0.0,0.0,0.0,0.0,0.0,0.0,0.0,0.0,0.0,0.0,0.0,0.0,0.0,0.0,0.0,0.0,0.0,0.0,0.0,0.0,0.0,0.0,0.0,0.0,0.0,0.0,0.0,0.0,0.0,0.0,0.0,0.0,0.0,0.0,0.0,0.0,0.0,0.0,0.0,0.0,0.0,0.0,0.0,0.0,0.0,0.0,0.0,0.0,0.0,0.0,0.0,0.0,0.0,0.0,0.0,0.0,0.0,0.0,0.0,0.0,0.0,0.0,0.0,0.0,0.0,0.0,0.0,0.0,0.0,0.0,0.0,0.0,0.0,0.0,0.0,0.0,0.0,0.0,0.0,0.0,0.0,0.0,-0.5388,-0.5454,-0.5654,-0.5644,-0.545,-0.5532,-0.5413,0.0,0.0,0.0,0.0,0.0,0.0,0.0,0.0,0.0,0.0,0.0,0.0,0.0,0.0,0.0,0.0,0.0,0.0,0.0,0.0,0.0,0.0,0.0,0.0,0.0,0.0,0.0,0.0,0.0,0.0,0.0,0.0,0.0,0.0,0.0,0.0,0.0,0.0,0.0,0.0,0.0,0.0,0.0,0.0,0.0,0.0,0.0,0.0,-0.5352,0.0,0.0,0.0,0.0,0.0,0.0,0.0,0.0,0.0,0.0,0.0,0.0,0.0,0.0,0.0,0.0,0.0,0.0,0.0,0.0,0.0,0.0,0.0,0.0,0.0,0.0,0.0,0.0,0.0,0.0,0.0,0.0,0.0,0.0,0.0,0.0,0.0,0.0,0.0,0.0,0.0,0.0,0.0,0.0,0.0,0.0,0.0,0.0,0.0,0.0,0.0,0.0,0.0,0.0,0.0,0.0,0.0,0.0,0.0,-0.522,-0.5395,-0.5586,-0.5593,-0.5409,-0.5474,-0.5402,0.0,0.0,0.0,0.0,0.0,0.0,0.0,0.0,0.0,0.0,0.0,0.0,0.0,0.0,0.0,0.0,0.0,0.0,0.0,0.0,0.0,0.0,0.0,0.0,0.0,0.0,0.0,0.0,0.0,0.0,0.0,0.0,0.0,0.0,0.0,0.0,0.0,0.0,0.0,0.0,0.0,0.0,0.0,0.0,0.0,0.0,0.0,0.0,0.0,0.0,0.0,0.0,0.0,0.0,0.0,0.0,0.0,0.0,0.0,0.0,0.0,0.0,0.0,0.0,0.0,0.0,0.0,0.0,0.0,0.0,0.0,0.0,0.0,0.0,0.0,0.0,0.0,0.0,0.0,0.0,0.0,0.0,0.0,0.0,0.0,0.0,0.0,0.0,0.0,0.0,0.0,0.0,0.0,0.0,0.0,0.0,0.0,0.0,0.0,0.0,0.0,0.0,0.0,0.0,0.0,0.0,0.0,-0.4806,-0.5006,-0.5283,-0.5406,-0.5457,-0.533,-0.5303,-0.5242,-0.5073,0.0,0.0,0.0,0.0,0.0,0.0,0.0,0.0,0.0,0.0,0.0,0.0,0.0,0.0,0.0,0.0,0.0,0.0,0.0,0.0,0.0,0.0,0.0,0.0,0.0,0.0,0.0,0.0,0.0,0.0,0.0,0.0,0.0,0.0,0.0,0.0,0.0,0.0,-0.5301,-0.5301,0.0,0.0,0.0,0.0,0.0,0.0,0.0,0.0,-0.5301,0.0,0.0,0.0,0.0,0.0,0.0,0.0,0.0,0.0,0.0,0.0,0.0,0.0,0.0,0.0,0.0,0.0,0.0,0.0,0.0,0.0,0.0,0.0,0.0,0.0,0.0,0.0,0.0,0.0,0.0,0.0,0.0,0.0,0.0,0.0,0.0,0.0,0.0,0.0,0.0,0.0,0.0,0.0,0.0,0.0,0.0,0.0,0.0,0.0,0.0,0.0,0.0,0.0,0.0,0.0,0.0,-0.4528,-0.465,-0.4752,-0.4802,-0.4948,-0.4985,-0.4989,-0.4867,-0.4847,-0.4921,0.0,0.0,0.0,0.0,0.0,0.0,0.0,0.0,0.0,0.0,0.0,0.0,0.0,0.0,0.0,0.0,0.0,0.0,0.0,0.0,0.0,0.0,0.0,0.0,0.0,0.0,0.0,0.0,0.0,0.0,0.0,0.0,0.0,0.0,0.0,0.0,0.0,0.0,0.0,-0.5301,-0.5301,0.0,0.0,0.0,0.0,0.0,0.0,0.0,0.0,-0.5349,0.0,0.0,0.0,0.0,0.0,0.0,0.0,0.0,0.0,0.0,0.0,0.0,0.0,0.0,0.0,0.0,0.0,0.0,0.0,0.0,0.0,0.0,0.0,0.0,0.0,0.0,0.0,0.0,0.0,0.0,0.0,0.0,0.0,0.0,0.0,0.0,0.0,0.0,0.0,0.0,0.0,0.0,0.0,0.0,0.0,0.0,0.0,0.0,0.0,0.0,0.0,0.0,0.0,0.0,0.0,-0.4501,-0.4691,-0.4809,-0.4813,-0.4952,-0.4961,-0.4921,-0.4772,-0.4728,0.0,0.0,0.0,0.0,0.0,0.0,0.0,0.0,0.0,0.0,0.0,0.0,0.0,0.0,0.0,0.0,0.0,0.0,0.0,0.0,0.0,0.0,0.0,0.0,0.0,0.0,0.0,0.0,0.0,0.0,0.0,0.0,0.0,0.0,0.0,0.0,0.0,0.0,0.0,0.0,-0.5301,-0.5301,-0.5301,0.0,0.0,0.0,0.0,0.0,0.0,-0.5458,-0.5519,0.0,0.0,0.0,0.0,0.0,0.0,0.0,0.0,0.0,0.0,0.0,0.0,0.0,0.0,0.0,0.0,0.0,0.0,0.0,0.0,0.0,0.0,0.0,0.0,0.0,0.0,0.0,0.0,0.0,0.0,0.0,0.0,0.0,0.0,0.0,0.0,0.0,0.0,0.0,0.0,0.0,0.0,0.0,0.0,0.0,0.0,0.0,0.0,0.0,0.0,0.0,0.0,0.0,0.0,0.0,-0.4498,-0.4704,-0.4826,-0.4833,-0.4904,-0.4942,-0.483,-0.4711,-0.4672,0.0,0.0,0.0,0.0,0.0,0.0,0.0,0.0,0.0,0.0,0.0,0.0,0.0,0.0,0.0,0.0,0.0,0.0,0.0,0.0,0.0,0.0,0.0,0.0,0.0,0.0,0.0,0.0,0.0,0.0,0.0,0.0,0.0,0.0,0.0,0.0,0.0,0.0,0.0,0.0,0.0,-0.5301,-0.5301,-0.5301,0.0,0.0,0.0,0.0,-0.551,-0.5559,0.0,0.0,0.0,0.0,0.0,0.0,0.0,0.0,0.0,0.0,0.0,0.0,0.0,0.0,0.0,0.0,0.0,0.0,0.0,0.0,0.0,0.0,0.0,0.0,0.0,0.0,0.0,0.0,0.0,0.0,0.0,0.0,0.0,0.0,0.0,0.0,0.0,0.0,0.0,0.0,0.0,0.0,0.0,0.0,0.0,0.0,0.0,0.0,0.0,0.0,0.0,0.0,0.0,0.0,0.0,0.0,-0.4491,-0.4525,-0.4545,-0.4542,-0.4559,-0.4559,-0.4542,-0.4525,-0.4518,0.0,0.0,0.0,0.0,0.0,0.0,0.0,0.0,0.0,0.0,0.0,0.0,0.0,0.0,0.0,0.0,0.0,0.0,0.0,0.0,0.0,0.0,0.0,0.0,0.0,0.0,0.0,0.0,0.0,0.0,0.0,0.0,0.0,0.0,0.0,0.0,0.0,0.0,0.0,0.0,0.0,-0.5301,-0.5301,-0.5301,-0.5301,0.0,0.0,-0.5305,-0.5325,-0.5482,0.0,0.0,0.0,0.0,0.0,0.0,0.0,0.0,0.0,0.0,0.0,0.0,0.0,0.0,0.0,0.0,0.0,0.0,0.0,0.0,0.0,0.0,0.0,0.0,0.0,0.0,0.0,0.0,0.0,0.0,0.0,0.0,0.0,0.0,0.0,0.0,0.0,0.0,0.0,0.0,0.0,0.0,0.0,0.0,0.0,0.0,0.0,0.0,0.0,0.0,0.0,0.0,0.0,0.0,0.0,-0.4491,-0.4494,-0.4576,-0.4621,-0.4621,-0.4621,-0.4621,-0.4592,-0.4535,-0.4491,0.0,0.0,0.0,0.0,0.0,0.0,0.0,0.0,0.0,0.0,0.0,0.0,0.0,0.0,0.0,0.0,0.0,0.0,0.0,0.0,0.0,0.0,0.0,0.0,0.0,0.0,0.0,0.0,0.0,0.0,0.0,0.0,0.0,0.0,0.0,0.0,0.0,0.0,0.0,0.0,0.0,0.0,-0.5301,-0.5301,0.0,0.0,0.0,-0.551,-0.5615,0.0,0.0,0.0,0.0,0.0,0.0,0.0,0.0,0.0,0.0,0.0,0.0,0.0,0.0,0.0,0.0,0.0,0.0,0.0,0.0,0.0,0.0,0.0,0.0,0.0,0.0,0.0,0.0,0.0,0.0,0.0,0.0,0.0,0.0,0.0,0.0,0.0,0.0,0.0,0.0,0.0,0.0,0.0,0.0,0.0,0.0,0.0,0.0,0.0,0.0,0.0,0.0,0.0,0.0,0.0,0.0,0.0,-0.4491,-0.4604,-0.4633,-0.4633,-0.4633,-0.4633,-0.4662,-0.4549,0.0,0.0,0.0,0.0,0.0,0.0,0.0,0.0,0.0,0.0,0.0,0.0,0.0,0.0,0.0,0.0,0.0,0.0,0.0,0.0,0.0,0.0,0.0,0.0,0.0,0.0,0.0,-0.5458,0.0,0.0,0.0,0.0,0.0,0.0,0.0,0.0,0.0,0.0,0.0,0.0,0.0,0.0,-0.5377,-0.5305,-0.5301,-0.5301,0.0,0.0,-0.5596,-0.573,-0.5931,-0.6106,0.0,0.0,0.0,0.0,0.0,0.0,0.0,0.0,0.0,0.0,0.0,0.0,0.0,0.0,0.0,0.0,0.0,0.0,0.0,0.0,0.0,0.0,0.0,0.0,0.0,0.0,0.0,0.0,0.0,0.0,0.0,0.0,0.0,0.0,0.0,0.0,0.0,0.0,0.0,0.0,0.0,0.0,0.0,0.0,0.0,0.0,0.0,0.0,0.0,0.0,0.0,0.0,0.0,0.0,0.0,-0.4491,-0.4498,-0.4508,-0.4505,-0.4505,-0.4532,-0.4536,-0.4522,-0.4491,0.0,0.0,0.0,0.0,0.0,0.0,0.0,0.0,0.0,0.0,0.0,0.0,0.0,0.0,0.0,0.0,0.0,0.0,0.0,0.0,0.0,0.0,0.0,0.0,0.0,0.0,0.0,0.0,0.0,0.0,0.0,0.0,0.0,0.0,0.0,0.0,0.0,0.0,0.0,0.0,0.0,-0.5506,-0.5325,-0.5301,-0.5301,0.0,0.0,-0.5321,-0.5337,-0.551,-0.5709,-0.5926,0.0,0.0,0.0,0.0,0.0,0.0,0.0,0.0,0.0,0.0,0.0,0.0,0.0,0.0,0.0,0.0,0.0,0.0,0.0,0.0,0.0,0.0,0.0,0.0,0.0,0.0,0.0,0.0,0.0,0.0,0.0,0.0,0.0,0.0,0.0,0.0,0.0,0.0,0.0,0.0,0.0,0.0,0.0,0.0,0.0,0.0,0.0,0.0,0.0,0.0,0.0,0.0,0.0,-0.4491,-0.4491,-0.4491,-0.4491,-0.4491,-0.4491,-0.4491,-0.4491,-0.4491,-0.4491,0.0,0.0,0.0,0.0,0.0,0.0,0.0,0.0,0.0,0.0,0.0,0.0,0.0,0.0,0.0,0.0,0.0,0.0,0.0,0.0,0.0,0.0,0.0,0.0,0.0,0.0,0.0,0.0,-0.5888,-0.5988,-0.6186,0.0,0.0,0.0,0.0,0.0,0.0,0.0,0.0,0.0,0.0,-0.5519,-0.5325,-0.5301,0.0,0.0,-0.539,-0.5486,-0.5482,-0.5784,-0.5996,-0.6069,-0.6197,0.0,0.0,0.0,0.0,0.0,0.0,0.0,0.0,0.0,0.0,0.0,0.0,0.0,0.0,0.0,0.0,0.0,0.0,0.0,0.0,0.0,0.0,0.0,0.0,0.0,0.0,0.0,0.0,0.0,0.0,0.0,0.0,0.0,0.0,0.0,0.0,0.0,0.0,0.0,0.0,0.0,0.0,0.0,0.0,0.0,0.0,0.0,0.0,0.0,0.0,0.0,0.0,-0.4491,-0.4491,-0.4491,-0.4491,-0.4491,-0.4491,-0.4491,-0.4491,-0.4491,-0.4491,0.0,0.0,0.0,0.0,0.0,0.0,0.0,0.0,0.0,0.0,0.0,0.0,0.0,0.0,0.0,0.0,0.0,0.0,0.0,0.0,0.0,0.0,0.0,0.0,0.0,0.0,0.0,0.0,-0.6051,-0.6095,-0.6245,0.0,0.0,0.0,0.0,0.0,0.0,0.0,0.0,0.0,0.0,-0.5579,-0.5333,-0.5301,-0.5301,-0.5301,-0.543,-0.5523,-0.5575,-0.5853,-0.6053,-0.6191,0.0,0.0,0.0,0.0,0.0,0.0,0.0,0.0,0.0,0.0,0.0,0.0,0.0,0.0,0.0,0.0,0.0,0.0,0.0,0.0,0.0,0.0,0.0,0.0,0.0,0.0,0.0,0.0,0.0,0.0,-0.7953,0.0,0.0,0.0,0.0,0.0,0.0,0.0,0.0,0.0,0.0,0.0,0.0,0.0,0.0,0.0,0.0,0.0,0.0,0.0,0.0,0.0,0.0,-0.4491,-0.4491,-0.4491,-0.4491,-0.4491,-0.4491,-0.4491,-0.4491,-0.4491,-0.4491,-0.4491,0.0,0.0,0.0,0.0,0.0,0.0,0.0,0.0,0.0,0.0,0.0,0.0,0.0,0.0,0.0,0.0,0.0,0.0,0.0,0.0,0.0,0.0,0.0,0.0,0.0,0.0,-0.6363,-0.6408,-0.6367,0.0,0.0,0.0,0.0,0.0,0.0,0.0,0.0,0.0,0.0,-0.5884,-0.5754,-0.5357,-0.5305,-0.5317,-0.5305,-0.5313,-0.5397,-0.5559,-0.5624,-0.5742,0.0,0.0,0.0,0.0,0.0,0.0,0.0,0.0,0.0,0.0,0.0,0.0,0.0,0.0,0.0,0.0,0.0,0.0,0.0,0.0,0.0,0.0,0.0,0.0,0.0,0.0,0.0,-0.7018,-0.8097,0.0,0.0,0.0,0.0,0.0,0.0,0.0,0.0,0.0,0.0,0.0,-0.6034,-0.5723,0.0,0.0,0.0,0.0,0.0,0.0,0.0,0.0,0.0,0.0,0.0,0.0,-0.459,-0.4494,-0.4491,-0.4491,-0.4491,-0.4491,-0.4491,-0.4491,-0.4491,-0.4491,-0.4491,0.0,0.0,0.0,0.0,0.0,0.0,0.0,0.0,0.0,0.0,0.0,0.0,0.0,0.0,0.0,0.0,0.0,0.0,0.0,0.0,0.0,0.0,0.0,0.0,0.0,-0.642,0.0,0.0,0.0,0.0,0.0,0.0,0.0,0.0,0.0,0.0,0.0,-0.6331,-0.6122,-0.609,-0.6004,-0.5742,-0.5709,-0.5636,0.0,0.0,0.0,0.0,0.0,0.0,0.0,0.0,0.0,0.0,0.0,0.0,0.0,0.0,-0.642,-0.642,-0.642,-0.642,-0.642,0.0,0.0,0.0,0.0,0.0,0.0,0.0,0.0,0.0,0.0,0.0,0.0,0.0,0.0,-0.7204,0.0,-0.8222,0.0,0.0,0.0,0.0,0.0,0.0,0.0,0.0,-0.6651,-0.6229,-0.5892,-0.571,-0.551,0.0,-0.5395,-0.5395,0.0,0.0,0.0,0.0,0.0,0.0,0.0,0.0,-0.464,-0.4573,-0.4515,-0.4491,-0.4491,-0.4491,-0.4491,-0.4491,-0.4408,-0.4267,-0.4211,-0.4321,-0.4343,0.0,0.0,0.0,0.0,0.0,0.0,0.0,0.0,0.0,0.0,0.0,0.0,0.0,0.0,0.0,0.0,0.0,0.0,0.0,0.0,0.0,0.0,0.0,-0.642,0.0,0.0,0.0,0.0,0.0,0.0,0.0,0.0,0.0,-0.642,-0.642,-0.6347,-0.62,-0.6207,-0.6141,-0.5943,0.0,0.0,0.0,0.0,0.0,0.0,0.0,-0.6227,-0.6261,-0.6339,-0.642,-0.642,-0.642,-0.642,-0.642,0.0,0.0,-0.642,-0.642,-0.642,-0.642,-0.642,-0.6384,-0.6298,-0.6131,-0.5975,0.0,0.0,0.0,0.0,0.0,0.0,0.0,0.0,-0.6634,-0.7425,0.0,-0.7825,0.0,0.0,0.0,0.0,0.0,-0.7721,0.0,0.0,-0.5925,-0.5723,-0.5859,-0.5692,-0.5545,-0.5409,-0.5399,-0.5395,-0.5395,-0.5395,0.0,0.0,0.0,0.0,0.0,0.0,-0.4701,-0.4694,-0.4576,-0.4498,-0.4501,-0.4522,-0.4491,-0.446,-0.4159,-0.3879,-0.3602,-0.3683,-0.3685,-0.3496,-0.4039,0.0,0.0,0.0,0.0,0.0,0.0,0.0,0.0,0.0,0.0,0.0,0.0,0.0,0.0,0.0,0.0,0.0,0.0,0.0,0.0,-0.6428,0.0,0.0,0.0,0.0,0.0,0.0,0.0,0.0,0.0,0.0,-0.642,-0.642,-0.6355,-0.6244,0.0,0.0,0.0,0.0,-0.5904,-0.5896,-0.59,-0.5996,-0.6178,-0.6211,-0.6245,-0.6388,0.0,0.0,-0.642,-0.642,-0.642,-0.642,-0.642,-0.642,-0.642,-0.642,-0.642,-0.642,-0.642,-0.6416,-0.6396,-0.6273,-0.6186,-0.5532,0.0,0.0,0.0,0.0,-0.5515,-0.5752,-0.6045,-0.5971,-0.6499,-0.7428,-0.7084,0.0,0.0,0.0,0.0,0.0,0.0,-0.7042,-0.6563,-0.6375,-0.6135,-0.5814,-0.5651,-0.56,-0.5552,-0.5446,-0.5395,-0.5395,-0.5395,-0.5395,-0.5392,0.0,0.0,0.0,0.0,-0.4955,-0.4853,-0.4704,-0.4655,-0.4651,-0.4549,-0.438,-0.4132,-0.3879,-0.3572,-0.3241,-0.31,-0.2993,-0.2942,-0.3098,0.0,0.0,0.0,0.0,0.0,0.0,0.0,0.0,0.0,0.0,0.0,0.0,0.0,0.0,0.0,0.0,0.0,0.0,0.0,-0.6615,-0.6607,-0.669,0.0,0.0,0.0,0.0,0.0,0.0,0.0,0.0,0.0,-0.642,-0.642,-0.6367,0.0,0.0,-0.6327,-0.6274,-0.6266,-0.6221,-0.6122,-0.6185,0.0,0.0,-0.6286,-0.6359,-0.6408,-0.642,-0.642,-0.642,-0.642,-0.642,-0.642,-0.642,-0.642,-0.642,-0.642,-0.642,-0.642,-0.642,-0.6371,-0.6286,-0.6208,-0.6174,-0.5786,-0.5245,-0.5326,-0.5488,-0.5633,-0.5725,-0.5847,-0.5979,-0.5931,-0.6316,-0.7043,-0.6592,-0.7082,-0.8143,-0.7951,0.0,0.0,0.0,-0.6839,-0.6297,-0.6355,-0.6183,-0.58,-0.5772,-0.5701,-0.5589,-0.5532,-0.5457,-0.5395,-0.5395,-0.5395,-0.5395,0.0,0.0,-0.5106,-0.51,-0.5029,-0.4891,-0.4769,-0.466,-0.4627,-0.4539,-0.4267,-0.3852,-0.3572,-0.3155,-0.2599,-0.2432,-0.2305,-0.2239,-0.24,-0.2815,0.0,0.0,0.0,0.0,0.0,0.0,0.0,0.0,0.0,0.0,0.0,-0.6058,0.0,0.0,0.0,0.0,-0.6393,-0.6549,-0.6693,-0.6755,0.0,0.0,0.0,0.0,0.0,0.0,0.0,-0.6731,-0.6534,-0.642,-0.642,-0.642,-0.642,-0.642,-0.642,-0.642,-0.642,0.0,-0.6379,-0.6302,-0.6347,-0.6379,-0.6306,-0.6343,-0.642,-0.642,-0.642,-0.642,-0.642,-0.642,-0.642,-0.642,-0.642,-0.642,-0.642,-0.642,-0.642,-0.642,-0.642,-0.6379,-0.627,-0.6286,-0.6249,-0.6139,-0.5871,-0.5874,-0.5939,-0.601,-0.602,-0.6152,-0.633,-0.632,-0.6638,-0.7142,-0.6362,-0.681,-0.8192,-0.8192,0.0,-0.6829,-0.6945,-0.6567,-0.5823,-0.5979,-0.5973,-0.5847,-0.5932,-0.5845,-0.5606,-0.561,-0.5562,-0.5419,-0.5429,-0.5426,-0.5412,-0.5423,-0.5315,-0.5127,-0.5117,-0.5052,-0.4924,-0.4806,-0.465,-0.4515,-0.448,-0.4193,-0.3572,-0.3213,-0.2629,-0.179,-0.1734,-0.1644,-0.1472,-0.1879,-0.2563,-0.3407,0.0,0.0,0.0,0.0,0.0,0.0,0.0,0.0,0.0,0.0,0.0,0.0,0.0,0.0,0.0,-0.6478,0.0,-0.6729,-0.6905,0.0,0.0,0.0,-0.7033,-0.7029,-0.6878,-0.6733,-0.6717,0.0,0.0,-0.642,-0.642,-0.642,-0.642,-0.642,-0.642,-0.642,-0.642,-0.642,-0.6408,-0.642,-0.642,-0.6404,-0.6379,-0.642,-0.642,-0.642,-0.642,-0.642,-0.642,-0.642,-0.642,-0.642,-0.642,-0.642,-0.642,-0.642,-0.642,-0.642,-0.642,-0.6432,-0.642,-0.6408,-0.6661,-0.6488,-0.6488,-0.638,-0.6255,-0.6322,-0.6454,-0.6583,-0.6515,-0.6496,-0.6499,-0.6153,-0.6159,-0.6433,-0.6437,-0.6272,-0.6072,-0.6193,-0.6157,-0.5986,-0.6135,-0.6224,-0.6187,-0.6067,-0.5932,-0.5759,-0.5752,-0.5677,-0.5545,-0.5647,-0.564,-0.5545,-0.5644,-0.56,-0.5351,-0.5341,-0.5324,-0.5286,-0.5104,-0.4901,-0.4646,-0.441,-0.3926,-0.3244,-0.2685,-0.2099,-0.1429,-0.1233,-0.1127,-0.1137,-0.1448,-0.2119,-0.308,-0.3492,0.0,0.0,0.0,0.0,0.0,0.0,0.0,0.0,0.0,-0.619,-0.6266,0.0,-0.6266,0.0,-0.6496,-0.6718,-0.7053,-0.7126,0.0,0.0,-0.7354,-0.7354,-0.7358,-0.7204,-0.7049,-0.6939,-0.6737,-0.6578,-0.6403,-0.642,-0.642,-0.642,-0.642,-0.642,-0.642,-0.642,-0.642,-0.642,-0.642,-0.642,-0.642,-0.642,-0.642,-0.642,-0.642,-0.642,-0.642,-0.642,-0.642,-0.642,-0.642,-0.642,-0.642,-0.642,-0.642,-0.642,-0.642,-0.6428,-0.6583,-0.6513,-0.6457,-0.7037,-0.6902,-0.697,-0.6865,-0.6651,-0.6671,-0.6759,-0.6888,-0.6807,-0.6692,-0.6549,-0.6393,-0.621,-0.6054,-0.6071,-0.6102,-0.6013,-0.6095,-0.6135,-0.6139,-0.6262,-0.63,-0.6296,-0.6176,-0.6054,-0.5901,-0.5901,-0.5827,-0.5698,-0.5766,-0.5762,-0.5688,-0.5762,-0.5722,-0.5562,-0.5423,-0.5326,-0.5256,-0.4858,-0.4679,-0.4769,-0.4256,-0.3693,-0.3154,-0.2565,-0.1961,-0.1348,-0.1085,-0.0989,-0.113,-0.1383,-0.2032,-0.3101,-0.35,-0.4167,0.0,0.0,0.0,0.0,0.0,0.0,0.0,0.0,0.0,0.0,0.0,-0.6338,-0.6412,-0.6561,-0.6734,-0.7036,-0.7074,-0.7151,-0.7322,-0.7373,-0.7407,-0.7518,-0.733,-0.7188,-0.7086,-0.692,-0.6808,-0.6668,-0.6591,-0.6542,-0.6542,-0.644,-0.642,-0.642,-0.642,-0.642,-0.642,-0.642,-0.642,-0.642,-0.642,-0.642,-0.642,-0.642,-0.642,-0.642,-0.642,-0.642,-0.642,-0.642,-0.642,-0.642,-0.642,-0.642,-0.642,-0.642,-0.6453,-0.6534,-0.6485,-0.6457,-0.7282,-0.7109,-0.7305,-0.7282,-0.7085,-0.6964,-0.6984,-0.7095,-0.7095,-0.7018,-0.6876,-0.677,-0.6596,-0.6368,-0.6444,-0.6463,-0.633,-0.6327,-0.6317,-0.63,-0.63,-0.631,-0.6327,-0.6327,-0.621,-0.6027,-0.606,-0.5979,-0.5833,-0.5867,-0.5838,-0.5716,-0.5716,-0.564,-0.5557,-0.5216,-0.5036,-0.4979,-0.4443,-0.4316,-0.4666,-0.4037,-0.3483,-0.3103,-0.2522,-0.195,-0.1326,-0.1112,-0.1094,-0.1286,-0.1514,-0.2176,-0.3326,-0.3639,-0.4265,0.0,-0.5585,0.0,0.0,0.0,0.0,0.0,0.0,0.0,0.0,-0.63,-0.6374,-0.6602,-0.6602,-0.6676,-0.6903,-0.6903,-0.6984,-0.7184,-0.7184,-0.7296,-0.7437,-0.735,-0.7215,-0.7191,-0.7086,-0.7016,-0.6975,-0.6853,-0.6763,-0.6717,-0.6574,-0.6444,-0.6457,-0.6407,-0.642,-0.642,-0.642,-0.642,-0.642,-0.642,-0.642,-0.642,-0.642,-0.642,-0.642,-0.642,-0.642,-0.642,-0.642,-0.642,-0.642,-0.642,-0.642,-0.642,-0.642,-0.6399,-0.6465,-0.6407,-0.6424,-0.7282,-0.7112,-0.7309,-0.7282,-0.7095,-0.7065,-0.7071,-0.7095,-0.7095,-0.7014,-0.6879,-0.677,-0.6668,-0.662,-0.6644,-0.6576,-0.6474,-0.647,-0.6409,-0.63,-0.63,-0.6361,-0.6467,-0.647,-0.6395,-0.6276,-0.6458,-0.6369,-0.5956,-0.623,-0.597,-0.5166,-0.5166,-0.4819,-0.4196,0.0,0.0,0.0,-0.4464,-0.4208,-0.3634,-0.3522,-0.317,-0.2561,-0.2054,0.0,-0.1328,-0.1112,-0.1095,-0.1318,-0.1741,0.0,0.0,0.0,0.0,0.0,0.0,0.0,0.0,0.0,0.0,0.0,-0.63,-0.63,-0.63,-0.63,-0.6377,-0.656,-0.6602,-0.6676,-0.6865,-0.6903,-0.6984,-0.7184,-0.7184,-0.7296,-0.7484,-0.7447,-0.7387,-0.7203,-0.7196,-0.7119,-0.7024,-0.6959,-0.6939,-0.6931,-0.6788,-0.6656,-0.6639,-0.6509,-0.6424,-0.642,-0.642,-0.642,-0.642,-0.642,-0.642,-0.642,-0.642,-0.642,-0.642,-0.642,-0.642,-0.642,-0.642,-0.642,-0.642,-0.642,-0.642,-0.642,-0.642,-0.6423,-0.6624,-0.648,-0.6461,-0.7397,0.0,-0.7385,-0.7282,0.0,-0.7095,-0.7095,-0.7095,-0.7095,-0.7014,-0.6886,-0.6879,-0.6878,-0.6814,-0.6814,-0.6773,-0.6695,-0.6617,-0.6549,-0.6478,-0.6478,-0.6555,-0.6583,-0.6583,-0.6549,-0.6525,-0.6507,-0.6213,-0.5653,-0.5713,-0.5271,-0.4416,-0.4403,-0.4183,-0.3789,-0.3476,-0.3387,-0.36,-0.3584,-0.3477,-0.325,-0.2885,-0.2609,-0.2381,0.0,0.0,0.0,0.0,0.0,0.0,0.0,0.0,0.0,0.0,0.0,-0.5271,-0.5136,-0.5243,-0.575,-0.5986,-0.6099,-0.6099,-0.6219,-0.63,-0.63,-0.63,-0.6338,-0.6412,-0.6451,-0.6486,-0.6602,-0.6676,-0.683,-0.7022,-0.7146,-0.7296,-0.7442,-0.7518,-0.7447,-0.7374,-0.7354,-0.7313,-0.7261,-0.7135,-0.709,-0.7106,-0.6859,-0.6696,-0.668,-0.6538,-0.6424,-0.642,-0.642,-0.642,-0.642,-0.642,-0.642,-0.642,-0.642,-0.642,-0.642,-0.642,-0.642,-0.642,-0.642,-0.642,-0.642,-0.642,-0.642,-0.642,-0.642,-0.6407,-0.653,-0.6477,-0.644,-0.755,-0.7414,-0.7456,-0.7322,-0.718,-0.7109,-0.7095,-0.7095,0.0,0.0,0.0,-0.7045,-0.7031,-0.6923,-0.6923,-0.691,-0.6879,-0.6755,-0.6725,-0.6698,-0.666,-0.6591,-0.6485,-0.6447,-0.636,-0.6238,-0.605,-0.5616,-0.5061,-0.4828,-0.4335,-0.366,-0.3582,-0.3495,-0.3361,-0.3071,-0.2864,-0.2704,-0.2567,-0.2628,-0.2872,-0.2272,-0.2068,-0.2248,-0.1741,-0.1411,-0.131,-0.1182,-0.1151,-0.1321,-0.1497,-0.2087,-0.308,-0.2777,-0.3211,-0.4578,-0.4375,-0.4421,-0.5007,-0.5434,-0.5744,-0.5825,-0.606,-0.6257,-0.63,-0.63,-0.63,-0.63,-0.63,-0.63,-0.63,-0.649,-0.6676,-0.6865,-0.7065,-0.7257,-0.7484,-0.7518,-0.748,-0.7518,-0.751,-0.7518,-0.7464,-0.7354,-0.7273,-0.7228,-0.6972,-0.6704,-0.6643,-0.6513,-0.642,-0.642,-0.642,-0.642,-0.642,-0.642,-0.642,-0.642,-0.642,-0.642,-0.642,-0.642,-0.642,-0.642,-0.642,-0.642,-0.642,-0.642,-0.642,-0.642,-0.642,-0.642,-0.642,-0.642,-0.6424,-0.7695,-0.7567,-0.7567,-0.7478,-0.7329,-0.7197,-0.7095,-0.7095,-0.7095,-0.7082,-0.7068,-0.7085,-0.7085,-0.7065,-0.7068,-0.7001,-0.6886,-0.6905,-0.6827,0.0,-0.6453,-0.6095,-0.5681,-0.543,-0.5004,-0.4493,-0.4568,-0.4387,-0.4044,-0.4134,-0.3744,-0.2879,-0.2773,-0.2399,-0.169,-0.1604,-0.1541,-0.1461,-0.215,-0.2234,-0.167,-0.1798,-0.1842,-0.1714,-0.1474,-0.1339,-0.1311,-0.117,-0.1184,-0.1395,-0.1568,-0.1954,-0.2548,-0.2489,-0.2828,-0.3608,-0.3446,-0.3482,-0.3986,-0.4533,-0.5079,-0.5595,-0.5828,-0.6057,-0.6257,-0.63,-0.63,-0.63,-0.63,-0.63,-0.63,-0.6486,-0.6676,-0.6865,-0.7065,-0.7257,-0.748,-0.748,-0.748,-0.7484,-0.7518,-0.7518,-0.7476,-0.7456,-0.7431,-0.7391,-0.7167,-0.6849,-0.6574,-0.6436,-0.642,-0.642,-0.642,-0.642,-0.642,-0.642,-0.642,-0.642,-0.642,-0.642,-0.642,-0.642,-0.642,-0.642,-0.642,-0.642,-0.642,-0.642,-0.642,-0.642,-0.642,-0.6424,-0.6432,-0.6444,-0.644,-0.7773,-0.7706,-0.7631,-0.7512,-0.7405,-0.7159,-0.6828,-0.6394,-0.637,-0.665,-0.7095,-0.7095,-0.7095,-0.7095,-0.7095,-0.7061,-0.7001,-0.6913,-0.662,-0.6165,-0.5904,-0.5453,-0.4883,-0.4713,-0.4493,-0.419,-0.414,-0.3807,-0.3353,-0.3259,-0.2763,-0.2007,-0.1925,-0.1678,-0.1325,-0.1299,-0.1284,-0.1236,-0.1602,-0.1634,-0.1325,-0.145,-0.1476,-0.1406,-0.13,-0.1265,-0.1231,-0.1174,-0.1182,-0.1289,-0.1376,-0.1724,-0.2303,-0.1992,-0.2205,-0.3193,-0.2842,-0.2859,-0.3363,-0.3801,-0.4227,-0.4587,-0.4907,-0.5224,-0.558,-0.6028,-0.63,-0.63,-0.63,-0.63,-0.63,-0.6486,-0.6641,-0.6714,-0.6907,-0.7061,-0.7173,-0.7296,-0.7292,-0.7211,-0.7365,-0.7446,-0.7334,-0.7446,-0.7518,-0.7498,-0.7248,-0.6997,-0.6737,-0.6619,-0.6522,-0.6444,-0.642,-0.642,-0.642,-0.642,-0.642,-0.642,-0.642,-0.642,-0.642,-0.642,-0.642,-0.642,-0.642,-0.642,-0.642,-0.642,-0.642,-0.642,-0.642,-0.6444,-0.6526,-0.6631,-0.6639,-0.7862,-0.7848,-0.761,-0.7326,-0.6994,-0.6879,-0.6352,-0.5509,-0.5431,-0.5843,-0.6421,-0.6456,-0.647,-0.647,-0.647,-0.647,-0.647,-0.6299,-0.5941,-0.5406,-0.5181,-0.4692,-0.4022,-0.3933,-0.3798,-0.3667,-0.3417,-0.3067,-0.2613,-0.2354,-0.1973,-0.1433,-0.1332,-0.1307,-0.1314,-0.1294,-0.1324,-0.1319,-0.1255,-0.1221,-0.1179,-0.1206,-0.1202,-0.1203,-0.1202,-0.1203,-0.1203,-0.1173,-0.1177,-0.1176,-0.122,-0.1459,-0.1942,-0.1489,-0.1693,-0.254,-0.2235,-0.2273,-0.2824,-0.3084,-0.332,-0.362,-0.4002,-0.4369,-0.4778,-0.5535,-0.6103,-0.6261,-0.63,-0.63,-0.63,-0.6486,-0.6602,-0.6602,-0.6788,-0.6903,-0.6903,-0.7022,-0.7065,-0.698,-0.7173,-0.7292,-0.7215,-0.7296,-0.7425,-0.7407,-0.7338,-0.7204,-0.7029,-0.6882,-0.6729,-0.6538,-0.6448,-0.642,-0.642,-0.642,-0.642,-0.642,-0.642,-0.6396,-0.6379,-0.6379,-0.6384,-0.6371,-0.6392,-0.6416,-0.642,-0.642,-0.642,-0.6424,-0.6461,-0.6534,-0.6673,-0.6788,-0.6833,-0.7965,-0.7944,-0.7514,-0.675,-0.5829,-0.599,-0.5474,-0.4592,-0.4536,-0.4534,-0.461,-0.4589,-0.4561,-0.4554,-0.4605,-0.465,-0.465,-0.4559,-0.4516,-0.4429,-0.416,-0.3669,-0.3053,-0.2778,-0.2329,-0.18,-0.1783,-0.1798,-0.1706,-0.1657,-0.1535,-0.1399,-0.1414,-0.1356,-0.131,-0.1306,-0.1304,-0.1298,-0.1295,-0.1253,-0.1211,-0.118,-0.1203,-0.1203,-0.1204,-0.1203,-0.1207,-0.1193,-0.1207,-0.121,-0.1271,-0.1327,-0.1369,-0.1331,-0.1372,-0.1492,-0.1455,-0.1649,-0.2201,-0.2284,-0.258,-0.3117,-0.3379,-0.3752,-0.4152,-0.4748,-0.5476,-0.6077,-0.6268,-0.63,-0.6296,-0.6451,-0.6563,-0.6563,-0.6749,-0.6903,-0.6865,-0.6903,-0.6942,-0.6903,-0.6942,-0.6938,-0.698,-0.7142,-0.724,-0.7246,-0.7387,-0.7334,-0.7122,-0.707,-0.7021,-0.6741,-0.6546,-0.6436,-0.6412,-0.6416,-0.6396,-0.6404,-0.6408,-0.6347,-0.6278,-0.6319,-0.6379,-0.631,-0.6327,-0.6412,-0.642,-0.642,-0.642,-0.6407,-0.6526,-0.6698,-0.671,-0.6767,-0.6759,-0.6531,-0.6074,-0.5931,-0.5554,-0.5074,-0.5011,-0.4494,-0.3622,-0.3585,-0.3257,-0.2797,-0.268,-0.3227,-0.428,-0.4324,-0.4322,-0.4278,-0.4189,-0.3899,-0.3526,-0.325,-0.2741,-0.2092,-0.1953,-0.172,-0.1489,-0.1502,-0.1508,-0.1508,-0.1507,-0.1495,-0.1472,-0.1466,-0.145,-0.1426,-0.1365,-0.1347,-0.1373,-0.1373,-0.1346,-0.1258,-0.124,-0.1265,-0.1249,-0.1247,-0.1277,-0.1262,-0.1271,-0.1277,-0.1239,-0.1289,-0.1297,-0.1297,-0.1297,-0.1305,-0.1323,-0.1301,-0.1392,-0.1678,-0.1712,-0.1853,-0.2085,-0.2396,-0.2902,-0.3626,-0.411,-0.4849,-0.5894,-0.6208,-0.63,-0.6303,-0.6374,-0.6412,-0.6451,-0.649,-0.6563,-0.6525,-0.6676,-0.6676,-0.6602,-0.6753,-0.6865,-0.6791,-0.6988,-0.7191,-0.7243,-0.7375,-0.7399,-0.7318,-0.7248,-0.7159,-0.7033,-0.6855,-0.6629,-0.6396,-0.629,-0.6294,-0.6278,-0.6168,-0.6087,-0.6274,-0.6269,-0.6286,-0.6314,-0.6363,-0.6412,-0.642,-0.642,-0.6424,-0.644,-0.6558,-0.6714,-0.671,-0.6851,-0.6932,-0.5325,-0.4824,-0.4774,-0.4541,-0.4092,-0.4082,-0.3505,-0.266,-0.263,-0.2246,-0.163,-0.156,-0.225,-0.3429,-0.3545,-0.3536,-0.3488,-0.3353,-0.3052,-0.2619,-0.2382,-0.2,-0.1526,-0.1478,-0.1478,-0.148,-0.1534,-0.1538,-0.154,-0.1549,-0.1495,-0.1479,-0.1512,-0.1549,-0.1491,-0.1463,-0.1438,-0.1417,-0.1408,-0.1393,-0.1331,-0.1329,-0.1311,-0.132,-0.1315,-0.1301,-0.1312,-0.1309,-0.1309,-0.131,-0.1309,-0.1313,-0.1322,-0.1322,-0.1292,-0.1313,-0.1293,-0.1306,-0.1306,-0.1374,-0.1386,-0.138,-0.1688,-0.2166,-0.2878,-0.3345,-0.4112,-0.5178,-0.5652,-0.5909,-0.638,-0.6419,-0.6405,-0.6368,-0.6358,-0.6347,-0.6345,-0.6412,-0.6486,-0.6377,-0.6563,-0.6714,-0.6641,-0.6834,-0.7022,-0.7173,-0.733,-0.7446,-0.7472,-0.737,-0.7285,-0.7195,-0.7102,-0.6873,-0.6433,-0.6371,-0.6342,-0.6215,-0.6118,-0.6128,-0.6221,-0.6136,-0.6159,-0.6193,-0.629,-0.6383,-0.6403,-0.6436,-0.6542,-0.6615,-0.6668,-0.6771,-0.6859,-0.707,-0.7127,-0.4824,-0.4724,-0.4774,-0.3972,-0.2922,-0.3114,-0.2665,-0.1762,-0.1661,-0.1612,-0.1562,-0.156,-0.1644,-0.176,-0.1778,-0.1666,-0.1666,-0.1761,-0.1765,-0.1674,-0.1626,-0.1528,-0.1478,-0.1478,-0.148,-0.1536,-0.1558,-0.157,-0.1571,-0.1596,-0.1583,-0.1484,-0.1551,-0.1551,-0.1524,-0.1494,-0.1478,-0.1468,-0.1446,-0.1387,-0.1385,-0.1384,-0.1357,-0.1312,-0.1304,-0.1332,-0.1305,-0.1301,-0.1301,-0.1301,-0.1301,-0.1313,-0.1296,-0.13,-0.1302,-0.1304,-0.1307,-0.1308,-0.1313,-0.1378,-0.1383,-0.1363,-0.1424,-0.1639,-0.2173,-0.2541,-0.3167,-0.3946,-0.4529,-0.5261,-0.6303,-0.6521,-0.6552,-0.6521,-0.6497,-0.6439,-0.633,-0.633,-0.6303,-0.6306,-0.6342,-0.6451,-0.6563,-0.6602,-0.6837,-0.7069,-0.7184,-0.7257,-0.7403,-0.7425,-0.7357,-0.7252,-0.713,-0.705,-0.6745,-0.6612,-0.649,-0.6359,-0.629,-0.625,-0.6071,-0.5931,-0.6038,-0.6132,-0.6262,-0.6371,-0.6411,-0.6529,-0.6741,-0.6802,-0.6729,-0.6794,-0.6895,-0.7119,-0.7192,-0.2871,-0.2267,-0.2418,-0.2219,-0.1767,-0.1716,-0.1615,-0.1566,-0.1212,-0.1162,-0.1263,-0.1162,-0.1107,-0.105,-0.1042,-0.1229,-0.1556,-0.1555,-0.1565,-0.1582,-0.1584,-0.1584,-0.1584,-0.1584,-0.1584,-0.1586,-0.1595,-0.16,-0.1601,-0.1612,-0.1607,-0.1586,-0.1575,-0.1565,-0.1551,-0.1525,-0.1501,-0.1482,-0.147,-0.1455,-0.1393,-0.1391,-0.1379,-0.1361,-0.1384,-0.1361,-0.1333,-0.1332,-0.1332,-0.1332,-0.1332,-0.1295,-0.1306,-0.1323,-0.1374,-0.1377,-0.1349,-0.136,-0.1361,-0.1413,-0.1371,-0.1362,-0.1368,-0.1592,-0.2022,-0.228,-0.2715,-0.3542,-0.411,-0.4809,-0.5472,-0.5969,-0.6347,-0.6579,-0.6536,-0.6542,-0.6552,-0.6497,-0.6433,-0.6422,-0.6364,-0.6338,-0.6423,-0.6525,-0.6641,-0.6795,-0.6907,-0.7022,-0.7096,-0.7134,-0.7107,-0.7064,-0.7121,-0.7122,-0.6856,-0.6736,-0.6627,-0.6501,-0.642,-0.6404,-0.6286,-0.6128,-0.6156,-0.6225,-0.6318,-0.6383,-0.6428,-0.644,-0.6658,-0.6745,-0.6688,-0.6814,-0.6819,-0.7131,-0.7228,-0.1514,-0.101,-0.101,-0.1061,-0.1061,-0.0859,-0.101,-0.1313,-0.096,-0.0909,-0.101,-0.0859,-0.0808,-0.0808,-0.0808,-0.1004,-0.1339,-0.1338,-0.1397,-0.1464,-0.1364,-0.1364,-0.1465,-0.1364,-0.1364,-0.1364,-0.1415,-0.1516,-0.1566,-0.1566,-0.1566,-0.1564,-0.1596,-0.1586,-0.1581,-0.1556,-0.153,-0.1559,-0.1501,-0.148,-0.1454,-0.145,-0.1444,-0.1389,-0.1415,-0.1391,-0.1321,-0.1319,-0.1319,-0.1319,-0.1319,-0.1323,-0.1333,-0.135,-0.1404,-0.1407,-0.1423,-0.1391,-0.1391,-0.1391,-0.1391,-0.139,-0.1391,-0.157,-0.1885,-0.193,-0.2377,-0.3001,-0.3582,-0.4074,-0.4718,-0.5315,-0.5893,-0.6399,-0.6599,-0.6637,-0.6685,-0.6607,-0.6552,-0.6536,-0.6478,-0.6439,-0.6378,-0.6489,-0.6578,-0.6574,-0.671,-0.6826,-0.6865,-0.6903,-0.6903,-0.6903,-0.7011,-0.7004,-0.6889,-0.6834,-0.6733,-0.6615,-0.6523,-0.6533,-0.6444,-0.6298,-0.6234,-0.6302,-0.6355,-0.6407,-0.6423,-0.6411,-0.6476,-0.6569,-0.6749,-0.6935,-0.7017,-0.7175,-0.7236,-0.096,-0.1061,-0.0909,-0.0808,-0.0808,-0.0758,-0.0758,-0.0859,-0.0808,-0.0758,-0.0808,-0.0758,-0.0707,-0.0758,-0.0707,-0.0757,-0.0806,-0.0806,-0.0958,-0.1162,-0.096,-0.096,-0.1162,-0.096,-0.0909,-0.0859,-0.1061,-0.1364,-0.1516,-0.1566,-0.1566,-0.1566,-0.1564,-0.156,-0.1564,-0.1536,-0.157,-0.1511,-0.1442,-0.1463,-0.1484,-0.1431,-0.1417,-0.1394,-0.1388,-0.1419,-0.1391,-0.1391,-0.1391,-0.1391,-0.139,-0.1404,-0.1379,-0.1386,-0.1389,-0.1387,-0.139,-0.1391,-0.1391,-0.1391,-0.1391,-0.1391,-0.1391,-0.1436,-0.148,-0.148,-0.1705,-0.2198,-0.2689,-0.3269,-0.4074,-0.4636,-0.5295,-0.6045,-0.6465,-0.6619,-0.6679,-0.6712,-0.6702,-0.6695,-0.6668,-0.6627,-0.6522,-0.6515,-0.655,-0.6592,-0.6631,-0.6659,-0.6756,-0.6791,-0.6865,-0.6865,-0.6865,-0.6839,-0.6884,-0.6904,-0.6805,-0.6734,-0.6658,-0.6594,-0.6421,-0.6254,-0.6195,-0.6226,-0.626,-0.6308,-0.6422,-0.6431,-0.6601,-0.6706,-0.6879,-0.6993,-0.7078,-0.7214,-0.7345,-0.0455,-0.0404,-0.0505,-0.0505,-0.0505,-0.0303,-0.0455,-0.0758,-0.0455,-0.0353,-0.0455,-0.0353,-0.0252,0.0,-0.0252,0.0,-0.0252,-0.0252,-0.0505,-0.0808,-0.0808,-0.0859,-0.0909,-0.0859,-0.0808,-0.0808,-0.0859,-0.1061,-0.1263,-0.1313,-0.1414,-0.1566,-0.1566,-0.1516,-0.1313,-0.1305,-0.1245,-0.1081,-0.1025,-0.1006,-0.0975,-0.1157,-0.1237,-0.1214,-0.1301,-0.1385,-0.1422,-0.1421,-0.1421,-0.1421,-0.1421,-0.1425,-0.1389,-0.1391,-0.1391,-0.1391,-0.1391,-0.1391,-0.1391,-0.1391,-0.1391,-0.1391,-0.1391,-0.1391,-0.1391,-0.1391,-0.148,-0.1705,-0.2108,-0.2601,-0.2914,-0.3582,-0.4499,-0.5711,-0.5904,-0.6137,-0.6492,-0.6695,-0.6822,-0.6802,-0.6766,-0.6685,-0.6647,-0.663,-0.661,-0.6553,-0.6558,-0.657,-0.6521,-0.6535,-0.649,-0.6486,-0.6563,-0.6676,-0.6676,-0.6753,-0.6727,-0.6683,-0.6668,-0.6619,-0.6433,-0.6253,-0.6158,-0.6126,-0.6158,-0.6209,-0.6322,-0.6431,-0.6585,-0.6693,-0.6738,-0.6897,-0.7058,-0.7219,-0.7337,-0.0202,-0.0151,-0.0202,-0.0252,-0.0252,-0.005,-0.0151,-0.0404,-0.0151,-0.0101,-0.0202,-0.0101,0.0,0.0,0.0,0.0,0.0,0.0,-0.0151,-0.0455,-0.0505,-0.0556,-0.0606,-0.0556,-0.0556,-0.0606,-0.0657,-0.0808,-0.1061,-0.1061,-0.1111,-0.1263,-0.1313,-0.1212,-0.1061,-0.106,-0.0953,-0.0795,-0.0794,-0.0782,-0.081,-0.0899,-0.098,-0.1003,-0.118,-0.1265,-0.1303,-0.1346,-0.1391,-0.1391,-0.1391,-0.1391,-0.1391,-0.1391,-0.1391,-0.1391,-0.1391,-0.1391,-0.1391,-0.1391,-0.1391,-0.1391,-0.1391,-0.1391,-0.1391,-0.1391,-0.1391,-0.148,-0.1885,-0.22,-0.2333,-0.2868,-0.3758,-0.4514,-0.5088,-0.5602,-0.6272,-0.6755,-0.6927,-0.6943,-0.6886,-0.6851,-0.68,-0.6783,-0.6722,-0.6593,-0.6549,-0.6497,-0.6392,-0.6373,-0.6317,-0.6342,-0.6412,-0.649,-0.6486,-0.6563,-0.6637,-0.6616,-0.66,-0.6589,-0.6513,-0.627,-0.6097,-0.6025,-0.6037,-0.6056,-0.6179,-0.6225,-0.6344,-0.6445,-0.6631,-0.6882,-0.7116,-0.7263,-0.7407,-0.0151,-0.0353,-0.0101,0.0,0.0,0.0,0.0,0.0,0.0,0.0,0.0,0.0,0.0,0.0,0.0,0.0,0.0,0.0,0.0,0.0,0.0,-0.0202,-0.0353,-0.0151,-0.0202,-0.0353,-0.0353,-0.0505,-0.0758,-0.0808,-0.0808,-0.0859,-0.0859,-0.0808,-0.0808,-0.0808,-0.0757,-0.0705,-0.0706,-0.0698,-0.0685,-0.0734,-0.0722,-0.0696,-0.0926,-0.1102,-0.1175,-0.1303,-0.1391,-0.1391,-0.1391,-0.1391,-0.1391,-0.1391,-0.1391,-0.1391,-0.1391,-0.1391,-0.1391,-0.1391,-0.1391,-0.1391,-0.1391,-0.1391,-0.1391,-0.1391,-0.1391,-0.1436,-0.1795,-0.2109,-0.2154,-0.2466,-0.2823,-0.3045,-0.4152,-0.522,-0.6115,-0.6602,-0.6851,-0.6946,-0.7041,-0.7001,-0.6867,-0.69,-0.6822,-0.6739,-0.661,-0.6549,-0.648,-0.6405,-0.6327,-0.6345,-0.6342,-0.6338,-0.6374,-0.6412,-0.6486,-0.65,-0.6478,-0.6511,-0.648,-0.6255,-0.6058,-0.5958,-0.5953,-0.5965,-0.6022,-0.612,-0.6237,-0.6397,-0.6647,-0.6933,-0.7087,-0.7149,-0.7253,-0.005,-0.0101,-0.005,0.0,0.0,0.0,0.0,0.0,0.0,0.0,0.0,0.0,0.0,0.0,0.0,0.0,0.0,0.0,0.0,0.0,0.0,0.0,-0.0101,0.0,0.0,0.0,0.0,-0.0252,-0.0505,-0.0505,-0.0606,-0.0808,-0.0758,-0.0657,-0.0556,-0.0505,-0.0404,-0.0252,0.0,0.0,-0.0246,-0.0442,-0.0485,-0.0522,-0.0709,-0.089,-0.1102,-0.1311,-0.1391,-0.1391,-0.1391,-0.1391,-0.1391,-0.1391,-0.1391,-0.1393,-0.1392,-0.1392,-0.1393,-0.1393,-0.1392,-0.1391,-0.1396,-0.1391,-0.1391,-0.1391,-0.1391,-0.1436,-0.157,-0.1615,-0.1615,-0.1749,-0.1973,-0.2466,-0.3583,-0.452,-0.4964,-0.5586,-0.6207,-0.6517,-0.6561,-0.6716,-0.6913,-0.7018,-0.6974,-0.6856,-0.6807,-0.6715,-0.6576,-0.6484,-0.6412,-0.6327,-0.6303,-0.63,-0.6296,-0.6296,-0.6335,-0.6335,-0.6353,-0.6342,-0.6311,-0.6184,-0.5995,-0.5861,-0.5983,-0.6018,-0.6034,-0.6066,-0.6199,-0.6338,-0.6463,-0.667,-0.6725,-0.6791,-0.6945,0.0,0.0,0.0,0.0,0.0,0.0,0.0,0.0,0.0,0.0,0.0,0.0,0.0,0.0,0.0,0.0,0.0,0.0,0.0,0.0,0.0,0.0,0.0,0.0,0.0,0.0,0.0,0.0,-0.0202,-0.0252,-0.0303,-0.0404,-0.0455,-0.0404,-0.0252,-0.0202,0.0,0.0,0.0,0.0,0.0,-0.0149,-0.0246,-0.0291,-0.0434,-0.0716,-0.1067,-0.1234,-0.1314,-0.1395,-0.1391,-0.1391,-0.1391,-0.1391,-0.1395,-0.1406,-0.1455,-0.1459,-0.1425,-0.1427,-0.1421,-0.1416,-0.1464,-0.142,-0.1459,-0.1454,-0.1454,-0.1456,-0.1399,-0.1392,-0.1391,-0.1391,-0.1525,-0.193,-0.2778,-0.354,-0.3939,-0.4875,-0.5453,-0.5808,-0.6163,-0.6473,-0.6782,-0.6962,-0.7011,-0.6984,-0.69,-0.6795,-0.6715,-0.658,-0.6501,-0.6429,-0.6344,-0.633,-0.632,-0.6317,-0.6306,-0.6303,-0.63,-0.63,-0.623,-0.6166,-0.6067,-0.5989,-0.6035,-0.6059,-0.6015,-0.6026,-0.6092,-0.6187,-0.6309,-0.6424,-0.6521,-0.6602,-0.6718,0.0,0.0,0.0,0.0,0.0,0.0,0.0,0.0,0.0,0.0,0.0,0.0,0.0,0.0,0.0,0.0,0.0,0.0,0.0,0.0,0.0,0.0,0.0,0.0,0.0,0.0,0.0,0.0,0.0,0.0,0.0,0.0,0.0,0.0,0.0,0.0,0.0,0.0,0.0,0.0,0.0,0.0,0.0,-0.0099,-0.0294,-0.0579,-0.0895,-0.1069,-0.1199,-0.1357,-0.1395,-0.1393,-0.1394,-0.1396,-0.1457,-0.1479,-0.1486,-0.1496,-0.1517,-0.1469,-0.1512,-0.1493,-0.1509,-0.1515,-0.1491,-0.1485,-0.1485,-0.1485,-0.146,-0.141,-0.1408,-0.1404,-0.1453,-0.1592,-0.1994,-0.2529,-0.3286,-0.4216,-0.483,-0.4966,-0.5719,-0.6074,-0.6428,-0.6694,-0.7,-0.6832,-0.6853,-0.6903,-0.6841,-0.6725,-0.6614,-0.6559,-0.6467,-0.6368,-0.6354,-0.6337,-0.6323,-0.631,-0.6303,-0.63,-0.63,-0.6213,-0.6169,-0.6153,-0.6153,-0.6064,-0.5954,-0.5948,-0.605,-0.6122,-0.6249,-0.6409,-0.6567,-0.6567,-0.6641,0.0,0.0,0.0,0.0,0.0,0.0,0.0,0.0,0.0,0.0,0.0,0.0,0.0,0.0,0.0,0.0,0.0,0.0,0.0,0.0,0.0,0.0,0.0,0.0,0.0,0.0,0.0,0.0,0.0,0.0,0.0,0.0,0.0,0.0,0.0,0.0,0.0,0.0,0.0,0.0,0.0,0.0,0.0,0.0,-0.0248,-0.0441,-0.0582,-0.0907,-0.1088,-0.117,-0.1329,-0.1451,-0.1466,-0.1471,-0.1486,-0.1508,-0.1516,-0.1473,-0.1478,-0.1531,-0.1477,-0.152,-0.1526,-0.1477,-0.1472,-0.1517,-0.1517,-0.1515,-0.151,-0.1454,-0.1453,-0.1505,-0.1454,-0.1498,-0.1594,-0.1783,-0.2059,-0.2835,-0.3649,-0.4259,-0.4616,-0.501,-0.5719,-0.6163,-0.6428,-0.6558,-0.6744,-0.6954,-0.691,-0.6815,-0.6759,-0.6654,-0.6613,-0.6525,-0.6474,-0.6439,-0.6388,-0.6347,-0.632,-0.63,-0.63,-0.6296,-0.6252,-0.6248,-0.6262,-0.6156,-0.5996,-0.6061,-0.6201,-0.6197,-0.6187,-0.6325,-0.6451,-0.649,-0.6599,0.0,0.0,0.0,0.0,0.0,0.0,0.0,0.0,0.0,0.0,0.0,0.0,0.0,0.0,0.0,0.0,0.0,0.0,0.0,0.0,0.0,0.0,0.0,0.0,0.0,0.0,0.0,0.0,0.0,0.0,0.0,0.0,0.0,0.0,0.0,0.0,0.0,0.0,0.0,0.0,0.0,0.0,0.0,0.0,-0.015,-0.0248,-0.0441,-0.073,-0.1011,-0.1142,-0.1309,-0.1438,-0.1498,-0.1503,-0.1517,-0.154,-0.1547,-0.1556,-0.1563,-0.1568,-0.1564,-0.1549,-0.1559,-0.1557,-0.1552,-0.1548,-0.1547,-0.1544,-0.1535,-0.1478,-0.1478,-0.1478,-0.1478,-0.1478,-0.1479,-0.1479,-0.1616,-0.215,-0.2709,-0.3331,-0.373,-0.4107,-0.4672,-0.524,-0.5716,-0.5847,-0.616,-0.638,-0.7011,-0.692,-0.6846,-0.68,-0.6725,-0.6647,-0.6583,-0.6515,-0.647,-0.6412,-0.6351,-0.632,-0.63,-0.63,-0.6293,-0.6293,-0.6289,-0.6279,-0.6159,-0.6279,-0.6289,-0.6265,-0.6255,-0.6286,-0.632,-0.6439,-0.6599,0.0,0.0,0.0,0.0,0.0,0.0,0.0,0.0,0.0,0.0,0.0,0.0,0.0,0.0,0.0,0.0,0.0,0.0,0.0,0.0,0.0,0.0,0.0,0.0,0.0,0.0,0.0,0.0,0.0,0.0,0.0,0.0,0.0,0.0,0.0,0.0,0.0,0.0,0.0,0.0,0.0,0.0,0.0,0.0,0.0,0.0,-0.0298,-0.0592,-0.0784,-0.0963,-0.1299,-0.1444,-0.1442,-0.1536,-0.1547,-0.1575,-0.1579,-0.1587,-0.16,-0.1609,-0.16,-0.1581,-0.1599,-0.1602,-0.1584,-0.1579,-0.1579,-0.1572,-0.1562,-0.15,-0.1492,-0.15,-0.1547,-0.1496,-0.1494,-0.1492,-0.1588,-0.1876,-0.2146,-0.2379,-0.2906,-0.338,-0.3709,-0.4179,-0.4703,-0.5184,-0.5497,-0.5888,-0.6527,-0.7024,-0.6953,-0.6923,-0.6862,-0.682,-0.6749,-0.663,-0.6546,-0.6542,-0.6457,-0.6422,-0.6381,-0.6375,-0.6381,-0.631,-0.6293,-0.6282,-0.6279,-0.6289,-0.6296,-0.6296,-0.63,-0.63,-0.6351,-0.6426,-0.6553,0.0,0.0,0.0,0.0,0.0,0.0,0.0,0.0,0.0,0.0,0.0,0.0,0.0,0.0,0.0,0.0,0.0,0.0,0.0,0.0,0.0,0.0,0.0,0.0,0.0,0.0,0.0,0.0,0.0,0.0,0.0,0.0,0.0,0.0,0.0,0.0,0.0,0.0,0.0,0.0,0.0,0.0,0.0,0.0,0.0,0.0,0.0,-0.0352,-0.0502,-0.055,-0.1,-0.1199,-0.1293,-0.1427,-0.1531,-0.1598,-0.1605,-0.1609,-0.1565,-0.1566,-0.1564,-0.1611,-0.1564,-0.1566,-0.1609,-0.1607,-0.1603,-0.1604,-0.1601,-0.1548,-0.1602,-0.1593,-0.1548,-0.155,-0.1545,-0.1545,-0.1596,-0.169,-0.187,-0.2108,-0.2399,-0.2592,-0.2896,-0.319,-0.3671,-0.4338,-0.4954,-0.5426,-0.6018,-0.6631,-0.7055,-0.7048,-0.7055,-0.6964,-0.6873,-0.6776,-0.6671,-0.6664,-0.6614,-0.6627,-0.6542,-0.6481,-0.6437,-0.6393,-0.6347,-0.6293,-0.6293,-0.63,-0.632,-0.634,-0.6323,-0.6306,-0.6419,-0.6528,-0.6559,0.0,0.0,0.0,0.0,0.0,0.0,0.0,0.0,0.0,0.0,0.0,0.0,0.0,0.0,0.0,0.0,0.0,0.0,0.0,0.0,0.0,0.0,0.0,0.0,0.0,0.0,0.0,0.0,0.0,0.0,0.0,0.0,0.0,0.0,0.0,0.0,0.0,0.0,0.0,0.0,0.0,0.0,0.0,0.0,0.0,0.0,0.0,-0.0252,-0.0404,-0.0454,-0.0757,-0.096,-0.1058,-0.1205,-0.145,-0.1563,-0.1566,-0.1566,-0.1566,-0.1566,-0.1566,-0.1566,-0.1566,-0.1566,-0.1566,-0.1565,-0.1566,-0.1566,-0.1566,-0.1566,-0.1564,-0.1566,-0.1566,-0.1566,-0.1566,-0.1566,-0.1566,-0.1566,-0.1746,-0.1864,-0.1987,-0.2053,-0.2069,-0.2376,-0.2718,-0.343,-0.4318,-0.4916,-0.5419,-0.6118,-0.6694,-0.6962,-0.6959,-0.7055,-0.697,-0.6869,-0.6775,-0.6807,-0.6787,-0.6763,-0.6712,-0.6641,-0.6593,-0.6552,-0.6451,-0.6364,-0.631,-0.6317,-0.6347,-0.6395,-0.6416,-0.6453,-0.6508,-0.6583,-0.663,0.0,0.0,0.0,0.0,0.0,0.0,0.0,0.0,0.0,0.0,0.0,0.0,0.0,0.0,0.0,0.0,0.0,0.0,0.0,0.0,0.0,0.0,0.0,0.0,0.0,0.0,0.0,0.0,0.0,0.0,0.0,0.0,0.0,0.0,0.0,0.0,0.0,0.0,0.0,0.0,0.0,0.0,0.0,0.0,0.0,0.0,0.0,-0.0151,-0.0252,-0.0353,-0.0556,-0.0707,-0.0758,-0.096,-0.1212,-0.1414,-0.1516,-0.1566,-0.1566,-0.1566,-0.1566,-0.1566,-0.1566,-0.1566,-0.1566,-0.1566,-0.1566,-0.1566,-0.1566,-0.1566,-0.1566,-0.1566,-0.1566,-0.1566,-0.1566,-0.1566,-0.1566,-0.1566,-0.1566,-0.1649,-0.159,-0.1618,-0.1734,-0.175,-0.2149,-0.2535,-0.3388,-0.3895,-0.4495,-0.5408,-0.6071,-0.6561,-0.683,-0.7051,-0.7048,-0.6997,-0.6933,-0.692,-0.6889,-0.6859,-0.6805,-0.6741,-0.6704,-0.6667,-0.6559,-0.648,-0.6409,-0.6392,-0.6484,-0.6549,-0.6515,-0.6546,-0.661,-0.6715,-0.6803,0.0,0.0,0.0,0.0,0.0,0.0,0.0,0.0,0.0,0.0,0.0,0.0,0.0,0.0,0.0,0.0,0.0,0.0,0.0,0.0,0.0,0.0,0.0,0.0,0.0,0.0,0.0,0.0,0.0,0.0,0.0,0.0,0.0,0.0,0.0,0.0,0.0,0.0,0.0,0.0,0.0,0.0,0.0,0.0,0.0,0.0,0.0,0.0,0.0,-0.0101,-0.0303,-0.0455,-0.0505,-0.0707,-0.0808,-0.101,-0.1263,-0.1566,-0.1566,-0.1566,-0.1566,-0.1566,-0.1566,-0.1566,-0.1566,-0.1566,-0.1566,-0.1566,-0.1566,-0.1566,-0.1566,-0.1566,-0.1566,-0.1566,-0.1566,-0.1566,-0.1566,-0.1566,-0.1566,-0.1566,-0.1603,-0.159,-0.1619,-0.1589,-0.1609,-0.1962,-0.2398,-0.2971,-0.3714,-0.4786,-0.5494,-0.6027,-0.6609,-0.683,-0.6915,-0.6869,-0.691,-0.691,-0.6883,-0.685,-0.6764,-0.6672,-0.6738,-0.6717,-0.6622,-0.6647,-0.6644,-0.6647,-0.6661,-0.6664,-0.6671,-0.6675,-0.6685,-0.681,-0.691,0.0,0.0,0.0,0.0,0.0,0.0,0.0,0.0,0.0,0.0,0.0,0.0,0.0,0.0,0.0,0.0,0.0,0.0,0.0,0.0,0.0,0.0,0.0,0.0,0.0,0.0,0.0,0.0,0.0,0.0,0.0,0.0,0.0,0.0,0.0,0.0,0.0,0.0,0.0,0.0,0.0,0.0,0.0,0.0,0.0,0.0,0.0,0.0,0.0,0.0,-0.0151,-0.0151,-0.0252,-0.0404,-0.0556,-0.0606,-0.0909,-0.1212,-0.1364,-0.1516,-0.1566,-0.1566,-0.1566,-0.1566,-0.1566,-0.1566,-0.1566,-0.1566,-0.1566,-0.1566,-0.1566,-0.1566,-0.1566,-0.1566,-0.1566,-0.1566,-0.1566,-0.1566,-0.1566,-0.1566,-0.1565,-0.1603,-0.1594,-0.1581,-0.1555,-0.1774,-0.2233,-0.2785,-0.3585,-0.4555,-0.5129,-0.5539,-0.6118,-0.6609,-0.6609,-0.659,-0.6643,-0.6643,-0.664,-0.6615,-0.6621,-0.6596,-0.6642,-0.6773,-0.6847,-0.6853,-0.6889,-0.6837,-0.6753,-0.6783,-0.6788,-0.6844,-0.6865,-0.6946,-0.7018,0.0,0.0,0.0,0.0,0.0,0.0,0.0,0.0,0.0,0.0,0.0,0.0,0.0,0.0,0.0,0.0,0.0,0.0,0.0,0.0,0.0,0.0,0.0,0.0,0.0,0.0,0.0,0.0,0.0,0.0,0.0,0.0,0.0,0.0,0.0,0.0,0.0,0.0,0.0,0.0,0.0,0.0,0.0,0.0,0.0,0.0,0.0,0.0,0.0,0.0,0.0,0.0,0.0,-0.0202,-0.0303,-0.0353,-0.0606,-0.0808,-0.101,-0.1263,-0.1465,-0.1566,-0.1566,-0.1566,-0.1566,-0.1566,-0.1566,-0.1566,-0.1566,-0.1566,-0.1566,-0.1566,-0.1566,-0.1566,-0.1566,-0.1566,-0.1566,-0.1566,-0.1566,-0.1566,-0.1566,-0.1566,-0.1611,-0.1563,-0.1598,-0.1674,-0.2052,-0.2574,-0.3251,-0.4034,-0.4547,-0.4888,-0.5617,-0.6213,-0.6524,-0.6503,-0.6478,-0.6308,-0.6257,-0.632,-0.6314,-0.6435,-0.6536,-0.6732,-0.6815,-0.6869,-0.6741,-0.6764,-0.6795,-0.6873,-0.6943,-0.6984,-0.7028,-0.7092,-0.7136,0.0,0.0,0.0,0.0,0.0,0.0,0.0,0.0,0.0,0.0,0.0,0.0,0.0,0.0,0.0,0.0,0.0,0.0,0.0,0.0,0.0,0.0,0.0,0.0,0.0,0.0,0.0,0.0,0.0,0.0,0.0,0.0,0.0,0.0,0.0,0.0,0.0,0.0,0.0,0.0,0.0,0.0,0.0,0.0,0.0,0.0,0.0,0.0,0.0,0.0,0.0,0.0,0.0,0.0,0.0,0.0,0.0,-0.0455,-0.0657,-0.096,-0.1313,-0.1516,-0.1566,-0.1566,-0.1566,-0.1566,-0.1566,-0.1566,-0.1566,-0.1566,-0.1566,-0.1566,-0.1566,-0.1566,-0.1566,-0.1566,-0.1566,-0.1566,-0.1566,-0.1566,-0.1566,-0.1566,-0.1566,-0.1566,-0.1612,-0.1639,-0.1632,-0.2115,-0.2276,-0.2905,-0.3559,-0.4146,-0.4993,-0.5701,-0.6415,-0.6333,-0.5801,-0.5672,-0.5656,-0.582,-0.5983,-0.6112,-0.5938,-0.6239,-0.6274,-0.6448,-0.6657,-0.6722,-0.682,-0.7031,-0.7109,-0.7039,-0.7052,-0.712,-0.7215,0.0,0.0,0.0,0.0,0.0,0.0,0.0,0.0,0.0,0.0,0.0,0.0,0.0,0.0,0.0,0.0,0.0,0.0,0.0,0.0,0.0,0.0,0.0,0.0,0.0,0.0,0.0,0.0,0.0,0.0,0.0,0.0,0.0,0.0,0.0,0.0,0.0,0.0,0.0,0.0,0.0,0.0,0.0,0.0,0.0,0.0,0.0,0.0,0.0,0.0,0.0,0.0,0.0,0.0,0.0,0.0,0.0,-0.0253,-0.0405,-0.0759,-0.1061,-0.1313,-0.1465,-0.1568,-0.1519,-0.1568,-0.1566,-0.1566,-0.1568,-0.1621,-0.1618,-0.1618,-0.1566,-0.1566,-0.1566,-0.1566,-0.1566,-0.1566,-0.1566,-0.1566,-0.1566,-0.1566,-0.1566,-0.1566,-0.1611,-0.1603,-0.1598,-0.164,-0.1813,-0.2085,-0.2804,-0.337,-0.4183,-0.4602,-0.5272,-0.5149,-0.4933,-0.5002,-0.5024,-0.515,-0.5233,-0.4873,-0.4807,-0.5242,-0.5688,-0.5789,-0.6043,-0.6574,-0.6811,-0.6907,-0.6972,-0.6977,-0.706,-0.7109,-0.725,0.0,0.0,0.0,0.0,0.0,0.0,0.0,0.0,0.0,0.0,0.0,0.0,0.0,0.0,0.0,0.0,0.0,0.0,0.0,0.0,0.0,0.0,0.0,0.0,0.0,0.0,0.0,0.0,0.0,0.0,0.0,0.0,0.0,0.0,0.0,0.0,0.0,0.0,0.0,0.0,0.0,0.0,0.0,0.0,0.0,0.0,0.0,0.0,0.0,0.0,0.0,0.0,0.0,0.0,0.0,0.0,0.0,0.0,0.0,-0.0609,-0.086,-0.1061,-0.1222,-0.1274,-0.1376,-0.1432,-0.1497,-0.1493,-0.1538,-0.163,-0.1629,-0.1626,-0.1568,-0.1566,-0.1566,-0.1566,-0.1566,-0.1566,-0.1566,-0.1566,-0.1566,-0.1566,-0.1566,-0.1566,-0.1564,-0.161,-0.1608,-0.1604,-0.1645,-0.1928,-0.2317,-0.2846,-0.3275,-0.3603,-0.3831,-0.4134,-0.4382,-0.438,-0.4403,-0.4314,-0.4248,-0.3906,-0.3905,-0.4426,-0.4808,-0.5011,-0.5181,-0.5379,-0.6066,-0.6738,-0.6741,-0.6679,-0.6929,-0.6991,-0.7198,0.0,0.0,0.0,0.0,0.0,0.0,0.0,0.0,0.0,0.0,0.0,0.0,0.0,0.0,0.0,0.0,0.0,0.0,0.0,0.0,0.0,0.0,0.0,0.0,0.0,0.0,0.0,0.0,0.0,0.0,0.0,0.0,0.0,0.0,0.0,0.0,0.0,0.0,0.0,0.0,0.0,0.0,0.0,0.0,0.0,0.0,0.0,0.0,0.0,0.0,0.0,0.0,0.0,0.0,0.0,0.0,0.0,0.0,0.0,0.0,-0.0713,-0.0816,-0.0929,-0.0934,-0.0938,-0.1103,-0.1269,-0.126,-0.1464,-0.1609,-0.1651,-0.1638,-0.1628,-0.1566,-0.1566,-0.1566,-0.1566,-0.1566,-0.1566,-0.1566,-0.1566,-0.1566,-0.1566,-0.1566,-0.1566,-0.1565,-0.1566,-0.1614,-0.1609,-0.1756,-0.2048,-0.2242,-0.2627,-0.2776,-0.312,-0.3545,-0.3793,-0.3797,-0.3709,-0.3485,-0.3465,-0.3327,-0.3459,-0.372,-0.39,-0.4103,-0.409,-0.4069,-0.4959,-0.5779,-0.6252,-0.637,-0.6629,-0.6647,-0.6573,0.0,0.0,0.0,0.0,0.0,0.0,0.0,0.0,0.0,0.0,0.0,0.0,0.0,0.0,0.0,0.0,0.0,0.0,0.0,0.0,0.0,0.0,0.0,0.0,0.0,0.0,0.0,0.0,0.0,0.0,0.0,0.0,0.0,0.0,0.0,0.0,0.0,0.0,0.0,0.0,0.0,0.0,0.0,0.0,0.0,0.0,0.0,0.0,0.0,0.0,0.0,0.0,0.0,0.0,0.0,0.0,0.0,0.0,0.0,-0.021,-0.0367,-0.0525,-0.0684,-0.074,-0.0847,-0.0903,-0.0959,-0.1014,-0.1276,-0.1369,-0.1351,-0.1604,-0.1644,-0.1571,-0.1566,-0.1566,-0.1566,-0.1566,-0.1566,-0.1566,-0.1566,-0.1566,-0.1566,-0.1566,-0.1566,-0.1566,-0.1566,-0.1566,-0.1613,-0.1613,-0.1761,-0.1762,-0.196,-0.2116,-0.2373,-0.2775,-0.2825,-0.2697,-0.2584,-0.2477,-0.2465,-0.2695,-0.2786,-0.2923,-0.306,-0.3149,-0.3253,-0.3404,-0.4052,-0.4716,-0.4914,-0.5238,-0.544,-0.5361,-0.5205,0.0,0.0,0.0,0.0,0.0,0.0,0.0,0.0,0.0,0.0,0.0,0.0,0.0,0.0,0.0,0.0,0.0,0.0,0.0,0.0,0.0,0.0,0.0,0.0,0.0,0.0,0.0,0.0,0.0,0.0,0.0,0.0,0.0,0.0,0.0,0.0,0.0,0.0,0.0,0.0,0.0,0.0,0.0,0.0,0.0,0.0,0.0,0.0,0.0,0.0,0.0,0.0,0.0,0.0,0.0,0.0,0.0,0.0,0.0,0.0,0.0,-0.0272,0.0,-0.0485,-0.0539,-0.0597,-0.0653,-0.0761,-0.0972,-0.107,-0.1165,-0.1424,-0.1502,-0.1431,-0.1523,-0.1524,-0.1569,-0.1569,-0.1568,-0.1568,-0.1566,-0.1566,-0.1566,-0.1566,-0.1566,-0.1566,-0.1566,-0.1568,-0.1569,-0.1618,-0.1566,-0.1617,-0.1617,-0.1819,-0.1869,-0.1869,-0.1869,-0.1617,-0.1712,-0.1856,-0.1854,-0.209,-0.209,-0.2139,-0.2301,-0.2412,-0.2518,-0.2772,-0.3116,-0.3217,-0.316,-0.3559,-0.4079,-0.4178,-0.4176,0.0,0.0,0.0,0.0,0.0,0.0,0.0,0.0,0.0,0.0,0.0,0.0,0.0,0.0,0.0,0.0,0.0,0.0,0.0,0.0,0.0,0.0,0.0,0.0,0.0,0.0,0.0,0.0,0.0,0.0,0.0,0.0,0.0,0.0,0.0,0.0,0.0,0.0,0.0,0.0,0.0,0.0,0.0,0.0,0.0,0.0,0.0,0.0,0.0,0.0,0.0,0.0,0.0,0.0,0.0,0.0,0.0,0.0,0.0,0.0,0.0,0.0,0.0,0.0,-0.011,-0.0276,-0.0332,-0.0498,-0.0661,-0.0767,-0.0925,-0.1067,-0.1203,-0.1295,-0.1386,-0.1431,-0.1474,-0.1471,-0.152,-0.1569,-0.1567,-0.1566,-0.1566,-0.1566,-0.1625,-0.163,-0.1634,-0.1639,-0.1637,-0.1619,-0.1618,-0.1566,-0.1617,-0.1617,-0.1566,-0.1618,-0.1566,-0.1566,-0.1566,-0.1663,-0.1664,-0.1664,-0.1759,-0.1807,-0.1662,-0.1768,-0.1969,-0.1969,-0.1868,-0.1919,-0.2171,-0.2473,-0.3176,-0.3428,-0.3478,0.0,0.0,0.0,0.0,0.0,0.0,0.0,0.0,0.0,0.0,0.0,0.0,0.0,0.0,0.0,0.0,0.0,0.0,0.0,0.0,0.0,0.0,0.0,0.0,0.0,0.0,0.0,0.0,0.0,0.0,0.0,0.0,0.0,0.0,0.0,0.0,0.0,0.0,0.0,0.0,0.0,0.0,0.0,0.0,0.0,0.0,0.0,0.0,0.0,0.0,0.0,0.0,0.0,0.0,0.0,0.0,0.0,0.0,0.0,0.0,0.0,0.0,0.0,0.0,0.0,0.0,0.0,0.0,0.0,-0.0499,-0.0605,-0.0757,-0.0906,-0.1003,-0.1099,-0.1144,-0.1189,-0.1288,-0.1285,-0.1329,-0.1378,-0.1531,-0.1529,-0.1578,-0.1637,-0.1645,-0.1652,-0.1659,-0.1658,-0.1642,-0.1634,-0.1633,-0.1581,-0.1585,-0.1624,-0.1622,-0.1619,-0.1566,-0.1567,-0.1567,-0.1616,-0.1615,-0.1616,-0.1566,-0.1566,-0.1566,-0.1617,-0.1566,-0.1566,-0.1566,-0.1818,-0.1969,-0.2171,-0.2523,-0.2675,0.0,0.0,0.0,0.0,0.0,0.0,0.0,0.0,0.0,0.0,0.0,0.0,0.0,0.0,0.0,0.0,0.0,0.0,0.0,0.0,0.0,0.0,0.0,0.0,0.0,0.0,0.0,0.0,0.0,0.0,0.0,0.0,0.0,0.0,0.0,0.0,0.0,0.0,0.0,0.0,0.0,0.0,0.0,0.0,0.0,0.0,0.0,0.0,0.0,0.0,0.0,0.0,0.0,0.0,0.0,0.0,0.0,0.0,0.0,0.0,0.0,0.0,0.0,0.0,0.0,0.0,0.0,0.0,0.0,-0.0279,-0.0388,-0.0494,-0.0544,-0.0648,-0.0749,-0.0796,-0.0897,-0.0998,-0.1044,-0.1089,-0.1191,-0.1398,-0.15,-0.1547,-0.1654,-0.167,-0.168,-0.1683,-0.1684,-0.1675,-0.1669,-0.1667,-0.1663,-0.1661,-0.1647,-0.1637,-0.1636,-0.1632,-0.162,-0.162,-0.1618,-0.1566,-0.1566,-0.1566,-0.1566,-0.1566,-0.1566,-0.1566,-0.1566,-0.1566,-0.1566,-0.1718,-0.1818,-0.1869,-0.1919,0.0,0.0,0.0,0.0,0.0,0.0,0.0,0.0,0.0,0.0,0.0,0.0,0.0,0.0,0.0,0.0,0.0,0.0,0.0,0.0,0.0,0.0,0.0,0.0,0.0,0.0,0.0,0.0,0.0,0.0,0.0,0.0,0.0,0.0,0.0,0.0,0.0,0.0,0.0,0.0,0.0,0.0,0.0,0.0,0.0,0.0,0.0,0.0,0.0,0.0,0.0,0.0,0.0,0.0,0.0,0.0,0.0,0.0,0.0,0.0,0.0,0.0,0.0,0.0,0.0,0.0,0.0,0.0,0.0,0.0,0.0,0.0,-0.033,-0.0384,-0.0436,-0.0486,-0.0536,-0.0693,-0.0793,-0.0894,-0.1052,-0.121,-0.1368,-0.147,-0.158,-0.1648,-0.1709,-0.1711,-0.1717,-0.1659,-0.1649,-0.1646,-0.1688,-0.1683,-0.1682,-0.1671,-0.1714,-0.1705,-0.1637,-0.1622,-0.1619,-0.1618,-0.1566,-0.1566,-0.1566,-0.1566,-0.1566,-0.1566,-0.1566,-0.1566,-0.1566,-0.1566,-0.1566,-0.1566,-0.1566,0.0,0.0,0.0,0.0,0.0,0.0,0.0,0.0,0.0,0.0,0.0,0.0,0.0,0.0,0.0,0.0,0.0,0.0,0.0,0.0,0.0,0.0,0.0,0.0,0.0,0.0,0.0,0.0,0.0,0.0,0.0,0.0,0.0,0.0,0.0,0.0,0.0,0.0,0.0,0.0,0.0,0.0,0.0,0.0,0.0,0.0,0.0,0.0,0.0,0.0,0.0,0.0,0.0,0.0,0.0,0.0,0.0,0.0,0.0,0.0,0.0,0.0,0.0,0.0,0.0,0.0,0.0,0.0,0.0,0.0,0.0,0.0,0.0,0.0,0.0,0.0,0.0,-0.0378,-0.0589,-0.0695,-0.0855,-0.1016,-0.1177,-0.134,-0.1505,-0.1673,-0.1735,-0.1744,-0.1706,-0.1652,-0.1626,-0.1671,-0.1708,-0.1703,-0.1707,-0.1703,-0.1746,-0.173,-0.1662,-0.1643,-0.1623,-0.1618,-0.1566,-0.1566,-0.1566,-0.1566,-0.1566,-0.1566,-0.1566,-0.1566,-0.1566,-0.1566,-0.1566,-0.1566,-0.1566,0.0,0.0,0.0,0.0,0.0,0.0,0.0,0.0,0.0,0.0,0.0,0.0,0.0,0.0,0.0,0.0,0.0,0.0,0.0,0.0,0.0,0.0,0.0,0.0,0.0,0.0,0.0,0.0,0.0,0.0,0.0,0.0,0.0,0.0,0.0,0.0,0.0,0.0,0.0,0.0,0.0,0.0,0.0,0.0,0.0,0.0,0.0,0.0,0.0,0.0,0.0,0.0,0.0,0.0,0.0,0.0,0.0,0.0,0.0,0.0,0.0,0.0,0.0,0.0,0.0,0.0,0.0,0.0,0.0,0.0,0.0,0.0,0.0,0.0,0.0,0.0,0.0,-0.0165,-0.0274,-0.0329,-0.0494,-0.0659,-0.0824,-0.1043,-0.1156,-0.1211,-0.1381,-0.1435,-0.1451,-0.157,-0.1549,-0.1589,-0.1629,-0.174,-0.1752,-0.1742,-0.1776,-0.1759,-0.174,-0.1668,-0.1649,-0.1628,-0.1566,-0.1569,-0.157,-0.1566,-0.1566,-0.1566,-0.1566,-0.1566,-0.1566,-0.1566,-0.1567,-0.1622,-0.1628,0.0,0.0,0.0,0.0,0.0,0.0,0.0,0.0,0.0,0.0,0.0,0.0,0.0,0.0,0.0,0.0,0.0,0.0,0.0,0.0,0.0,0.0,0.0,0.0,0.0,0.0,0.0,0.0,0.0,0.0,0.0,0.0,0.0,0.0,0.0,0.0,0.0,0.0,0.0,0.0,0.0,0.0,0.0,0.0,0.0,0.0,0.0,0.0,0.0,0.0,0.0,0.0,0.0,0.0,0.0,0.0,0.0,0.0,0.0,0.0,0.0,0.0,0.0,0.0,0.0,0.0,0.0,0.0,0.0,0.0,0.0,0.0,0.0,0.0,0.0,0.0,0.0,0.0,0.0,0.0,0.0,0.0,-0.0504,-0.0728,-0.0784,-0.0841,-0.0897,-0.0897,-0.0953,-0.1177,-0.1337,-0.1444,-0.1495,-0.1612,-0.1732,-0.1774,-0.1804,-0.1788,-0.1768,-0.1747,-0.1673,-0.1651,-0.1635,-0.1627,-0.1626,-0.162,-0.1566,-0.1566,-0.1566,-0.1568,-0.1566,-0.1619,-0.1633,-0.1638,-0.1646,0.0,0.0,0.0,0.0,0.0,0.0,0.0,0.0,0.0,0.0,0.0,0.0,0.0,0.0,0.0,0.0,0.0,0.0,0.0,0.0,0.0,0.0,0.0,0.0,0.0,0.0,0.0,0.0,0.0,0.0,0.0,0.0,0.0,0.0,0.0,0.0,0.0,0.0,0.0,0.0,0.0,0.0,0.0,0.0,0.0,0.0,0.0,0.0,0.0,0.0,0.0,0.0,0.0,0.0,0.0,0.0,0.0,0.0,0.0,0.0,0.0,0.0,0.0,0.0,0.0,0.0,0.0,0.0,0.0,0.0,0.0,0.0,0.0,0.0,0.0,0.0,0.0,0.0,0.0,0.0,0.0,0.0,-0.0392,-0.0504,-0.0616,-0.0673,-0.0729,-0.0729,-0.0729,-0.0897,-0.1065,-0.1177,-0.1346,-0.157,-0.1737,-0.1791,-0.1774,-0.1814,-0.1796,-0.1774,-0.1751,-0.1725,-0.1658,-0.1652,-0.1633,-0.162,-0.1618,-0.1623,-0.1622,-0.1623,-0.1568,-0.1622,-0.1641,-0.1658,-0.1669]}]]